[[{"header":{"parameterUnit":"m.s-1","parameterCategory":1,"la1":30.6,"la2":28.766,"lo1":-90.7593,"lo2":-88.6598,"dy":0.0162,"dx":0.0183,"nx":116,"ny":114,"refTime":"2023-08-27T12:00:00:Z","depth":0,"parameterNumber":2,"parameterNumberName":"U-component_of_WINDS"},"data":[0.0,0.0,0.0,0.0,0.0,0.0,0.0,0.0,0.0,0.0,0.0,0.0,0.0,0.0,0.0,0.0,0.0,0.0,0.0,0.0,0.0,0.0,0.0,0.0,0.0,0.0,0.0,0.0,0.0,0.0,0.0,0.0,0.0,0.0,0.0,0.0,0.0,0.0,0.0,0.0,0.0,0.0,0.0,0.0,0.0,0.0,0.0,0.0,0.0,0.0,0.0,0.0,0.0,0.0,0.0,0.0,0.0,0.0,0.0,0.0,0.0,0.0,0.0,0.0,0.0,0.0,0.0,0.0,0.0,0.0,0.0,0.0,0.0,0.0,0.0,0.0,0.0,0.0,0.0,0.0,0.0,0.0,0.0,0.0,0.0,0.0,0.0,0.0,0.0,0.0,0.0,0.0,0.0,0.0,0.0,0.0,0.0,0.0,0.0,0.0,0.0,0.0,0.0,0.0,0.0,0.0,0.0,0.0,0.0,0.0,0.0,0.0,0.0,0.0,0.0,0.0,0.0,0.0,0.0,0.0,0.0,0.0,0.0,0.0,0.0,0.0,0.0,0.0,0.0,0.0,0.0,0.0,0.0,0.0,0.0,0.0,0.0,0.0,0.0,0.0,0.0,0.0,0.0,0.0,0.0,0.0,0.0,0.0,0.0,0.0,0.0,0.0,0.0,0.0,0.0,0.0,0.0,0.0,0.0,0.0,0.0,0.0,0.0,0.0,0.0,0.0,0.0,0.0,0.0,0.0,0.0,0.0,0.0,0.0,0.0,0.0,0.0,0.0,0.0,0.0,0.0,0.0,0.0,0.0,0.0,0.0,0.0,0.0,0.0,0.0,0.0,0.0,0.0,0.0,0.0,0.0,0.0,0.0,0.0,0.0,0.0,0.0,0.0,0.0,0.0,0.0,0.0,0.0,0.0,0.0,0.0,0.0,0.0,0.0,0.0,0.0,0.0,0.0,0.0,0.0,0.0,0.0,0.0,0.0,0.0,0.0,0.0,0.0,0.0,0.0,0.0,0.0,0.0,0.0,0.0,0.0,0.0,0.0,0.0,0.0,0.0,0.0,0.0,0.0,0.0,0.0,0.0,0.0,0.0,0.0,0.0,0.0,0.0,0.0,0.0,0.0,0.0,0.0,0.0,0.0,0.0,0.0,0.0,0.0,0.0,0.0,0.0,0.0,0.0,0.0,0.0,0.0,0.0,0.0,0.0,0.0,0.0,0.0,0.0,0.0,0.0,0.0,0.0,0.0,0.0,0.0,0.0,0.0,0.0,0.0,0.0,0.0,0.0,0.0,0.0,0.0,0.0,0.0,0.0,0.0,0.0,0.0,0.0,0.0,0.0,0.0,0.0,0.0,0.0,0.0,0.0,0.0,0.0,0.0,0.0,0.0,0.0,0.0,0.0,0.0,0.0,0.0,0.0,0.0,0.0,0.0,0.0,0.0,0.0,0.0,0.0,0.0,0.0,0.0,0.0,0.0,0.0,0.0,0.0,0.0,0.0,0.0,0.0,0.0,0.0,0.0,0.0,0.0,0.0,0.0,0.0,0.0,0.0,0.0,0.0,0.0,0.0,0.0,0.0,0.0,0.0,0.0,0.0,0.0,0.0,0.0,0.0,0.0,0.0,0.0,0.0,0.0,0.0,0.0,0.0,0.0,0.0,0.0,0.0,0.0,0.0,0.0,0.0,0.0,0.0,0.0,0.0,0.0,0.0,0.0,0.0,0.0,0.0,0.0,0.0,0.0,0.0,0.0,0.0,0.0,0.0,0.0,0.0,0.0,0.0,0.0,0.0,0.0,0.0,0.0,0.0,0.0,0.0,0.0,0.0,0.0,0.0,0.0,0.0,0.0,0.0,0.0,0.0,0.0,0.0,0.0,0.0,0.0,0.0,0.0,0.0,0.0,0.0,0.0,0.0,0.0,0.0,0.0,0.0,0.0,0.0,0.0,0.0,0.0,0.0,0.0,0.0,0.0,0.0,0.0,0.0,0.0,0.0,0.0,0.0,0.0,0.0,0.0,0.0,0.0,0.0,0.0,0.0,0.0,0.0,0.0,0.0,0.0,0.0,0.0,0.0,0.0,0.0,0.0,0.0,0.0,0.0,0.0,0.0,0.0,0.0,0.0,0.0,0.0,0.0,0.0,0.0,0.0,0.0,0.0,0.0,0.0,0.0,0.0,0.0,0.0,0.0,0.0,0.0,0.0,0.0,0.0,0.0,0.0,0.0,0.0,0.0,0.0,0.0,0.0,0.0,0.0,0.0,0.0,0.0,0.0,0.0,0.0,0.0,0.0,0.0,0.0,0.0,0.0,0.0,0.0,0.0,0.0,0.0,0.0,0.0,0.0,0.0,0.0,0.0,0.0,0.0,0.0,0.0,0.0,0.0,0.0,0.0,0.0,0.0,0.0,0.0,0.0,0.0,0.0,0.0,0.0,0.0,0.0,0.0,0.0,0.0,0.0,0.0,0.0,0.0,0.0,0.0,0.0,0.0,0.0,0.0,0.0,0.0,0.0,0.0,0.0,0.0,0.0,0.0,0.0,0.0,0.0,0.0,0.0,0.0,0.0,0.0,0.0,0.0,0.0,0.0,0.0,0.0,0.0,0.0,0.0,0.0,0.0,0.0,0.0,0.0,0.0,0.0,0.0,0.0,0.0,0.0,0.0,0.0,0.0,0.0,0.0,0.0,0.0,0.0,0.0,0.0,0.0,0.0,0.0,0.0,0.0,0.0,0.0,0.0,0.0,0.0,0.0,0.0,0.0,0.0,0.0,0.0,0.0,0.0,0.0,0.0,0.0,0.0,0.0,0.0,0.0,0.0,0.0,0.0,0.0,0.0,0.0,0.0,0.0,0.0,0.0,0.0,0.0,0.0,0.0,0.0,0.0,0.0,0.0,0.0,0.0,0.0,0.0,0.0,0.0,0.0,0.0,0.0,0.0,0.0,0.0,0.0,0.0,0.0,0.0,0.0,0.0,0.0,0.0,0.0,0.0,0.0,0.0,0.0,0.0,0.0,0.0,0.0,0.0,0.0,0.0,0.0,0.0,0.0,0.0,0.0,0.0,0.0,0.0,0.0,0.0,0.0,0.0,0.0,0.0,0.0,0.0,0.0,0.0,0.0,0.0,0.0,0.0,0.0,0.0,0.0,0.0,0.0,0.0,0.0,0.0,0.0,0.0,0.0,0.0,0.0,0.0,0.0,0.0,0.0,0.0,0.0,0.0,0.0,0.0,0.0,0.0,0.0,0.0,0.0,0.0,0.0,0.0,0.0,0.0,0.0,0.0,0.0,0.0,0.0,0.0,0.0,0.0,0.0,0.0,0.0,0.0,0.0,0.0,0.0,0.0,0.0,0.0,0.0,0.0,0.0,0.0,0.0,0.0,0.0,0.0,0.0,0.0,0.0,0.0,0.0,0.0,0.0,0.0,0.0,0.0,0.0,0.0,0.0,0.0,0.0,0.0,0.0,0.0,0.0,0.0,0.0,0.0,0.0,0.0,0.0,0.0,0.0,0.0,0.0,0.0,0.0,0.0,0.0,0.0,0.0,0.0,0.0,0.0,0.0,0.0,0.0,0.0,0.0,0.0,0.0,0.0,0.0,0.0,0.0,0.0,0.0,0.0,0.0,0.0,0.0,0.0,0.0,0.0,0.0,0.0,0.0,0.0,0.0,0.0,0.0,0.0,0.0,0.0,0.0,0.0,0.0,0.0,0.0,0.0,0.0,0.0,0.0,0.0,0.0,0.0,0.0,0.0,0.0,0.0,0.0,0.0,0.0,0.0,0.0,0.0,0.0,0.0,0.0,0.0,0.0,0.0,0.0,0.0,0.0,0.0,0.0,0.0,0.0,0.0,0.0,0.0,0.0,0.0,0.0,0.0,0.0,0.0,0.0,0.0,0.0,0.0,0.0,0.0,0.0,0.0,0.0,0.0,0.0,0.0,0.0,0.0,0.0,0.0,0.0,0.0,0.0,0.0,0.0,0.0,0.0,0.0,0.0,0.0,0.0,0.0,0.0,0.0,0.0,0.0,0.0,0.0,0.0,0.0,0.0,0.0,0.0,0.0,0.0,0.0,0.0,0.0,0.0,0.0,0.0,0.0,0.0,0.0,0.0,0.0,0.0,0.0,0.0,0.0,0.0,0.0,0.0,0.0,0.0,0.0,0.0,0.0,0.0,0.0,0.0,0.0,0.0,0.0,0.0,0.0,0.0,0.0,0.0,0.0,0.0,0.0,0.0,0.0,0.0,0.0,0.0,0.0,0.0,0.0,0.0,0.0,0.0,0.0,0.0,0.0,0.0,0.0,0.0,0.0,0.0,0.0,0.0,0.0,0.0,0.0,0.0,0.0,0.0,0.0,0.0,0.0,0.0,0.0,0.0,0.0,0.0,0.0,0.0,0.0,0.0,0.0,0.0,0.0,0.0,0.0,0.0,0.0,0.0,0.0,0.0,0.0,0.0,0.0,0.0,0.0,0.0,0.0,0.0,0.0,0.0,0.0,0.0,0.0,0.0,0.0,0.0,0.0,0.0,0.0,0.0,0.0,0.0,0.0,0.0,0.0,0.0,0.0,0.0,0.0,0.0,0.0,0.0,0.0,0.0,0.0,0.0,0.0,0.0,0.0,0.0,0.0,0.0,0.0,0.0,0.0,0.0,0.0,0.0,0.0,0.0,0.0,0.0,0.0,0.0,0.0,0.0,0.0,0.0,0.0,0.0,0.0,0.0,0.0,0.0,0.0,0.0,0.0,0.0,0.0,0.0,0.0,0.0,0.0,0.0,0.0,0.0,0.0,0.0,0.0,0.0,0.0,0.0,0.0,0.0,0.0,0.0,0.0,0.0,0.0,0.0,0.0,0.0,0.0,0.0,0.0,0.0,0.0,0.0,0.0,0.0,0.0,0.0,0.0,0.0,0.0,0.0,0.0,0.0,0.0,0.0,0.0,0.0,0.0,0.0,0.0,0.0,0.0,0.0,0.0,0.0,0.0,0.0,0.0,0.0,0.0,0.0,0.0,0.0,0.0,0.0,0.0,0.0,0.0,0.0,0.0,0.0,0.0,0.0,0.0,0.0,0.0,0.0,0.0,0.0,0.0,0.0,0.0,0.0,0.0,0.0,0.0,0.0,0.0,0.0,0.0,0.0,0.0,0.0,0.0,0.0,0.0,0.0,0.0,0.0,0.0,0.0,0.0,0.0,0.0,0.0,0.0,0.0,0.0,0.0,0.0,0.0,0.0,0.0,0.0,0.0,0.0,0.0,0.0,0.0,0.0,0.0,0.0,0.0,0.0,0.0,0.0,0.0,0.0,0.0,0.0,0.0,0.0,0.0,0.0,0.0,0.0,0.0,0.0,0.0,0.0,0.0,0.0,0.0,0.0,0.0,0.0,0.0,0.0,0.0,0.0,0.0,0.0,0.0,0.0,0.0,0.0,0.0,0.0,0.0,0.0,0.0,0.0,0.0,0.0,0.0,0.0,0.0,0.0,0.0,0.0,0.0,0.0,0.0,0.0,0.0,0.0,0.0,0.0,0.0,0.0,0.0,0.0,0.0,0.0,0.0,0.0,0.0,0.0,0.0,0.0,0.0,0.0,0.0,0.0,0.0,0.0,0.0,0.0,0.0,0.0,0.0,0.0,0.0,0.0,0.0,0.0,0.0,0.0,0.0,0.0,0.0,0.0,0.0,0.0,0.0,0.0,0.0,0.0,0.0,0.0,0.0,0.0,0.0,0.0,0.0,0.0,0.0,0.0,0.0,0.0,0.0,0.0,0.0,0.0,0.0,0.0,0.0,0.0,0.0,0.0,0.0,0.0,0.0,0.0,0.0,0.0,0.0,0.0,0.0,0.0,0.0,0.0,0.0,0.0,0.0,0.0,0.0,0.0,0.0,0.0,0.0,0.0,0.0,0.0,0.0,0.0,0.0,0.0,0.0,0.0,0.0,0.0,0.0,0.0,0.0,0.0,0.0,0.0,0.0,0.0,0.0,0.0,0.0,0.0,0.0,0.0,0.0,0.0,0.0,0.0,0.0,0.0,0.0,0.0,0.0,0.0,0.0,0.0,0.0,0.0,0.0,0.0,0.0,0.0,0.0,0.0,0.0,0.0,1.8129,1.8547,0.0,0.0,0.0,0.0,0.0,0.0,0.0,0.0,0.0,0.0,0.0,0.0,0.0,0.0,0.0,0.0,0.0,0.0,0.0,0.0,0.0,0.0,0.0,0.0,0.0,0.0,0.0,0.0,0.0,0.0,0.0,0.0,0.0,0.0,0.0,0.0,0.0,0.0,2.2211,2.1593,2.0845,2.1471,2.1993,2.2435,0.0,0.0,0.0,0.0,0.0,0.0,0.0,0.0,0.0,0.0,0.0,0.0,0.0,0.0,0.0,0.0,0.0,0.0,0.0,0.0,0.0,0.0,0.0,0.0,0.0,0.0,0.0,0.0,0.0,0.0,0.0,0.0,0.0,0.0,0.0,0.0,0.0,0.0,0.0,0.0,0.0,0.0,0.0,0.0,0.0,0.0,0.0,0.0,0.0,0.0,0.0,0.0,0.0,0.0,0.0,0.0,0.0,0.0,0.0,0.0,0.0,0.0,0.0,0.0,0.0,0.0,0.0,0.0,0.0,0.0,1.8832,1.8763,0.0,0.0,0.0,0.0,0.0,0.0,0.0,0.0,0.0,0.0,0.0,0.0,0.0,0.0,0.0,0.0,0.0,0.0,0.0,0.0,0.0,0.0,0.0,0.0,0.0,0.0,0.0,0.0,0.0,0.0,0.0,0.0,0.0,0.0,0.0,0.0,0.0,2.2444,2.1402,2.0287,1.9121,1.9625,2.0004,2.0235,2.1647,0.0,0.0,0.0,0.0,0.0,0.0,0.0,0.0,0.0,0.0,0.0,0.0,0.0,0.0,0.0,0.0,0.0,0.0,0.0,0.0,0.0,0.0,0.0,0.0,0.0,0.0,0.0,0.0,0.0,0.0,0.0,0.0,0.0,0.0,0.0,0.0,0.0,0.0,0.0,0.0,0.0,0.0,0.0,0.0,0.0,0.0,0.0,0.0,0.0,0.0,0.0,0.0,0.0,0.0,0.0,0.0,0.0,0.0,0.0,0.0,0.0,0.0,0.0,1.8913,1.9246,1.9596,1.9623,1.9399,1.9078,1.9802,1.9179,1.7734,1.91,0.0,0.0,0.0,0.0,0.0,0.0,0.0,0.0,0.0,0.0,0.0,0.0,0.0,0.0,0.0,0.0,0.0,0.0,0.0,0.0,0.0,0.0,2.2032,2.1658,2.1582,2.1582,0.0,0.0,0.0,0.0,0.0,0.0,0.0,2.231,2.2,2.1392,2.0227,1.8947,1.7597,1.8303,1.8023,1.703,1.9735,2.107,2.1342,0.0,0.0,0.0,0.0,0.0,0.0,0.0,0.0,0.0,0.0,0.0,0.0,0.0,0.0,0.0,0.0,0.0,0.0,0.0,0.0,0.0,0.0,0.0,0.0,0.0,0.0,0.0,0.0,0.0,0.0,0.0,0.0,0.0,0.0,0.0,0.0,0.0,0.0,0.0,0.0,0.0,2.2021,2.1069,0.0,0.0,0.0,0.0,0.0,0.0,0.0,0.0,0.0,0.0,0.0,0.0,0.0,1.8038,1.755,1.8246,1.8585,1.8622,1.9049,1.9365,1.9596,1.9713,1.9836,1.9944,2.0164,0.0,1.7791,1.782,0.0,0.0,0.0,0.0,0.0,0.0,0.0,0.0,0.0,0.0,0.0,0.0,0.0,0.0,0.0,0.0,0.0,0.0,0.0,0.0,0.0,2.2061,2.1735,2.1306,2.1244,2.1134,2.0894,0.0,0.0,0.0,0.0,0.0,2.1899,2.218,2.1636,2.0237,1.9918,1.8585,1.6344,1.7243,1.7032,1.5918,1.7562,1.8856,1.982,2.0143,0.0,0.0,0.0,0.0,0.0,0.0,0.0,0.0,0.0,0.0,0.0,0.0,0.0,0.0,0.0,0.0,0.0,0.0,0.0,0.0,0.0,0.0,0.0,0.0,0.0,0.0,0.0,0.0,0.0,0.0,0.0,0.0,0.0,0.0,0.0,0.0,0.0,0.0,0.0,2.291,2.2144,2.066,2.0759,2.0549,0.0,0.0,0.0,0.0,0.0,0.0,0.0,0.0,0.0,1.7156,1.782,1.7938,1.7405,1.8354,1.8825,1.8825,1.9259,1.955,1.972,1.9881,2.0058,2.0229,2.0263,1.9554,1.8362,1.8304,1.7993,1.7527,0.0,0.0,0.0,0.0,1.6745,1.5972,0.0,0.0,0.0,0.0,0.0,0.0,0.0,0.0,0.0,0.0,0.0,0.0,2.231,2.1899,2.143,2.1039,2.0781,2.0534,2.0314,2.0501,0.0,0.0,0.0,2.1582,2.1582,2.1876,2.1284,1.9745,1.9903,1.8576,1.5935,1.6902,1.6696,1.5556,1.6019,1.6931,1.8177,1.8134,1.8804,1.9973,0.0,0.0,0.0,0.0,0.0,0.0,0.0,0.0,0.0,0.0,0.0,0.0,0.0,0.0,0.0,0.0,0.0,0.0,0.0,0.0,0.0,0.0,0.0,0.0,0.0,0.0,0.0,0.0,0.0,0.0,0.0,0.0,0.0,0.0,0.0,0.0,0.0,2.2607,2.1869,2.0292,2.0268,2.0059,0.0,0.0,0.0,0.0,0.0,0.0,1.762,1.767,1.7478,1.697,1.7814,1.8031,1.7495,1.8485,1.9018,1.9067,1.9409,1.9695,1.9858,2.0009,2.0164,2.0306,2.0302,1.9831,1.9075,1.8922,1.8099,1.6879,1.6865,1.6549,1.6189,1.6687,1.6503,1.6055,0.0,0.0,0.0,0.0,0.0,0.0,0.0,0.0,0.0,0.0,0.0,2.231,2.231,2.1899,2.143,2.1039,2.0181,1.9869,2.028,1.9904,2.0078,2.0959,2.1399,2.1582,2.1582,2.1373,2.0998,2.043,2.0086,1.881,1.6766,1.7632,1.7196,1.568,1.5653,1.5959,1.6524,1.6859,1.7342,1.7981,1.8415,0.0,0.0,0.0,0.0,0.0,0.0,0.0,0.0,0.0,0.0,0.0,0.0,0.0,0.0,0.0,0.0,0.0,0.0,0.0,0.0,0.0,0.0,0.0,0.0,0.0,0.0,0.0,0.0,0.0,0.0,0.0,0.0,0.0,0.0,0.0,0.0,0.0,0.0,2.0415,1.9724,0.0,0.0,0.0,0.0,1.7764,1.7715,1.7603,1.7327,1.7551,1.7676,1.7642,1.8241,1.8548,1.8532,1.8825,1.9066,1.9201,1.9462,1.9738,1.9984,2.0003,2.0115,2.0297,2.0294,2.0127,1.9801,1.9092,1.8136,1.7059,1.682,1.6612,1.6384,1.5464,1.5617,1.6043,0.0,0.0,0.0,0.0,0.0,0.0,0.0,0.0,0.0,2.2237,2.231,2.231,2.231,2.1645,2.115,2.0991,1.9869,1.92,1.9398,1.9236,1.931,1.9621,2.0651,2.1477,2.2032,2.1678,2.1048,2.0175,1.9782,1.8694,1.6992,1.7654,1.7325,1.6204,1.6153,1.6046,1.5872,1.5612,1.6052,1.6935,1.7397,1.865,0.0,0.0,0.0,0.0,0.0,0.0,0.0,0.0,0.0,0.0,0.0,0.0,0.0,0.0,0.0,0.0,0.0,0.0,0.0,0.0,0.0,0.0,0.0,0.0,0.0,0.0,0.0,0.0,0.0,0.0,0.0,0.0,0.0,0.0,0.0,0.0,0.0,2.0173,1.9344,0.0,1.9063,1.8667,1.8223,1.7737,1.7693,1.772,1.7808,1.8405,1.8832,1.9052,1.9927,2.0387,2.0387,2.0117,1.9998,2.0042,1.9828,1.9786,1.988,2.0019,2.0079,2.0107,2.0067,1.991,1.9682,1.9431,1.8308,1.6721,1.611,1.5441,1.4857,1.5152,1.5337,1.5542,0.0,0.0,0.0,0.0,0.0,0.0,0.0,0.0,0.0,2.2003,2.2209,2.231,2.231,2.1524,2.0991,2.0991,1.9534,1.8688,1.8893,1.8727,1.8688,1.8893,2.0093,2.1181,2.2032,2.1628,2.0986,2.0099,1.9827,1.9034,1.7739,1.8072,1.7815,1.7022,1.6978,1.6778,1.6411,1.5635,1.5475,1.586,1.6376,1.7437,1.8869,0.0,0.0,0.0,0.0,0.0,0.0,0.0,0.0,0.0,0.0,0.0,0.0,0.0,0.0,0.0,0.0,0.0,0.0,0.0,0.0,0.0,0.0,0.0,0.0,0.0,0.0,0.0,0.0,0.0,0.0,0.0,0.0,0.0,0.0,2.2382,2.1735,2.0896,1.9966,1.9502,1.9805,1.9303,1.8871,1.8648,1.8753,1.8884,1.9073,1.9671,2.0114,2.0325,2.1114,2.1534,2.1534,2.113,2.0974,2.1002,2.0681,2.0565,2.0596,2.0755,2.0641,2.0321,2.0299,2.002,1.9594,1.9597,1.8609,1.7044,1.652,1.568,1.4864,1.5524,1.5786,1.5928,0.0,0.0,0.0,0.0,0.0,0.0,0.0,0.0,2.115,2.1552,2.2003,2.231,2.231,2.1524,2.0991,2.0991,1.9229,1.8341,1.8855,1.8419,1.838,1.893,1.9814,2.0699,2.1552,2.1181,2.0764,2.0314,2.028,1.9814,1.893,1.8945,1.8679,1.8173,1.8187,1.8208,1.8193,1.7029,1.5876,1.4834,1.5377,1.6188,1.7128,0.0,0.0,0.0,0.0,0.0,0.0,0.0,0.0,0.0,0.0,0.0,0.0,0.0,0.0,0.0,0.0,0.0,0.0,0.0,0.0,0.0,0.0,0.0,0.0,0.0,0.0,0.0,0.0,0.0,0.0,0.0,0.0,0.0,2.4458,2.3768,2.31,2.2638,2.1596,2.0806,2.0573,2.0535,2.0535,2.0516,2.0831,2.1013,2.1013,2.1288,2.1459,2.1459,2.1734,2.1876,2.1876,2.1858,2.1906,2.203,2.2009,2.2062,2.2195,2.2195,2.1776,2.1029,2.1034,2.0483,1.9626,1.9631,1.9039,1.8128,1.8109,1.7449,1.6495,1.649,1.6879,1.7232,0.0,0.0,0.0,0.0,0.0,0.0,0.0,2.0698,2.115,2.1552,2.2003,2.231,2.231,2.1524,2.0991,2.0991,1.9585,1.8727,1.8893,1.8765,1.9051,1.9884,2.0162,2.0583,2.115,2.0715,2.0449,2.0314,2.0,1.9732,1.9493,1.9997,1.9938,1.943,1.9912,1.9908,1.9567,1.923,1.838,1.7078,1.5567,1.5584,1.6667,0.0,0.0,0.0,0.0,0.0,0.0,0.0,0.0,0.0,0.0,0.0,0.0,0.0,0.0,0.0,0.0,0.0,0.0,0.0,0.0,0.0,0.0,0.0,0.0,0.0,0.0,0.0,0.0,0.0,0.0,0.0,2.4682,2.4379,2.3469,2.3015,2.2659,2.2293,2.1494,2.1143,2.1622,2.118,2.0951,2.1135,2.1233,2.1367,2.1571,2.2209,2.2557,2.2557,2.3217,2.3529,2.3529,2.296,2.2684,2.2719,2.2242,2.2021,2.2047,2.2047,2.1924,2.1714,2.1622,2.1083,2.0255,2.0252,1.9764,1.8895,1.834,1.7442,1.6501,1.6499,1.6757,1.713,0.0,0.0,0.0,0.0,0.0,0.0,0.0,2.0599,2.1086,2.1306,2.1899,2.231,2.231,2.1524,2.0991,2.0991,1.9963,1.9195,1.8907,1.8893,1.9443,2.0663,2.0277,2.04,2.1108,2.04,2.007,2.007,2.0104,2.0124,2.0124,2.0812,2.0956,2.068,2.1366,2.1624,2.1542,2.1383,2.0993,2.0355,1.7892,1.6692,1.6365,1.6685,1.691,1.7157,1.7611,1.8346,1.9161,1.9416,0.0,0.0,0.0,0.0,0.0,0.0,0.0,0.0,0.0,0.0,0.0,0.0,0.0,0.0,0.0,0.0,0.0,0.0,0.0,0.0,0.0,0.0,0.0,0.0,2.4756,2.4542,2.3801,2.3596,2.3419,2.3153,2.2598,2.2447,2.2932,2.247,2.2242,2.2554,2.2573,2.2629,2.2795,2.3254,2.3511,2.3511,2.3951,2.419,2.419,2.3749,2.3511,2.3511,2.3104,2.2916,2.2916,2.2916,2.2745,2.2404,2.235,2.1619,2.0496,2.0502,2.0025,1.9253,0.0,0.0,0.0,0.0,1.7342,1.7224,0.0,0.0,0.0,0.0,0.0,0.0,0.0,2.0447,2.1023,2.1055,2.1781,2.231,2.2349,2.1538,2.0991,2.0991,2.0376,1.9788,1.9266,1.915,1.976,2.127,2.0419,2.0358,2.1214,2.0358,1.9869,1.9794,2.0483,2.0827,2.0842,2.1575,2.1904,2.1949,2.2682,2.331,2.379,2.3451,2.3545,2.3702,2.1515,1.8982,1.655,1.6574,1.6385,1.5975,1.5721,1.6095,1.6834,1.7449,0.0,0.0,0.0,0.0,0.0,0.0,0.0,0.0,0.0,0.0,0.0,0.0,0.0,0.0,0.0,0.0,0.0,0.0,0.0,0.0,0.0,0.0,0.0,0.0,2.4891,2.4814,2.4814,2.4922,2.4884,2.4578,2.4264,2.4137,2.4266,2.4072,2.4051,2.4247,2.4358,2.4394,2.4357,2.4357,0.0,0.0,0.0,2.4337,2.4337,2.4245,2.419,2.419,2.419,2.419,2.419,2.419,2.3804,2.3125,2.3142,2.2191,2.0659,2.0655,2.008,1.9201,1.9034,1.8806,1.8619,1.8829,1.8208,1.7464,0.0,0.0,0.0,0.0,0.0,0.0,0.0,2.0447,2.1102,2.1379,2.1924,2.2388,2.2599,2.1668,2.0991,2.0991,2.0712,2.0718,2.1119,2.0644,2.0721,2.1573,2.1404,2.115,2.0805,2.1135,2.1051,2.0513,2.1186,2.1515,2.153,2.2697,2.3236,2.3295,2.4507,2.5106,2.5255,2.5685,2.5368,2.4534,2.4533,2.2142,1.856,1.7968,1.6865,1.569,1.6091,1.6053,1.5837,1.6486,1.7679,1.9116,2.0176,2.0972,0.0,0.0,0.0,0.0,0.0,0.0,0.0,0.0,0.0,0.0,0.0,0.0,0.0,0.0,0.0,0.0,0.0,0.0,0.0,2.4855,2.4917,2.4962,2.4962,2.57,2.5886,2.4865,2.4678,2.4666,2.4685,2.5217,2.5311,2.4742,2.5286,2.5581,2.543,2.5411,2.5634,2.6117,2.5511,2.5182,2.5182,2.452,2.419,2.419,2.419,0.0,2.419,2.419,2.4116,2.3969,2.3969,2.305,2.1552,2.1535,2.044,1.8726,1.8684,1.8645,1.8624,1.8839,1.8211,1.7531,0.0,0.0,0.0,0.0,0.0,0.0,0.0,2.0447,2.1199,2.1729,2.2069,2.2485,2.2986,2.181,2.0991,2.0991,2.0834,2.0991,2.165,2.1395,2.15,2.2158,2.1874,2.1695,2.1695,2.1695,2.1545,2.1201,2.2173,2.2652,2.2682,2.3984,2.4777,2.5151,2.6138,2.6782,2.7156,2.7814,2.772,2.7115,2.7026,2.5331,2.2647,2.0016,1.8029,1.6599,1.6132,1.5566,1.5187,1.608,1.6904,1.7752,1.9266,2.0431,2.1434,0.0,0.0,0.0,0.0,0.0,0.0,0.0,0.0,0.0,0.0,0.0,0.0,0.0,0.0,2.5485,2.5416,0.0,2.588,2.581,2.6224,2.6538,2.6515,2.6954,2.6864,2.569,2.5929,2.6148,2.6061,2.6405,2.648,2.6084,2.6424,2.6604,2.651,2.6493,2.6442,2.6302,2.582,2.5356,2.4949,2.445,2.419,2.419,2.419,2.419,2.419,2.419,2.419,2.419,2.419,2.3287,2.1732,2.0882,1.9862,1.8817,1.9055,1.8984,1.8802,1.9275,1.9002,1.861,0.0,0.0,0.0,0.0,0.0,0.0,0.0,0.0,0.0,2.1891,2.2159,2.2558,2.3204,2.1974,2.1103,2.1052,2.0931,2.1196,2.2009,2.2054,2.234,2.3026,2.2413,2.2263,2.2709,2.2278,2.2069,2.2069,2.3236,2.3924,2.4208,2.542,2.6348,2.7021,2.7799,2.8442,2.9026,2.9819,2.9998,2.9704,2.921,2.8115,2.6357,2.2688,2.001,1.8047,1.6528,1.5497,1.4953,1.6149,1.6538,1.6832,1.8616,2.0116,2.1239,2.1668,2.2546,0.0,0.0,0.0,0.0,0.0,0.0,0.0,0.0,2.629,2.5737,2.597,2.6005,2.6026,2.61,2.6616,2.7043,2.7043,2.7632,2.8125,2.8213,2.8375,2.8195,2.7433,2.7523,2.7599,2.7443,2.7713,2.777,2.7447,2.7732,2.7812,2.7597,2.7597,2.732,2.6748,2.6416,2.5905,2.522,2.4875,2.4633,2.4428,2.4428,2.4355,2.419,2.419,2.419,2.419,2.4024,2.3216,2.1917,2.0425,1.9629,1.9408,1.9797,1.9688,1.9416,2.0003,1.9934,1.963,0.0,0.0,0.0,0.0,0.0,0.0,0.0,0.0,0.0,2.1507,2.2003,2.2422,2.2729,2.2039,2.1455,2.1292,2.1372,2.198,2.3308,2.3254,2.3539,2.4343,2.3759,2.3161,2.2724,2.3146,2.3385,2.3385,2.4148,2.5121,2.6273,2.7006,2.7709,2.8427,2.9639,3.0223,3.0372,3.1644,3.1495,3.0447,3.0947,2.9631,2.7299,2.6246,2.3341,1.9559,1.8295,1.6787,1.5601,1.6775,1.7183,1.7509,1.9318,1.9932,2.0402,2.2629,2.2975,2.3167,2.5566,2.6723,2.75,2.8511,2.8109,2.78,0.0,2.8479,2.7721,2.7875,2.7844,2.7831,2.7907,2.7924,2.796,2.796,2.8037,2.8326,2.8974,2.9737,3.0448,3.1037,2.9187,2.7868,2.7827,2.919,2.944,2.7942,2.921,2.9647,2.8684,2.8632,2.8829,2.928,2.8563,2.8028,2.7699,2.6972,2.6153,2.5274,2.5271,2.4904,2.419,2.419,2.419,2.4153,2.3434,2.3033,2.28,2.1897,2.1201,2.0689,2.0741,2.0845,2.096,2.1055,2.039,1.9638,0.0,0.0,0.0,0.0,0.0,0.0,0.0,0.0,0.0,0.0,2.2748,2.2845,2.3665,2.2438,2.1645,2.1748,2.2188,2.3028,2.4483,2.4554,2.4713,2.5127,2.4505,2.3879,2.3236,2.3864,2.4193,2.4193,2.5644,2.6826,2.7784,2.8801,2.9849,3.0896,3.1435,3.1884,3.2287,3.2841,3.2766,3.2243,3.2138,3.1187,2.9601,2.7875,2.555,2.3018,2.0649,1.877,0.0,1.8582,1.8581,1.8607,2.0441,2.0975,2.1205,2.261,2.282,2.3161,2.5684,2.7842,2.9448,2.9824,3.0077,3.0285,3.0585,2.9503,2.8675,2.9382,2.911,2.8767,2.8886,2.9292,2.9635,2.9713,3.0162,3.0743,3.1471,3.1891,3.2045,3.184,3.1314,3.0941,3.081,3.1445,3.1569,3.0859,3.1468,3.1655,3.1213,3.0733,3.0368,3.0114,2.917,2.8316,2.758,2.7138,2.6617,2.608,2.5625,2.5221,2.4869,2.441,2.419,2.4153,2.3361,2.2996,2.2939,2.2134,2.1442,2.0934,2.1376,2.1417,2.1194,2.1194,2.1161,2.1128,0.0,0.0,0.0,0.0,0.0,0.0,0.0,0.0,0.0,0.0,0.0,0.0,0.0,2.2754,2.1792,2.194,2.2678,2.3651,2.4868,2.5359,2.5648,2.5734,2.5182,2.4672,2.4163,2.4642,2.5076,2.5435,2.6871,2.8203,2.943,3.0357,3.1509,3.2796,3.2976,3.332,3.3784,3.3963,3.3933,3.3724,3.3245,3.2437,3.1287,2.9175,2.738,2.5523,2.2365,2.0459,1.9548,2.0061,1.9887,1.976,2.1267,2.1697,2.1852,2.2498,2.3128,2.402,2.625,2.8653,3.06,3.0863,3.1637,3.2203,3.1764,3.0758,3.026,3.1383,3.0906,3.0432,3.0798,3.1181,3.1484,3.1562,3.2129,3.2793,3.3555,3.3654,3.3473,3.3,3.3301,3.3577,3.3665,3.3434,3.3179,3.2923,3.3109,3.316,3.2897,3.2141,3.141,3.0794,2.9775,2.8826,2.7979,2.7539,2.7121,2.6663,2.5827,2.5291,2.5054,2.4465,2.419,2.4171,2.3581,2.3343,2.3287,2.2699,2.2151,2.1724,2.2151,2.204,2.1591,2.1541,2.1832,2.2175,0.0,0.0,0.0,0.0,0.0,0.0,0.0,0.0,0.0,0.0,0.0,0.0,0.0,2.2636,2.1956,2.165,2.2589,2.3462,2.4106,2.5424,2.6246,2.6359,2.5879,2.557,2.5555,2.557,2.6213,2.7535,2.7595,2.8906,3.1377,3.1422,3.2213,3.3499,3.4128,3.4427,3.4487,3.516,3.5055,3.4442,3.4427,3.326,3.1392,3.066,2.8773,2.6064,2.2926,2.1394,2.0827,2.078,2.0819,2.0951,2.1517,2.1697,2.1852,2.2498,2.4128,2.609,2.7769,2.9142,3.0392,3.1496,3.2184,3.2581,3.2562,3.2675,3.3077,3.4152,3.3685,3.3365,3.4353,3.3874,3.332,3.332,3.3359,3.3633,3.4453,3.4556,3.4826,3.5507,3.4922,3.4757,3.5547,3.479,3.3878,3.2968,3.3673,3.3794,3.2948,3.2148,3.1698,3.166,3.0802,3.0196,2.9923,2.8928,2.794,2.6878,2.5881,2.5002,2.4245,2.4208,2.419,2.419,2.4171,2.4153,2.4153,2.4153,2.3913,2.3595,2.3267,2.2943,2.2604,2.2361,2.2265,2.2161,0.0,0.0,0.0,0.0,0.0,0.0,0.0,0.0,0.0,0.0,0.0,0.0,0.0,0.0,0.0,0.0,2.3856,2.4795,2.602,2.6961,2.7316,2.6999,2.6929,2.6489,2.5615,2.6467,2.7126,2.7625,2.934,3.0881,3.2198,3.308,3.3963,3.4846,3.5055,3.516,3.5175,3.54,3.537,3.5085,3.4188,3.3425,3.2572,3.0163,2.8375,2.6886,0.0,2.263,2.2014,2.2058,2.208,2.2257,2.3214,2.349,2.3618,2.4179,2.5659,2.7232,2.8071,3.0086,3.2093,3.2722,3.4103,3.5321,3.5307,3.5364,3.5688,3.6625,3.5245,3.38,3.3602,3.3418,3.3105,3.2617,3.3516,3.4551,3.541,3.5525,3.5405,3.5085,3.5301,3.5372,3.5008,3.4633,3.4493,3.468,3.4955,3.4724,3.3801,3.2968,3.2256,3.1718,3.0852,3.0273,3.0011,2.9669,2.895,2.7879,2.6332,2.5111,2.419,2.419,2.419,2.419,2.419,2.419,2.419,2.419,2.4005,2.369,2.3581,2.319,2.2683,2.2587,2.2457,2.2209,0.0,0.0,0.0,0.0,0.0,0.0,0.0,0.0,0.0,0.0,0.0,0.0,0.0,0.0,0.0,0.0,0.0,2.4879,2.6171,2.7005,2.7347,2.7155,2.7111,2.6734,2.5909,2.6519,2.7096,2.7625,2.952,3.1061,3.2198,3.3514,3.4487,3.5145,3.5385,3.5504,3.5504,3.5504,3.522,3.4711,3.3844,3.3066,3.2168,2.9834,2.8368,0.0,2.5457,2.4115,2.3245,2.2818,2.295,2.342,2.4184,2.4641,2.5051,2.5863,2.7262,2.8722,2.9561,3.1853,3.4054,3.4358,3.5815,3.7156,3.7161,3.7156,3.7343,3.794,3.6267,3.4557,3.4087,3.3587,3.2985,3.2187,3.3047,3.4101,3.4941,3.5078,3.5083,3.5158,3.5377,3.5541,3.5566,3.4954,3.4865,3.5559,3.5603,3.5334,3.4699,3.3545,3.266,3.216,3.1006,3.0318,3.0133,2.9475,2.8464,2.7112,2.5929,2.4996,2.4319,2.4319,2.4282,2.419,2.419,2.419,2.419,2.419,2.406,2.3876,2.3747,2.343,2.3038,2.2911,2.2773,2.2504,0.0,0.0,0.0,0.0,0.0,0.0,0.0,0.0,0.0,0.0,0.0,0.0,0.0,0.0,0.0,0.0,0.0,0.0,2.4751,2.5718,2.6453,2.6864,2.6619,2.6481,2.6512,2.6031,2.6429,2.7755,2.8441,2.9748,3.1552,3.2901,3.3847,3.4478,3.5123,3.5439,3.5469,3.5469,3.4733,3.3547,3.3456,3.2287,3.0473,2.9798,2.8682,2.7535,2.6782,2.5734,2.4522,2.3316,2.367,2.4667,2.4692,2.5355,2.6358,2.7605,2.9079,3.0659,3.219,3.4246,3.6022,3.6272,3.7201,3.8041,3.806,3.8099,3.8157,3.8238,3.6839,3.5598,3.5635,3.4359,3.3014,3.2202,3.2246,3.2676,3.3496,3.3555,3.416,3.5859,3.5293,3.5449,3.7207,3.5781,3.5018,3.5649,3.5617,3.5565,3.5435,3.3833,3.2891,3.2833,3.1256,3.0398,3.0398,2.8545,2.671,2.4947,2.4848,2.4709,2.4506,2.4504,2.4393,2.419,2.419,2.419,2.419,2.421,2.4209,2.4171,2.3858,2.371,2.3652,2.3348,2.3216,2.3046,0.0,0.0,0.0,0.0,0.0,0.0,0.0,0.0,0.0,0.0,0.0,0.0,0.0,0.0,0.0,0.0,0.0,0.0,2.5062,2.62,2.6896,2.6902,2.7371,2.7718,2.7803,2.8162,2.8763,2.9674,3.0835,3.1632,3.2113,3.2989,3.342,3.3591,3.3779,3.4194,3.4664,3.4664,3.45,3.4085,3.3187,3.2149,3.0976,2.8891,2.7925,2.7475,2.6273,2.594,2.5995,2.5618,2.665,2.811,2.8522,2.9417,3.0489,3.1214,3.2371,3.3473,3.3869,3.5206,3.6554,3.6832,3.7756,3.8666,3.8922,3.9427,3.9696,3.9148,3.7147,3.514,3.3863,3.3412,3.3151,3.2927,3.4054,3.5273,3.6172,3.5703,3.5684,3.6836,3.6191,3.6348,3.8105,3.6699,3.5973,3.6746,3.6106,3.5359,3.4653,3.353,3.2622,3.203,3.0948,3.0398,3.0398,2.87,2.7517,2.6872,2.5558,2.4784,2.4511,2.4498,2.4393,2.419,2.419,2.419,2.421,2.437,2.4343,2.4208,2.4282,2.4042,2.369,2.361,2.3401,2.3178,0.0,0.0,0.0,0.0,0.0,0.0,0.0,0.0,0.0,0.0,0.0,0.0,0.0,0.0,0.0,0.0,0.0,0.0,0.0,2.576,2.633,2.6496,2.6928,2.7208,2.7284,2.7747,2.8179,2.8578,2.9876,3.0497,3.0466,3.1417,3.2067,3.2403,3.2669,3.3244,3.3948,3.3948,3.3582,0.0,0.0,3.1428,3.0344,2.8914,2.8222,2.7936,2.7457,2.7884,2.8654,2.8698,2.8955,2.9433,3.0306,3.1317,3.23,3.2958,3.4173,3.5319,3.5439,3.6589,3.7778,3.7838,3.8594,3.9246,3.8819,3.8992,3.8919,3.7847,3.5815,3.4077,3.3562,3.3311,3.3194,3.3203,3.4397,3.5522,3.6084,3.5684,3.5684,3.6621,3.6309,3.6523,3.7891,3.6797,3.6348,3.7187,3.6338,3.5534,3.4949,3.369,3.2781,3.2338,3.1064,3.0052,2.9306,2.8717,2.7815,2.6574,2.5976,2.537,2.4716,2.4652,2.4561,2.4461,2.4369,2.4369,2.4476,2.4593,2.4568,2.446,2.4591,2.4386,2.4044,2.4059,2.3883,2.3627,0.0,0.0,0.0,0.0,0.0,0.0,0.0,0.0,0.0,0.0,0.0,0.0,0.0,0.0,0.0,0.0,0.0,0.0,0.0,0.0,0.0,2.5961,2.6013,2.6082,2.6234,2.6401,2.6541,2.6575,2.7782,2.8319,2.8233,2.9393,3.0304,3.0926,3.1502,3.2221,3.3022,3.3022,3.2431,3.1501,3.1454,3.0621,2.9496,0.0,0.0,2.8559,2.918,3.0194,3.1308,3.1735,3.1115,3.0368,3.1726,3.2748,3.3596,3.4458,3.5679,3.682,3.7052,3.8066,3.9013,3.8871,3.9337,3.948,3.8185,3.7717,3.7164,3.5739,3.401,3.3012,3.3858,3.3465,3.3118,3.3458,3.4096,3.4752,3.5284,3.5093,3.5312,3.6387,3.6406,3.668,3.7559,3.6758,3.6484,3.7246,3.6445,3.5864,3.5728,3.4173,3.3179,3.2942,3.1295,2.9713,2.8253,2.8806,2.7984,2.5803,2.6352,2.6102,2.5148,2.4929,2.4825,2.4785,2.4606,2.4633,2.4799,2.4818,2.4828,2.48,2.4815,2.47,2.4535,2.4543,2.4445,2.4229,0.0,0.0,0.0,0.0,0.0,0.0,0.0,0.0,0.0,0.0,2.4283,2.3595,0.0,0.0,0.0,0.0,0.0,0.0,0.0,0.0,0.0,0.0,2.6013,2.6474,2.7464,2.7511,2.7861,2.8498,2.8749,2.8867,2.8867,2.908,2.9281,2.9398,2.9493,3.0296,3.155,3.155,3.1792,3.2093,3.1589,3.0904,3.0081,2.9585,0.0,0.0,2.918,2.9886,3.0839,3.3201,3.4206,3.4847,3.6596,3.7658,3.8498,3.9509,3.9566,3.9307,3.935,3.9068,3.8803,3.8995,3.8664,3.8126,3.7483,3.7286,3.6873,3.545,3.4333,3.3492,3.3192,3.2543,3.2721,3.4844,3.4725,3.5392,3.8406,3.7482,3.7187,3.9004,3.8496,3.8379,3.9355,3.8008,3.7148,3.7285,3.6484,3.5956,3.5864,3.4842,3.3569,3.2081,3.1018,3.0321,2.9963,2.9396,2.8876,2.8422,2.7189,2.642,2.6053,2.5305,2.4892,2.4799,2.4755,2.476,2.4798,2.4924,2.4897,2.4809,2.4929,2.4885,2.4741,2.4746,2.4731,2.4572,0.0,0.0,0.0,0.0,0.0,0.0,0.0,2.5615,2.5615,2.5615,2.5046,2.4522,2.4178,2.3819,2.3744,0.0,0.0,0.0,0.0,0.0,0.0,0.0,0.0,0.0,2.7198,2.7587,2.801,2.8383,0.0,2.8772,2.8383,2.8383,2.8383,2.8383,2.8383,2.8991,3.0074,3.0463,3.0835,3.1173,3.1247,3.1098,3.074,0.0,0.0,0.0,2.9892,3.0481,3.1649,3.3598,3.4874,3.583,3.7163,3.8233,3.9118,3.9569,3.9859,4.0104,4.0437,4.0252,4.0019,4.0327,3.9768,3.8707,3.6915,3.6083,3.5344,3.4073,3.3034,3.2601,3.3429,3.3338,3.3554,3.4774,3.4972,3.5747,3.7973,3.7494,3.7274,3.8264,3.8369,3.8203,3.7851,3.7441,3.7031,3.6641,3.623,3.5996,3.5957,3.5057,3.3924,3.2575,3.1681,3.1018,3.0564,3.0078,2.9154,2.7852,2.7458,2.6746,2.5765,2.5241,2.5011,2.5049,2.4935,2.4973,2.5072,2.513,2.5118,2.5061,2.5122,2.5053,2.4904,2.4904,2.4869,2.4747,0.0,0.0,0.0,0.0,0.0,0.0,0.0,2.6033,2.6033,2.6033,2.5899,2.5615,2.5106,2.4448,2.4253,0.0,0.0,0.0,0.0,0.0,0.0,0.0,0.0,0.0,2.674,0.0,0.0,2.7789,2.8602,0.0,0.0,0.0,0.0,0.0,2.7638,2.801,2.8789,2.955,2.9973,0.0,0.0,3.119,3.119,0.0,0.0,0.0,0.0,3.1099,3.2411,3.3654,3.4672,3.5531,3.6332,3.7729,3.8999,3.8672,3.9542,4.0709,4.1031,4.1093,4.1176,4.1447,4.0701,3.9197,3.637,3.4921,3.3836,3.2511,3.158,3.1539,3.3333,3.36,3.3651,3.4029,3.4455,3.5355,3.7043,3.7043,3.7112,3.7777,3.826,3.7982,3.657,3.6851,3.6816,3.6055,3.5996,3.5996,3.5996,3.4941,3.4004,3.3242,3.2188,3.1332,3.0684,3.0568,2.9516,2.7536,2.7999,2.7488,2.611,2.5592,2.545,2.5553,2.5217,2.5152,2.5303,2.5303,2.5303,2.5303,2.5303,2.5203,2.5077,2.5077,2.5012,2.4915,0.0,0.0,0.0,0.0,0.0,0.0,0.0,2.7445,2.7445,2.7445,2.6871,2.6482,2.6422,2.5824,2.545,0.0,0.0,0.0,0.0,0.0,0.0,0.0,0.0,0.0,0.0,0.0,0.0,2.7789,2.8602,0.0,0.0,0.0,0.0,0.0,0.0,2.7215,2.7977,2.8755,0.0,0.0,0.0,0.0,0.0,0.0,0.0,0.0,0.0,3.0957,3.2072,3.3592,3.4411,3.4942,3.5735,3.8054,4.0307,3.9413,4.0556,4.1977,4.1277,4.1093,4.112,4.1157,4.0006,3.8207,3.575,3.4484,3.3315,3.1533,3.1016,3.1115,3.1793,3.1284,3.128,3.2779,3.2485,3.3492,3.7614,3.734,3.768,4.0331,3.9835,3.9007,3.8238,3.757,3.6855,3.6055,3.5996,3.5996,3.5996,3.4414,3.3437,3.3301,3.1678,3.0758,3.0602,3.0602,3.0472,3.0217,2.9571,2.9109,2.8786,2.7246,2.6515,2.6447,2.562,2.5274,2.5303,2.5303,2.5303,2.5303,2.5303,2.5303,2.5293,2.5351,2.536,2.5253,0.0,0.0,0.0,0.0,0.0,0.0,2.752,2.7625,2.7625,2.7625,2.7385,2.7186,2.7186,2.6946,2.6632,2.6243,0.0,0.0,0.0,0.0,0.0,0.0,0.0,0.0,0.0,0.0,2.8373,2.9194,2.9516,0.0,0.0,0.0,0.0,0.0,0.0,2.7791,2.8535,2.8839,0.0,0.0,0.0,0.0,0.0,0.0,0.0,0.0,0.0,0.0,3.193,3.2827,3.3529,3.4141,3.4783,3.6502,3.8395,3.8978,4.0032,4.1261,4.2283,4.2543,4.2533,4.2533,4.0982,3.8912,3.6971,3.5127,3.351,3.2409,3.1934,3.1789,3.2128,3.1621,3.1241,3.1376,3.1569,3.2663,3.5434,3.5471,3.6198,3.8888,3.8819,3.8484,3.8234,3.8408,3.8008,3.6758,3.666,3.6465,3.6016,3.5332,3.4707,3.416,3.2969,3.207,3.1562,3.0957,3.0421,2.9922,2.9565,2.9104,2.8512,2.7856,2.7237,2.6698,2.6314,2.5842,2.537,2.537,2.5341,2.5303,2.5341,2.537,2.537,2.539,2.5423,2.5415,0.0,0.0,0.0,0.0,0.0,2.7036,2.755,2.7625,2.7625,2.7625,2.7625,2.7625,2.7625,2.7625,2.738,2.6916,2.6886,0.0,0.0,0.0,0.0,0.0,0.0,0.0,0.0,0.0,2.9154,3.0108,3.0328,3.0429,0.0,0.0,2.982,2.9279,0.0,0.0,0.0,0.0,0.0,0.0,0.0,0.0,0.0,0.0,0.0,0.0,0.0,0.0,0.0,0.0,0.0,3.374,3.4087,3.5138,3.6431,3.7688,3.9208,4.0739,4.2085,4.2951,4.3497,4.3497,4.1697,3.9467,3.7888,3.5586,3.3592,3.2791,3.2408,3.2199,3.2141,3.1908,3.1415,3.0544,3.1133,3.2216,3.3672,3.428,3.536,3.7442,3.7636,3.7751,3.8075,3.8699,3.8517,3.7167,3.7061,3.6738,3.5957,3.5918,3.5542,3.4726,3.3848,3.3125,3.2559,3.1855,3.1094,3.0293,3.0254,2.9741,2.8863,2.8625,2.8163,2.7553,2.6973,2.6388,2.5784,2.5543,2.5399,2.5339,2.5409,2.5428,2.5409,2.5447,2.5498,2.5529,0.0,0.0,0.0,0.0,0.0,0.0,2.7625,2.7625,2.7625,2.7625,2.7625,2.7625,2.7625,2.7625,2.7625,2.761,2.761,0.0,0.0,0.0,0.0,0.0,0.0,0.0,0.0,0.0,3.0108,3.0108,3.0835,3.119,3.1173,3.0446,3.0108,3.0074,0.0,0.0,0.0,0.0,0.0,0.0,0.0,0.0,0.0,0.0,0.0,0.0,0.0,0.0,0.0,0.0,0.0,0.0,0.0,3.4363,3.5109,3.5524,3.8236,4.0919,4.0142,4.1679,4.3497,4.3497,4.1697,3.9495,3.7877,3.5559,3.3431,3.2074,3.2027,3.2038,3.1416,3.1511,3.1415,3.0544,3.1133,3.2038,3.2979,3.448,3.5849,3.6798,3.679,3.7076,3.8009,3.8216,3.7947,3.7072,3.6994,3.6621,3.5742,3.5696,3.5379,3.4726,3.3848,3.3398,3.3398,3.3379,3.2969,3.2168,3.2168,3.1641,3.0644,2.9844,2.9435,2.9271,2.7556,2.6792,2.6718,2.5842,2.5462,2.5415,2.5474,2.5466,2.5428,2.5543,2.5601,2.5608,0.0,0.0,0.0,0.0,0.0,0.0,0.0,2.7625,2.7625,2.7625,2.7625,2.7625,2.7625,2.7625,2.7625,2.7625,2.7625,0.0,0.0,0.0,0.0,0.0,0.0,0.0,0.0,0.0,3.0446,3.0852,3.1089,3.119,3.119,3.0954,3.0852,3.0818,3.0074,3.0023,0.0,0.0,0.0,0.0,0.0,0.0,3.2628,0.0,0.0,0.0,0.0,0.0,0.0,0.0,0.0,0.0,0.0,0.0,0.0,3.5707,3.7301,3.8692,3.9023,3.9638,4.0197,4.0197,3.8594,3.6844,3.6306,3.4741,3.3276,3.2838,3.2893,3.276,3.1981,3.2218,3.2042,3.0621,3.1588,3.2627,3.2908,3.391,3.5374,3.7411,3.8632,3.9418,3.9704,3.9781,3.9227,3.7855,3.7742,3.7153,3.5776,3.57,3.5348,3.4594,3.4342,3.3926,3.334,3.3379,3.3262,3.3008,3.2461,3.2031,3.1699,3.084,3.0115,2.9461,2.8271,2.7425,2.6809,2.5936,2.5534,2.5477,2.553,2.5563,2.5543,2.5532,2.5566,2.5582,0.0,0.0,0.0,0.0,0.0,0.0,0.0,2.7625,2.7625,2.7625,2.7625,2.7625,2.7625,2.7625,2.7625,2.7625,2.7625,0.0,0.0,0.0,0.0,0.0,0.0,0.0,0.0,3.0208,3.0821,3.119,3.119,3.119,3.119,3.119,3.119,3.1173,3.0717,3.0768,0.0,0.0,0.0,0.0,0.0,0.0,3.2527,0.0,0.0,0.0,0.0,0.0,0.0,0.0,0.0,0.0,0.0,0.0,0.0,0.0,3.593,3.6821,3.7958,3.847,3.8681,3.872,3.7153,3.5643,3.582,3.4474,3.3237,3.3415,3.3652,3.361,3.2749,3.3026,3.2952,3.1578,3.2492,3.3395,3.3391,3.4693,3.6338,3.8248,3.9682,4.0376,4.0085,4.0315,3.9835,3.8193,3.8055,3.7338,3.5718,3.5622,3.5378,3.4883,3.4975,3.4749,3.4217,3.4256,3.4132,3.3848,3.334,3.2793,3.2187,3.1641,3.0918,3.0019,2.8789,2.793,0.0,2.6135,2.5605,2.5531,2.5579,2.5582,2.556,2.5527,2.5532,2.5544,0.0,0.0,0.0,0.0,0.0,0.0,0.0,2.7655,2.7625,2.7625,2.7625,2.7625,2.7625,2.7625,2.7625,2.7625,0.0,0.0,0.0,0.0,0.0,0.0,0.0,0.0,0.0,3.0518,3.1151,3.119,3.119,3.119,3.119,3.119,3.119,3.119,3.119,3.119,0.0,0.0,0.0,0.0,0.0,0.0,0.0,0.0,0.0,0.0,0.0,0.0,0.0,0.0,0.0,0.0,0.0,0.0,0.0,0.0,0.0,0.0,0.0,3.7833,3.8358,3.8359,3.6877,3.5546,3.5962,3.4588,0.0,3.3686,3.4246,3.4407,3.3563,3.3878,3.3961,3.3056,3.3635,3.4229,3.4357,3.6614,3.8532,3.9219,4.0065,4.0239,3.9304,3.9992,3.9835,3.8219,3.805,3.728,3.568,3.5532,3.5493,3.5493,3.5622,3.5697,3.5682,3.5702,3.5349,3.4684,3.4628,3.3788,3.2265,3.2206,3.1698,3.0781,2.9042,2.8281,2.8144,2.6406,2.5644,2.5582,2.5599,2.555,2.5503,2.55,2.5498,2.5486,0.0,0.0,0.0,0.0,0.0,0.0,0.0,0.0,0.0,0.0,2.7625,2.7625,2.7625,2.7625,2.7625,0.0,0.0,0.0,0.0,0.0,0.0,0.0,0.0,0.0,0.0,3.0123,3.074,3.119,3.119,3.119,3.119,3.119,3.119,3.119,3.119,3.119,0.0,0.0,0.0,0.0,0.0,0.0,0.0,0.0,0.0,0.0,3.119,3.1516,0.0,0.0,0.0,0.0,0.0,0.0,0.0,0.0,3.4412,3.4303,3.5302,0.0,3.4952,3.4935,3.4338,3.3782,0.0,3.3545,3.3241,3.3332,3.3844,3.4123,3.3505,3.4211,3.4455,3.3119,3.364,3.4641,3.5932,3.8877,4.0508,3.9432,4.0598,4.0658,3.8504,3.9646,4.0085,3.9069,3.8387,3.7541,3.6474,3.582,3.5493,3.5493,3.5545,3.5566,3.5623,3.5662,3.5601,3.5435,3.4821,3.3989,3.2942,3.2279,3.1495,3.0574,2.8891,2.8154,2.8021,2.6324,2.5577,2.5535,2.5584,2.556,2.5488,2.5432,2.5418,2.5389,0.0,0.0,0.0,0.0,0.0,0.0,0.0,0.0,0.0,0.0,0.0,0.0,0.0,0.0,0.0,0.0,0.0,0.0,0.0,0.0,0.0,0.0,0.0,2.8779,2.9406,2.9995,3.0617,3.119,3.119,3.119,3.119,3.119,3.119,3.119,3.119,3.1376,0.0,0.0,0.0,0.0,3.2222,0.0,0.0,0.0,0.0,0.0,3.119,3.147,0.0,3.1795,3.2107,3.2572,0.0,0.0,0.0,0.0,3.4127,3.388,3.432,3.4109,3.3807,3.3807,3.3505,3.3249,3.3437,3.3328,3.3258,3.3423,3.3844,3.4097,3.3819,3.4492,3.4845,3.403,3.473,3.594,3.7659,3.9493,4.06,4.0468,4.1239,4.1266,3.988,4.055,4.0604,3.9396,3.8854,3.8027,3.6762,3.6281,3.5892,3.5512,3.5493,3.5526,3.5565,3.5603,3.5622,3.5641,3.4812,3.3984,3.316,3.2296,3.1416,3.0527,2.9218,2.8439,2.8002,2.669,2.5892,2.5498,2.55,2.5486,2.5447,2.539,2.5292,2.5209,0.0,0.0,0.0,0.0,0.0,0.0,0.0,0.0,0.0,0.0,0.0,0.0,0.0,0.0,0.0,0.0,0.0,0.0,0.0,0.0,0.0,0.0,0.0,2.8779,2.9406,2.9995,3.0617,3.119,3.119,3.119,3.119,3.1112,3.1055,3.1072,3.1269,3.1698,0.0,3.2408,3.2459,3.251,3.3152,0.0,0.0,0.0,0.0,0.0,0.0,0.0,0.0,3.1696,3.1981,3.2385,3.2844,0.0,0.0,0.0,0.0,0.0,3.3807,3.388,3.3962,3.3825,3.3542,3.3368,3.3733,3.3542,3.3386,3.3733,3.3981,3.4173,3.4265,3.4689,3.5074,3.5139,3.6367,3.7916,3.9646,4.0125,4.0663,4.1694,4.2024,4.2033,4.1643,4.172,4.1219,3.9796,3.9431,3.8604,3.6988,3.6911,3.6469,3.5532,3.5622,3.5608,3.5493,3.5493,3.5545,3.5584,3.4699,3.3904,3.3115,3.2261,3.1395,3.0525,2.9656,2.8813,2.7991,2.7142,2.6276,2.5465,2.5415,2.537,2.534,2.5283,2.5141,2.4962,0.0,0.0,0.0,0.0,0.0,0.0,0.0,0.0,0.0,0.0,0.0,0.0,0.0,0.0,0.0,0.0,0.0,0.0,0.0,0.0,0.0,2.7655,2.8189,2.8779,2.9406,2.9995,3.0617,3.119,3.119,3.119,3.119,3.0658,3.0435,3.051,3.1614,3.2171,3.2324,3.2966,3.3237,3.3237,3.3355,0.0,0.0,0.0,0.0,0.0,0.0,0.0,0.0,3.128,3.132,3.1487,3.1879,0.0,0.0,0.0,0.0,0.0,3.3807,3.4301,3.4668,3.3981,3.3752,3.3733,3.3788,3.3752,3.3733,3.3788,3.3825,3.4017,3.4531,3.4715,3.4911,3.5354,3.8046,4.0669,4.2358,4.3868,4.4066,4.204,4.3047,4.3085,4.0912,4.1373,4.17,4.145,4.0104,3.8854,3.7853,3.7796,3.7084,3.5565,3.6161,3.6199,3.5526,3.5493,3.5526,3.5507,3.4622,3.3757,3.291,3.2102,3.1256,3.0379,2.9506,2.8659,2.7862,2.7055,2.616,2.534,2.538,2.5261,2.5065,2.5046,2.4956,2.4766,0.0,0.0,0.0,0.0,0.0,0.0,0.0,0.0,0.0,0.0,0.0,0.0,0.0,0.0,0.0,0.0,0.0,0.0,0.0,0.0,0.0,2.8686,2.9183,2.9484,2.9422,2.9995,3.0617,3.119,3.119,3.119,3.119,3.0559,3.0507,3.0929,3.1532,3.2446,3.3491,3.3846,3.3981,3.3981,0.0,0.0,0.0,0.0,0.0,0.0,0.0,0.0,0.0,0.0,3.119,3.128,3.1664,0.0,0.0,0.0,0.0,0.0,3.3807,3.4072,3.4385,3.4418,3.444,3.432,3.388,3.3807,3.3807,3.3807,3.3929,3.4237,3.4983,3.5378,3.6179,3.8003,3.9325,4.0675,4.2318,4.285,4.2922,4.2549,4.3186,4.3359,4.2624,4.2912,4.2777,4.1873,4.1085,3.9873,3.8084,3.8007,3.7238,3.5565,3.5872,3.5872,3.5493,3.5493,3.5257,3.4795,3.4391,3.3526,3.2237,3.1872,3.1218,3.034,2.9486,2.864,2.7832,2.6996,2.6051,2.5141,2.516,2.5049,2.4877,2.478,2.4697,2.4556,0.0,0.0,0.0,0.0,0.0,0.0,0.0,0.0,0.0,0.0,0.0,0.0,0.0,0.0,0.0,0.0,0.0,0.0,0.0,0.0,3.0295,2.9763,3.0322,3.024,2.9422,3.0287,3.0908,3.1268,3.1573,3.1618,3.1479,3.1032,3.11,3.1654,3.1836,3.2857,3.4506,3.4675,3.4759,3.4759,0.0,0.0,0.0,0.0,0.0,0.0,0.0,0.0,0.0,0.0,0.0,0.0,0.0,0.0,0.0,3.2773,3.3258,3.3652,3.3652,3.3862,3.4183,3.4604,3.4723,3.4649,3.4283,3.4147,3.4082,3.4183,3.4461,3.4884,3.5477,3.6033,3.7357,4.0272,4.0433,4.0818,4.2662,4.2334,4.2349,4.3553,4.3688,4.3936,4.4547,4.4412,4.3682,4.222,4.1931,4.0777,3.843,3.8296,3.7623,3.6142,3.5892,3.5795,3.5795,3.5589,3.5161,3.4507,3.4295,3.341,3.1968,3.1795,3.1121,3.0063,2.939,2.8525,2.7544,2.689,2.597,2.501,2.501,2.4904,2.47,2.4512,2.4392,2.4247,0.0,0.0,0.0,0.0,0.0,0.0,0.0,0.0,0.0,0.0,0.0,0.0,0.0,0.0,0.0,0.0,0.0,0.0,0.0,0.0,3.0492,3.053,3.1116,3.0782,2.9438,3.1207,3.1926,3.1368,3.2614,3.2966,3.2392,3.2302,3.229,3.2446,3.3077,3.376,3.4539,3.5233,3.5537,3.5537,3.5537,0.0,0.0,0.0,0.0,0.0,0.0,0.0,0.0,0.0,0.0,0.0,0.0,0.0,3.1878,3.1869,3.2529,3.3258,3.3258,3.4054,3.476,3.4064,3.3899,3.4154,3.5164,3.5143,3.4994,3.5296,3.5795,3.6075,3.5905,3.6319,3.759,4.0433,4.1464,4.2795,4.5259,4.558,4.549,4.5432,4.5413,4.5432,4.549,4.4759,4.3932,4.3066,4.2258,4.1046,3.9296,3.92,3.8777,3.7853,3.7046,3.6622,3.6622,3.5872,3.5468,3.5411,3.4584,3.3699,3.2795,3.2045,3.0775,2.9179,2.9121,2.8179,2.6697,2.664,2.597,2.501,2.501,2.4804,2.4495,2.4303,2.4018,2.3714,0.0,0.0,0.0,0.0,0.0,0.0,0.0,0.0,0.0,0.0,0.0,0.0,0.0,0.0,0.0,0.0,0.0,0.0,0.0,3.115,3.1308,3.1741,3.201,3.1887,3.1332,3.2419,3.2463,3.1391,3.2748,3.2867,3.1866,3.1866,3.1871,3.1976,3.2627,3.3515,3.4605,3.529,3.5622,3.5622,3.5622,3.5622,0.0,0.0,0.0,0.0,0.0,0.0,0.0,0.0,3.119,3.119,3.119,3.1489,3.1803,3.1794,3.2458,3.3204,3.3221,3.4072,3.4934,3.4631,3.4549,3.4668,3.5081,3.5082,3.5043,3.5181,3.591,3.6627,3.6859,3.8162,3.9552,4.0713,4.2104,4.3533,4.4951,4.5566,4.5834,4.5605,4.5586,4.5586,4.5586,4.5297,4.4547,4.3201,4.2797,4.1643,3.9411,3.9296,3.8642,3.7238,3.6715,3.6211,3.5698,3.524,3.4999,3.4999,3.483,3.3761,3.1905,3.1981,3.0811,2.8713,2.8146,2.7271,2.6186,2.5691,2.5167,2.4678,2.4538,2.4425,2.4284,2.3998,2.3816,2.361,0.0,0.0,0.0,0.0,0.0,0.0,0.0,0.0,0.0,0.0,0.0,0.0,0.0,0.0,0.0,0.0,0.0,0.0,3.1482,3.1482,3.1891,3.2809,3.2844,3.2854,3.2842,3.3688,3.3453,3.2067,3.3245,3.3309,3.2466,3.2044,3.1962,3.2243,3.2727,3.3534,3.4624,3.5316,3.5622,3.5622,3.5622,3.5622,0.0,0.0,0.0,0.0,0.0,0.0,0.0,0.0,3.1382,3.119,3.119,3.1382,3.1613,3.1613,3.2264,3.2986,3.2977,3.3788,3.4631,3.4631,3.4806,3.5156,3.568,3.5575,3.5504,3.5854,3.6414,3.7038,3.7652,3.9138,4.0487,4.1181,4.2781,4.4214,4.4968,4.5552,4.5834,4.5605,4.5586,4.5586,4.5586,4.5586,4.5009,4.3585,4.3239,4.222,4.02,3.9585,3.8823,3.7805,3.6812,3.6118,3.5723,3.5058,3.4694,3.4694,3.451,3.3447,3.1597,3.1994,3.0844,2.8428,2.7563,2.6733,2.594,2.5144,2.4685,2.4478,2.4266,2.4151,2.4016,2.3795,2.3566,2.3323,0.0,0.0,0.0,0.0,0.0,0.0,0.0,0.0,0.0,0.0,0.0,0.0,0.0,0.0,0.0,0.0,0.0,0.0,3.1482,3.1482,3.2145,3.3531,3.3582,3.3614,3.3631,3.493,3.4947,3.3614,3.4277,3.4576,3.4576,3.3235,3.2933,3.3582,3.3582,3.3987,3.464,3.5316,3.5577,3.5577,3.5622,3.5622,3.5622,0.0,0.0,0.0,0.0,0.0,0.0,0.0,3.1805,3.119,3.119,3.119,3.119,3.119,3.1805,3.2475,3.2491,3.314,3.3807,3.3807,3.4422,3.5475,3.7138,3.6881,3.66,3.768,3.7482,3.7374,3.8165,3.8861,3.9942,4.1788,4.3554,4.4974,4.5755,4.5891,4.5815,4.5605,4.5586,4.5586,4.5586,4.5586,4.524,4.4374,4.3547,4.272,4.1854,4.0219,3.9547,4.0043,3.7622,3.6559,3.7074,3.5486,3.4694,3.4674,3.3534,3.2732,3.2204,3.2185,3.079,2.8341,2.7547,2.6736,2.5929,2.5129,2.467,2.4478,2.4266,2.3996,2.3692,2.3692,2.3259,2.2695,0.0,0.0,0.0,0.0,0.0,0.0,0.0,0.0,0.0,0.0,0.0,0.0,0.0,0.0,0.0,0.0,0.0,0.0,3.1482,3.1482,3.2145,3.3531,3.3582,3.4039,3.4997,3.5414,3.5414,3.498,3.5199,3.48,3.3887,3.3495,3.2879,3.216,3.268,3.2986,3.3287,3.4382,3.4894,3.4941,3.5407,3.5622,3.5622,0.0,0.0,0.0,0.0,0.0,0.0,0.0,0.0,0.0,3.119,3.119,3.119,3.119,3.1596,3.209,3.2401,3.3331,3.4293,3.4568,3.5708,3.6897,3.7397,3.6879,3.6549,3.7429,3.7846,3.807,3.8253,3.9814,4.1074,4.1108,4.3041,4.4424,4.4056,4.5057,4.5547,4.478,4.524,4.5586,4.5586,4.5586,4.5257,4.4372,4.3547,4.2736,4.1848,4.0754,3.9669,3.8665,3.7509,3.6441,3.5411,3.4526,3.408,3.4062,3.3167,3.2437,3.189,3.1136,2.9765,2.7931,2.7135,2.632,2.5523,2.4708,2.4339,2.4284,2.4228,2.3996,2.3671,2.3455,2.3069,2.2643,0.0,0.0,0.0,0.0,0.0,0.0,0.0,0.0,0.0,0.0,0.0,0.0,0.0,0.0,0.0,0.0,0.0,0.0,0.0,3.1482,3.2145,3.3531,3.3582,3.4252,3.5577,3.5622,3.5622,3.5622,3.5316,3.48,3.3987,3.3443,3.2718,3.1966,3.2382,3.2586,3.2695,3.3735,3.4333,3.464,3.5052,3.5362,3.5622,0.0,0.0,0.0,0.0,0.0,0.0,0.0,0.0,0.0,3.1449,3.1436,3.1455,3.1455,3.1613,3.1901,3.2378,3.3441,3.4504,3.488,3.6261,3.7516,3.7496,3.7356,3.7386,3.7881,3.8182,3.8452,3.8747,4.0172,4.1378,4.1662,4.328,4.432,4.3784,4.4913,4.543,4.4416,4.5068,4.5586,4.5586,4.5297,4.4874,4.4335,4.3225,4.2357,4.1832,4.0966,3.9791,3.8207,3.7546,3.6421,3.4834,3.4146,3.3807,3.3788,3.2981,3.2256,3.1621,3.0636,2.9494,2.8209,2.709,2.5889,2.4691,2.4196,2.3917,2.3795,2.3795,2.3588,2.3277,2.3069,2.2678,2.2214,0.0,0.0,0.0,0.0,0.0,0.0,0.0,0.0,0.0,0.0,0.0,0.0,0.0,0.0,0.0,0.0,0.0,0.0,0.0,0.0,3.2145,3.3531,3.3735,3.4382,3.5678,3.5656,3.5622,3.5622,3.4988,3.4688,3.4576,3.3339,3.278,3.2788,3.2672,3.2633,3.2734,3.3266,3.3836,3.4431,3.4479,3.4894,3.5515,3.5515,0.0,0.0,0.0,0.0,0.0,0.0,0.0,0.0,3.1878,3.1829,3.1815,3.1788,3.1788,3.1856,3.2457,3.343,3.4494,3.5091,3.6417,3.764,3.7699,3.8224,3.8689,3.8597,3.8498,3.867,3.946,4.0163,4.1157,4.2802,4.3801,4.4339,4.4263,4.5004,4.5194,4.4184,4.4855,4.5393,4.547,4.4703,4.4205,4.4282,4.2748,4.179,4.175,4.0938,3.983,3.8436,3.7659,3.6536,3.5046,3.4284,3.3862,3.3788,3.2981,3.2173,3.1366,3.0577,2.9677,2.87,2.7215,2.5473,2.3692,2.3671,2.3459,2.3189,2.3189,2.2996,2.2695,2.2695,2.2241,2.1582,0.0,0.0,0.0,0.0,0.0,0.0,0.0,0.0,0.0,0.0,0.0,0.0,0.0,0.0,0.0,0.0,0.0,0.0,0.0,0.0,3.2145,3.3531,3.4609,3.5602,3.6518,3.5926,3.5622,3.5622,3.547,3.5098,3.4576,3.4284,3.4194,3.4202,3.3091,3.2936,3.3441,3.3022,3.2895,3.3093,3.3582,3.4235,3.4847,3.4847,3.5144,0.0,0.0,0.0,0.0,0.0,0.0,0.0,3.2441,3.2109,3.1787,3.1803,3.1596,3.1647,3.3036,3.3624,3.4357,3.6446,3.7704,3.8609,3.9228,3.9032,3.8536,3.7879,3.8593,3.9379,3.9583,4.065,4.1647,4.204,4.2838,4.3152,4.2482,4.3129,4.3352,4.2444,4.3121,4.3893,4.4526,4.3835,4.3624,4.4256,4.2742,4.1701,4.1423,4.0634,3.9623,3.8373,3.7952,3.6988,3.5423,3.4971,3.4431,3.3788,3.2981,3.2173,3.1366,3.0577,2.9072,2.7086,2.6468,2.5262,2.3671,2.3414,2.3277,2.3189,2.3189,2.2996,2.2695,2.2695,2.2241,2.1552,0.0,0.0,0.0,0.0,0.0,0.0,0.0,0.0,0.0,0.0,0.0,0.0,0.0,0.0,0.0,0.0,0.0,0.0,0.0,0.0,3.2145,3.3531,3.4938,3.5823,3.6231,3.6197,3.5994,3.5622,3.5622,3.5407,3.5052,3.4736,3.4824,3.5091,3.3354,3.3013,3.3643,3.292,3.2586,3.2641,3.3339,3.3786,3.4137,3.4479,3.4847,3.5094,3.5059,0.0,0.0,0.0,0.0,0.0,0.0,0.0,3.2983,3.2581,3.2007,3.1856,3.3549,3.4143,3.4892,3.7442,3.8401,3.8799,3.9228,3.8995,3.8579,3.8162,3.8891,3.9597,3.9588,4.0444,4.1309,4.1728,4.2178,4.2319,4.186,4.2563,4.2771,4.1889,4.2563,4.3256,4.3695,4.297,4.2577,4.2833,4.1705,4.0836,4.0489,4.0075,3.9316,3.8139,3.7598,3.6656,3.5269,3.4696,3.4211,3.3788,3.2981,3.199,3.0797,2.9783,2.8433,2.6845,2.6129,2.5045,2.3755,2.3179,2.289,2.2773,2.2773,2.2643,2.2483,2.2258,2.1816,2.1244,0.0,0.0,0.0,0.0,0.0,0.0,0.0,0.0,0.0,0.0,0.0,0.0,0.0,0.0,0.0,0.0,0.0,0.0,0.0,0.0,0.0,3.3722,3.4871,3.5575,3.578,3.6315,3.6265,3.5622,3.5757,3.5825,3.5825,3.5252,3.5446,3.6191,3.4233,3.3646,3.4187,3.3474,3.3084,3.3029,3.3709,3.3973,3.4014,3.4579,3.4787,3.4847,3.5407,3.5216,3.4658,3.4652,0.0,0.0,0.0,0.0,3.4181,3.3762,3.2806,3.2307,3.4125,3.496,3.5872,3.8151,3.8707,3.8707,3.8707,3.8707,3.8707,3.8707,3.9191,3.9547,3.9406,3.9877,4.0485,4.1054,4.1285,4.1366,4.1366,4.2094,4.2383,4.1662,4.2217,4.2714,4.2868,4.2055,4.1456,4.1313,4.0495,3.9852,3.9514,3.938,3.8842,3.7846,3.7047,3.6118,3.499,3.4339,3.3935,3.3788,3.2852,3.1598,3.0058,2.8876,2.7893,2.7132,2.5966,2.4909,2.4019,2.3014,2.2586,2.2496,2.2361,2.2237,2.2135,2.1718,2.1306,2.0829,0.0,0.0,0.0,0.0,0.0,0.0,0.0,0.0,0.0,0.0,3.1482,0.0,0.0,0.0,0.0,0.0,0.0,0.0,3.1482,0.0,0.0,3.4478,3.4659,3.5357,3.6603,3.6062,3.5723,3.5622,3.6299,3.662,3.662,3.6574,3.7253,3.8486,3.6952,3.6282,3.6313,3.5653,3.5,3.4468,3.5203,3.5461,3.5432,3.5531,3.5507,3.547,3.5577,3.5554,3.5413,3.5187,3.5123,0.0,0.0,0.0,3.3916,3.498,3.3912,3.2834,3.4888,3.6291,3.74,3.8438,3.8707,3.8707,3.8707,3.8707,3.8707,3.8707,3.9191,3.937,3.8605,3.9,3.9258,3.8604,3.9138,3.9627,3.9627,4.0335,4.0793,4.0681,4.0793,4.1123,4.1893,4.0978,4.0591,4.125,4.0287,3.9525,3.9183,3.8498,3.7949,3.7577,3.6775,3.5919,3.5009,3.488,3.4504,3.377,3.2265,3.0885,2.9636,2.8487,2.7701,2.7108,2.5746,2.5049,2.4717,2.3033,2.2694,2.319,2.2564,2.2032,2.1688,2.1612,2.1102,2.0382,0.0,0.0,0.0,0.0,0.0,0.0,0.0,0.0,0.0,0.0,0.0,3.164,0.0,0.0,0.0,3.2007,3.2064,3.1951,3.1524,3.1796,3.245,3.3496,3.3863,3.4538,3.5552,3.5635,3.5626,3.5622,3.64,3.6992,3.7432,3.7821,3.8362,3.8954,3.7453,3.7032,3.7411,3.6656,3.5983,3.5353,3.6084,3.5896,3.5175,3.558,3.5429,3.5098,3.547,3.5622,3.5571,3.5479,3.5641,3.5815,3.5443,0.0,0.0,0.0,3.393,3.3286,3.5115,3.6531,3.7686,3.8493,3.8707,3.8707,3.8707,3.8707,3.8707,3.8707,3.9032,3.9101,3.8416,3.8854,3.8994,3.8155,3.8729,3.9123,3.8642,3.9681,4.0315,3.9873,4.0219,4.0575,4.0803,4.0387,4.0089,4.007,3.9607,3.8998,3.8254,3.7856,3.7423,3.6864,3.6009,3.5404,3.499,3.4559,3.3616,3.2165,3.1473,3.0252,2.8629,2.7895,2.7455,2.7166,2.5478,2.497,2.5197,2.3129,2.2733,2.3279,2.2316,2.1794,2.1552,2.1054,2.0634,2.023,0.0,0.0,0.0,0.0,0.0,0.0,0.0,0.0,0.0,0.0,0.0,0.0,0.0,0.0,0.0,0.0,3.212,3.2064,3.1539,3.1482,3.1853,3.2586,3.3122,3.381,3.4592,3.5119,3.549,3.5622,3.64,3.7161,3.7922,3.865,3.9089,3.9242,3.8154,3.7851,3.8199,3.7784,3.7246,3.6649,3.6934,3.6437,3.5522,3.5613,3.5328,3.4941,3.5407,3.5622,3.5622,3.5622,3.5854,3.6086,3.5434,3.5179,0.0,0.0,0.0,3.3935,3.511,3.6156,3.7131,3.8151,3.8401,3.8456,3.8652,3.8707,3.8707,3.8707,3.8921,3.8869,3.804,3.8396,3.8593,3.78,3.8166,3.8312,3.7659,3.8783,3.955,3.9237,3.9473,3.9712,3.9776,3.9448,3.9022,3.8536,3.8422,3.8035,3.7232,3.6964,3.6597,3.5991,3.5147,3.4706,3.4706,3.3899,3.262,3.0884,3.0667,2.9572,2.7754,2.7457,2.7224,2.7078,2.5479,2.5186,2.571,2.3494,2.2946,2.3399,2.2112,2.146,2.1197,2.0534,2.0261,2.0019,0.0,0.0,0.0,0.0,0.0,0.0,0.0,0.0,0.0,0.0,0.0,0.0,3.2492,3.1951,3.1796,3.2492,3.1951,3.1524,3.1482,3.1482,3.1853,3.2586,3.2633,0.0,3.4576,3.4625,3.4975,3.5622,3.64,3.7161,3.7922,3.865,3.936,4.002,3.9969,3.9547,3.8973,3.9631,3.9496,3.8771,3.8128,3.7776,3.7573,3.6139,3.5594,3.556,3.5577,3.5622,3.5622,3.5622,3.5622,3.5603,3.5352,3.4792,3.4359,0.0,0.0,0.0,3.5009,3.5078,3.5532,3.7168,3.7546,3.776,3.853,3.8707,3.8707,3.8707,3.8921,3.8626,3.7071,3.7243,3.7415,3.6858,3.6583,3.6443,3.6381,3.6958,3.7772,3.8803,3.8003,3.7791,3.8861,3.7709,3.6858,3.6833,3.6592,3.6423,3.6358,3.5587,3.51,3.5064,3.4284,3.3862,3.3862,3.3073,3.2072,3.0884,3.0053,2.8841,2.7317,2.7303,2.7083,2.6691,2.5879,2.5964,2.6471,2.4255,2.3553,2.3703,2.2188,2.1102,2.0366,2.0314,2.0054,1.9639,0.0,0.0,0.0,0.0,0.0,0.0,0.0,0.0,0.0,0.0,0.0,0.0,0.0,3.2064,3.212,3.191,3.164,3.1482,3.1482,3.1482,3.164,3.191,3.2319,3.2757,3.3287,3.4635,3.5165,3.4941,3.667,3.7652,3.7922,3.865,3.9377,4.007,4.007,3.9935,3.9698,3.9969,3.9935,3.9631,3.8903,3.8328,3.7787,3.6755,3.6045,3.5622,3.5622,3.5622,3.5622,3.5622,3.5622,3.5487,3.4968,3.4449,3.4071,3.4059,3.3978,3.4002,3.4789,3.4991,3.5284,3.6454,3.6721,3.6936,3.7741,3.7937,3.8065,3.8585,3.8781,3.8719,3.8295,3.7821,3.7037,3.5628,3.5913,3.6063,3.5382,3.6383,3.7139,3.6994,3.7122,3.7281,3.7476,3.7018,3.6619,3.6454,3.6352,3.6064,3.5514,3.5155,3.4752,3.4266,3.3954,3.355,3.3036,3.2019,3.093,2.9737,2.9172,2.8202,2.6906,2.6906,2.6858,2.6674,2.6099,2.5899,2.583,2.3775,2.3021,2.2947,2.1375,2.0567,2.028,2.0,1.9609,1.9132,0.0,0.0,0.0,0.0,0.0,0.0,0.0,0.0,0.0,3.1482,0.0,0.0,0.0,0.0,3.2007,3.1524,3.1482,3.1482,3.1482,3.1482,3.1482,3.1482,3.2153,3.2624,3.2927,3.4501,3.5308,3.53,3.6827,3.7787,3.8278,3.8768,3.9377,4.007,4.007,4.007,4.007,4.007,4.007,3.9969,3.8751,3.8261,3.8125,3.6874,3.6383,3.6349,3.6096,3.6011,3.596,3.5707,3.5453,3.5165,3.4641,3.4172,3.3616,3.3135,3.3091,3.3386,3.4357,3.4586,3.487,3.5993,3.6074,3.615,3.7268,3.7491,3.765,3.8187,3.8511,3.867,3.8573,3.7817,3.6844,3.5681,3.5564,3.5341,3.4647,3.5405,3.6006,3.5794,3.5953,3.6119,3.6279,3.595,3.5639,3.5468,3.5202,3.4926,3.4605,3.41,3.3678,3.3421,3.3146,3.28,3.2437,3.1102,2.9958,2.8881,2.8359,2.7614,2.6691,2.6691,2.6624,2.6436,2.6156,2.5776,2.5262,2.3556,2.2606,2.215,2.0801,2.0212,2.0054,1.9609,1.9207,1.8817,0.0,0.0,0.0,0.0,0.0,0.0,0.0,0.0,3.1482,3.1482,0.0,0.0,0.0,0.0,0.0,3.1482,3.1482,3.1482,3.1482,3.1482,3.1482,3.1482,3.2183,3.2836,3.3434,3.4257,3.5356,3.6648,3.6796,3.7584,3.8988,3.8988,3.9377,4.007,4.007,4.007,4.007,4.007,4.007,3.9884,3.7719,3.7702,3.8751,3.6535,3.662,3.7821,3.7077,3.6806,3.6688,3.591,3.5165,3.4556,3.4506,3.3813,3.2899,3.2633,3.2836,3.3268,0.0,0.0,0.0,3.5826,3.5588,3.5403,3.7052,3.7411,3.7436,3.7454,3.8096,3.8377,3.7599,3.7013,3.6752,3.7009,3.5454,3.42,3.4176,3.3961,3.4197,3.5317,3.4467,3.4242,3.5336,3.4448,3.3807,3.3807,3.3054,3.2944,3.3715,3.2247,3.1751,3.2559,3.177,3.1561,3.2014,3.0378,2.918,2.8476,2.765,2.7083,2.6691,2.6691,2.6436,2.6013,2.5944,2.5532,2.4842,2.3603,2.2457,2.1377,2.0593,2.0019,1.9603,1.9095,1.8893,1.8688,0.0,0.0,0.0,0.0,0.0,0.0,3.1482,3.1482,3.1482,0.0,0.0,0.0,3.1482,3.1482,3.1482,3.1482,3.1482,3.1482,3.1482,3.1482,3.1482,3.1482,3.2617,3.3111,3.2777,3.5483,3.6581,3.5964,3.7603,3.8582,3.8988,3.8988,3.9377,4.007,4.007,4.007,4.007,4.007,4.007,3.9969,3.8836,3.8633,3.887,3.7719,3.7533,3.7872,3.7669,3.7601,3.7483,3.6721,3.6315,3.596,3.4844,3.3583,3.2588,3.3145,3.3002,3.2857,3.3616,0.0,0.0,0.0,0.0,0.0,3.5505,3.5883,3.6158,3.6545,3.6817,3.6922,3.6683,3.5984,3.5494,3.5592,3.481,3.4123,3.3935,3.3842,3.3934,3.4242,3.3997,3.3934,3.4242,3.3997,3.3807,3.3807,3.3054,3.2706,3.2926,3.1719,3.1263,3.1733,3.0662,3.016,3.0288,2.9007,2.8111,2.7646,2.7122,2.6808,2.6691,2.6367,2.612,2.5944,2.4676,2.3717,2.3106,2.2734,2.1806,2.0593,2.0076,1.9573,1.9095,1.8968,1.8419,1.7706,0.0,0.0,0.0,0.0,0.0,3.1482,3.1482,3.1482,3.1482,0.0,0.0,0.0,3.1482,3.1482,3.1586,3.1913,3.1631,3.1644,3.1928,3.1689,3.1482,3.1482,3.2796,3.332,3.2931,3.5512,3.6759,3.659,3.7873,3.8807,3.9445,3.9445,3.9681,4.007,4.007,4.007,4.007,4.007,4.007,4.002,3.9292,3.9174,3.9377,3.8633,3.8548,3.8768,3.8464,3.8362,3.8244,3.7499,3.7043,3.6468,3.4624,3.366,3.3236,3.3328,3.3154,3.3054,3.3459,3.3652,3.388,3.4202,0.0,0.0,3.5043,3.5442,3.5715,3.592,3.6232,3.6424,3.6315,3.5597,3.499,3.499,3.4463,3.4097,3.4293,3.4009,3.3917,3.4266,3.4009,3.3807,3.3807,3.3807,3.3807,3.3807,3.3054,3.232,3.1641,3.1147,3.0831,3.0651,2.9521,2.8979,2.9158,2.8135,2.7439,2.7051,2.6502,2.6286,2.6401,2.5789,2.5268,2.4869,2.3849,2.2763,2.169,2.198,2.1166,1.9702,1.9708,1.9252,1.8563,1.8595,1.8045,1.7271,0.0,0.0,3.1524,3.1582,3.1524,3.1524,3.1582,3.1524,3.1482,0.0,3.1541,3.1586,3.1586,3.1586,3.1898,3.2557,3.2018,3.1928,3.2587,3.2078,3.1691,3.1691,3.2946,3.3604,3.3604,3.4927,3.6326,3.7822,3.7905,3.87,4.007,4.007,4.007,4.007,3.9986,4.0003,4.007,3.9986,4.0003,4.002,3.9377,3.9495,4.0003,3.936,3.9512,3.9986,3.9343,3.9106,3.8988,3.8176,3.7398,3.6417,3.432,3.4032,3.4355,3.3499,3.3422,3.3631,3.3385,3.3578,3.4027,3.4715,3.4559,0.0,3.5184,3.5576,3.5727,3.5428,3.5926,3.6335,3.6057,3.533,3.478,3.4844,3.4284,3.4045,3.4752,3.4266,3.4082,3.477,3.4247,3.3807,3.3807,3.3807,3.3807,3.3807,3.3002,3.1821,3.0143,3.0414,3.025,2.9458,2.8375,2.8029,2.8372,2.7664,2.7083,2.6691,2.5966,2.5782,2.598,2.5045,2.4232,2.3514,2.3297,2.2347,2.0976,2.1485,2.0641,1.9026,1.9545,1.9089,1.8192,1.8182,1.7876,1.7342,0.0,3.1482,3.1697,3.2272,3.1894,3.1697,3.2272,3.191,3.1482,3.1482,3.2003,3.2317,3.2317,3.2317,3.2587,3.3245,3.2706,3.2602,3.326,3.3185,3.311,3.311,3.3858,3.4277,3.4277,3.5661,3.6839,3.7822,3.8378,3.9182,4.007,4.007,4.007,4.0054,3.9462,3.9529,4.0037,3.9462,3.9546,4.007,3.9918,3.9952,4.0054,3.9918,3.9952,4.0054,3.9918,3.9868,3.9665,3.8345,3.7398,3.6586,3.5537,3.4888,3.4558,3.4709,3.4415,3.4008,3.4073,3.4127,3.4164,3.4064,3.4309,0.0,3.4476,3.4864,3.5097,3.4562,3.4573,3.4614,3.4328,3.3632,3.3283,3.3935,3.3899,3.3844,3.4009,3.3899,3.3862,3.4027,3.3899,3.3807,3.3807,3.3807,3.3807,3.3807,3.2748,3.1279,2.9351,2.9009,2.8684,2.8258,2.7689,2.7448,2.7511,2.7373,2.7083,2.6691,2.6147,2.5936,2.5944,2.4372,2.3858,2.4126,2.2656,2.2144,2.2263,2.1859,2.0863,1.9553,1.9783,1.9412,1.8686,1.8329,1.815,1.7941,3.1541,3.1735,3.2131,3.2539,3.2007,3.1845,3.2909,3.2437,3.2138,3.2467,3.2796,3.3006,3.3006,3.3006,3.326,3.3918,3.338,3.3275,3.3933,3.3679,3.3499,3.3499,3.4128,3.4472,3.4472,3.5198,3.6107,3.7203,3.7255,3.804,3.9489,3.9531,3.9529,3.9529,3.9157,3.9191,3.9512,3.9157,3.9411,4.007,4.007,4.007,4.007,4.007,4.007,4.007,4.007,4.007,3.9851,3.8396,3.7652,3.7144,3.5977,3.5334,3.5013,3.4869,3.4754,3.4513,3.3839,3.38,3.387,3.3588,3.382,0.0,0.0,3.4792,3.4984,3.4542,3.4435,3.4317,3.3884,3.3136,3.2849,3.3666,3.3805,3.3807,3.3807,3.4156,3.4311,3.4124,3.3749,3.3419,3.3148,3.3148,3.3148,3.3148,3.2576,3.1627,3.0203,2.9769,2.9134,2.8189,2.7747,2.7381,2.6987,2.6987,2.6906,2.6691,2.5809,2.5491,2.5545,2.4044,2.324,2.3016,2.243,2.1994,2.1724,2.2054,2.1401,2.0231,2.03,1.9792,1.8983,1.8702,1.8427,1.8129,3.1601,3.1958,3.243,3.2734,3.2216,3.2163,3.3494,3.3138,3.2915,3.341,3.3499,3.3546,3.3653,3.3593,3.3834,3.4633,3.4091,3.397,3.467,3.4162,3.3863,3.3679,3.4322,3.4607,3.4472,3.4607,3.5334,3.6615,3.6085,3.6892,3.8891,3.8956,3.9075,3.9191,3.8903,3.8937,3.9191,3.8903,3.9292,4.007,4.007,4.007,4.0054,3.9918,3.9952,4.007,4.007,4.007,3.9884,3.8565,3.8024,3.7669,3.6282,3.574,3.5493,3.4903,3.4984,3.4984,3.3765,3.3577,3.3632,3.3327,3.3451,3.3753,0.0,0.0,0.0,3.4666,3.4656,3.4521,3.391,3.3007,3.2643,3.3437,3.3556,3.3568,3.3568,3.4385,3.4887,3.4546,3.3791,3.3208,3.2894,3.2639,3.2451,3.2384,3.2384,3.1982,3.1109,3.0751,2.9868,2.8335,2.7981,2.7452,2.6708,2.6691,2.6691,2.6691,2.5456,2.4993,2.515,2.3787,2.2778,2.2084,2.2503,2.2143,2.135,2.2413,2.217,2.1055,2.0882,2.0175,1.9219,1.9075,1.8807,1.8417,3.1601,3.1541,3.2027,3.3251,3.2933,3.2913,3.426,3.3881,3.3426,3.3517,3.3499,3.3713,3.4352,3.3871,3.4025,3.5276,3.4814,3.4722,3.5329,3.5323,3.4988,3.4415,3.5026,3.51,3.4487,3.507,3.5819,3.6615,3.6506,3.7324,3.8908,3.8879,3.9304,3.9901,3.8616,3.8751,3.9868,3.8582,3.8819,4.007,4.007,4.007,4.0003,3.936,3.9512,4.007,4.007,4.007,3.9952,3.914,3.8447,3.777,3.6924,3.618,3.556,3.5493,3.5504,3.546,3.5036,3.4528,3.3952,3.3634,3.3575,3.3621,3.3721,0.0,3.4939,3.4376,0.0,3.4517,3.3913,0.0,0.0,3.2619,3.2753,3.2742,3.2742,3.4037,3.499,3.4934,3.4229,3.387,3.4127,3.3155,3.235,3.1915,3.1897,3.1405,3.0313,3.0187,2.9454,2.7928,2.7807,2.7452,2.6708,2.6691,2.6691,2.6691,2.5664,2.5179,2.515,2.3498,2.3005,2.3355,2.2877,2.2906,2.3281,2.343,2.3083,2.239,2.1307,2.04,1.9669,1.9192,1.9284,1.9472,3.1584,3.1839,3.2307,3.2904,3.2422,3.243,3.3772,3.4014,3.4227,3.464,3.4666,3.4936,3.5643,3.5064,3.508,3.6029,3.5549,3.5254,3.5479,3.5492,3.5568,3.5706,3.5567,3.5597,3.5737,3.5175,3.5262,3.5943,3.5599,3.6342,3.8246,3.8264,3.87,3.9411,3.8362,3.8481,3.9377,3.8345,3.8751,4.007,4.007,4.007,4.0054,3.9732,3.9817,4.007,4.007,4.007,3.9901,3.8751,3.8159,3.7702,3.6485,3.5876,3.5622,3.5622,3.5318,3.4939,3.4815,3.4267,3.3636,3.3326,3.3247,3.3319,3.3561,3.392,3.4229,3.4207,0.0,0.0,0.0,0.0,0.0,0.0,3.3283,3.3283,3.3319,3.4275,3.4751,3.4058,3.3666,3.3292,3.2926,3.2809,3.2437,3.1504,3.1842,3.1696,3.0784,3.0734,3.026,2.9178,2.8721,2.8129,2.7351,2.6911,2.6691,2.6691,2.5672,2.5221,2.5166,2.384,2.3161,2.3071,2.3176,2.3161,2.3086,2.3098,2.2725,2.2025,2.1179,2.0668,2.0293,1.9674,1.961,1.9648,3.1482,3.1913,3.2312,3.257,3.2176,3.2224,3.3589,3.4182,3.4838,3.5691,3.5616,3.5905,3.6861,3.6302,3.615,3.6904,3.6232,3.5742,3.5528,3.5508,3.555,3.5763,3.575,3.5887,3.5997,3.5431,3.522,3.5504,3.5232,3.5994,3.7806,3.8003,3.855,3.9259,3.8531,3.8616,3.9242,3.8514,3.8937,4.007,4.007,4.007,4.007,4.007,3.9952,3.98,4.0003,3.9952,3.9614,3.8565,3.7939,3.7398,3.6282,3.5791,3.5622,3.5622,3.5233,3.4759,3.4539,3.3964,3.3287,3.2904,3.2734,3.2773,3.3196,3.3451,3.3684,3.4006,3.4162,0.0,0.0,0.0,3.279,3.3374,0.0,3.3487,3.3466,3.4174,3.443,3.3771,3.3599,3.3104,3.2074,3.2418,3.2173,3.0992,3.1562,3.1664,3.0937,3.1089,3.0869,3.0125,2.9364,2.8602,2.7789,2.7063,2.6624,2.6521,2.5635,2.5144,2.4934,2.4032,2.3355,2.2951,2.34,2.334,2.2924,2.279,2.23,2.1663,2.1028,2.0696,2.0446,2.0003,1.9798,1.9622,3.1482,3.1497,3.1769,3.2492,3.2602,3.2965,3.428,3.4471,3.4997,3.6399,3.5981,3.6137,3.7605,3.7176,3.7044,3.7715,3.7107,3.6341,3.5636,3.5519,3.4917,3.3645,3.5486,3.5935,3.4605,3.5858,3.6197,3.5504,3.6182,3.6993,3.7822,3.8564,3.9282,4.0003,3.9276,3.936,4.0003,3.9276,3.9394,4.007,4.007,4.007,4.007,4.007,3.9648,3.9123,3.9817,3.9631,3.9022,3.8971,3.8007,3.6806,3.6755,3.6231,3.5622,3.5622,3.5605,3.5419,3.4692,3.3964,3.322,3.25,3.2072,3.195,3.2417,3.3087,3.3623,3.3797,3.4018,3.4123,3.3868,3.3136,3.261,3.2629,3.2629,0.0,0.0,3.333,3.4119,3.4862,3.46,3.3876,3.2588,3.2092,3.1347,3.023,3.0818,3.0903,3.0176,3.0818,3.0869,3.0125,2.9364,2.8602,2.7789,2.7063,2.647,2.6013,2.5449,2.4934,2.4389,2.3837,2.3595,2.3565,2.3595,2.3595,2.3537,2.292,2.23,2.1663,2.1028,2.0396,1.985,1.9798,1.9798,1.962,3.2183,3.2183,3.2092,3.1928,3.1853,3.2291,3.3607,3.51,3.6354,3.7204,3.7178,3.7614,3.9183,3.8193,3.7741,3.8475,3.7405,3.6557,3.6273,3.5796,3.5727,3.6337,3.6529,3.6849,3.739,3.6892,3.6508,3.6228,3.6006,3.6538,3.7822,3.8035,3.887,4.0054,3.9326,3.9394,4.002,3.9292,3.9411,4.007,4.007,4.007,4.007,4.007,3.9935,3.9732,3.9986,3.9614,3.892,3.8447,3.7618,3.6688,3.618,3.5825,3.5622,3.5622,3.5267,3.4928,3.5165,3.4692,3.3947,3.3203,3.2937,3.2723,3.2159,3.2212,3.2734,3.3942,3.3868,3.3744,3.4458,3.3935,3.3393,3.3393,3.3393,3.3411,0.0,3.3623,3.3899,3.4174,3.4082,3.3728,3.3032,3.296,3.2652,3.176,3.1833,3.172,3.1239,3.1215,3.1089,3.0835,2.9634,2.8856,2.8602,2.7038,2.6156,2.5997,2.5105,2.4592,2.4389,2.3837,2.3595,2.3595,2.3595,2.3595,2.3508,2.2469,2.1899,2.1615,2.0534,2.0003,1.9798,1.9798,1.9798,1.9672,3.2826,3.2677,3.2377,3.1958,3.2086,3.268,3.3788,3.577,3.7518,3.8448,3.8787,3.9487,4.0779,3.9764,3.921,3.9661,3.8374,3.7238,3.6692,3.6193,3.6247,3.7013,3.7069,3.7488,3.8492,3.7801,3.7128,3.6615,3.6415,3.6845,3.7822,3.8092,3.887,4.0054,3.958,3.9648,4.0054,3.958,3.9648,4.007,4.007,4.007,4.007,4.007,4.007,4.007,4.007,3.9614,3.8886,3.8159,3.7398,3.6637,3.5859,3.5622,3.5622,3.5622,3.5267,3.4945,3.5165,3.4861,3.432,3.3592,3.3406,3.3192,3.2386,3.2412,3.2875,3.3901,3.3705,3.3723,3.4968,3.432,3.3725,3.4147,3.399,3.3697,0.0,3.3623,3.3697,3.3421,3.3623,3.3578,3.3014,3.3093,3.2649,3.1358,3.1661,3.1584,3.0864,3.1062,3.119,3.119,2.9753,2.9011,2.9011,2.7011,2.5888,2.5689,2.4816,2.4307,2.4116,2.3752,2.3595,2.3595,2.3595,2.3595,2.3508,2.2225,2.1697,2.1554,2.0283,1.9798,1.9798,1.9798,1.9631,1.9349,3.3365,3.3021,3.2602,3.2572,3.3288,3.4073,3.4643,3.6616,3.857,3.9979,4.0816,4.1527,4.2233,4.1644,4.1187,4.1153,3.9731,3.8286,3.6926,3.6648,3.6326,3.5744,3.7045,3.7786,3.7867,3.8454,3.8101,3.6661,3.7338,3.769,3.7748,3.8525,3.9262,4.002,4.007,4.007,4.007,4.007,4.007,4.007,4.007,4.007,4.007,4.007,4.007,4.007,4.007,3.9614,3.8886,3.8193,3.7432,3.6654,3.591,3.5656,3.5622,3.5622,3.5622,3.547,3.4742,3.4539,3.437,3.3592,3.344,3.3362,3.3041,3.3533,3.3977,3.3759,3.367,3.4002,3.5256,3.4225,3.357,3.4724,3.4293,3.3513,3.2706,3.3256,3.3458,3.2706,3.3248,3.3411,3.2616,3.2449,3.1497,2.9291,3.0383,3.0552,2.9202,3.0434,3.119,3.123,2.9824,2.9008,2.8975,2.7008,2.5738,2.5128,2.4632,2.4074,2.3595,2.3595,2.3595,2.3595,2.3595,2.3595,2.3508,2.2271,2.1744,2.1554,2.032,1.985,1.9798,1.9798,1.9307,1.8749,3.3469,3.3754,3.3814,3.332,3.474,3.5862,3.5431,3.8228,4.0484,4.0866,4.1538,4.2109,4.2286,4.1644,4.0984,4.0409,3.8985,3.7955,3.755,3.643,3.5965,3.6328,3.6716,3.7446,3.8591,3.7662,3.7306,3.7515,3.6538,3.6352,3.6919,3.7732,3.8486,3.9262,3.9833,4.007,4.007,4.007,4.007,4.007,4.007,4.007,4.007,4.007,4.007,4.007,4.007,3.9614,3.8954,3.8768,3.7855,3.6738,3.6552,3.6079,3.5622,3.5622,3.5622,3.5571,3.5385,3.5334,3.503,3.3728,3.3812,3.3905,3.2764,3.3053,3.3806,3.4675,3.4387,3.4189,3.4836,3.416,3.3521,3.3634,3.3743,3.3421,3.2294,3.2596,3.2834,3.2632,3.252,3.2611,3.2991,3.1903,3.1044,3.0793,3.0553,3.0512,3.076,3.1048,3.1351,3.164,3.0449,2.9366,2.8422,2.6945,2.5671,2.4592,2.4074,2.3709,2.3595,2.3595,2.3595,2.3595,2.3595,2.3595,2.3551,2.277,2.2146,2.1602,2.0832,2.0258,1.9798,1.9798,1.9307,1.8749,3.4322,3.4681,3.4816,3.4442,3.6222,3.7492,3.6727,3.9232,4.13,4.1627,4.2341,4.2777,4.2777,4.2117,4.1386,4.0632,3.9483,3.8374,3.7322,3.6768,3.6523,3.6615,3.6615,3.7188,3.8414,3.7557,3.7144,3.7279,3.6415,3.6165,3.6615,3.7456,3.8189,3.8908,3.9731,4.007,4.007,4.007,4.007,4.007,4.007,4.007,0.0,4.007,4.007,4.007,4.007,3.9817,3.9411,3.9106,3.843,3.7635,3.6975,3.6485,3.6062,3.5723,3.5622,3.5622,3.5622,3.5622,3.5334,3.4167,3.4184,3.4201,3.3034,3.3355,3.4067,3.4795,3.4597,3.4553,3.5343,3.4319,3.3244,3.2961,3.306,3.276,3.1383,3.1999,3.2177,3.1202,3.1583,3.182,3.1635,3.1058,3.0473,2.988,3.0016,3.0101,3.0091,3.0791,3.1219,3.1251,3.0199,2.9139,2.8213,2.6604,2.533,2.4389,2.3879,2.3595,2.3595,2.3595,2.3595,2.361,2.3334,2.3201,2.3143,2.2221,2.1643,2.1245,2.0584,2.0156,1.9798,1.9798,1.9391,1.88,3.525,3.5444,3.5504,3.5504,3.739,3.8729,3.8258,4.0067,4.1728,4.2354,4.3098,4.3538,4.3436,4.2828,4.2122,4.1299,4.0514,3.9148,3.6904,3.7338,3.7279,3.6508,3.6446,3.6798,3.7632,3.7531,3.7219,3.6615,3.6492,3.6446,3.6508,3.7397,3.8133,3.8799,3.9679,4.007,4.007,4.007,4.007,4.007,4.007,4.007,4.007,4.007,4.007,4.007,4.007,4.007,3.9969,3.9242,3.8937,3.8616,3.7212,3.6705,3.6502,3.5825,3.5622,3.5622,3.5622,3.5622,3.5419,3.4556,3.4421,3.4303,3.3575,3.3964,3.4506,3.452,3.4492,3.4776,3.572,3.4168,3.2641,3.2283,3.2236,3.1757,3.0331,3.1341,3.1444,2.9294,3.0574,0.0,2.9504,3.0041,2.9712,2.7926,2.9059,2.943,2.8548,3.0114,3.0929,3.0699,2.9792,2.8904,2.8118,2.6338,2.5084,2.4266,2.3837,2.3595,2.3595,2.3508,2.3465,2.3465,2.2815,2.2558,2.2498,2.1355,2.0894,2.0746,2.0055,1.9798,1.9798,1.9723,1.9371,1.8746,3.4637,3.5115,3.5504,3.5504,3.739,3.9049,3.9542,4.1558,4.3081,4.32,4.3893,4.413,4.3487,4.3301,4.2672,4.1334,4.0521,3.9401,3.7722,3.7084,3.6461,3.5733,3.5668,3.6054,3.6783,3.618,3.6117,3.6615,3.6006,3.5668,3.5733,3.7115,3.7863,3.8035,3.9454,4.007,4.007,4.007,4.007,4.007,4.007,4.007,4.007,4.007,4.007,4.007,4.007,4.007,3.9969,3.9242,3.8599,3.7939,3.706,3.6332,3.5791,3.5656,3.5622,3.5622,3.5622,3.5622,3.5301,3.3931,3.4049,3.4303,3.3575,3.3964,3.4526,3.4562,3.4584,3.4294,3.334,3.217,3.1196,3.0849,3.0925,3.0751,2.9987,3.0384,3.0212,2.8784,2.9919,3.0075,2.822,2.8815,2.888,2.7892,2.8026,2.8442,2.8959,2.9815,3.0585,3.1155,3.093,2.9772,2.7567,2.7186,2.591,2.3767,2.3638,2.3595,2.3595,2.3098,2.2875,2.283,2.2146,2.1899,2.1852,2.1615,2.1245,2.0746,2.0055,1.9798,1.9748,1.9321,1.8819,1.8234,3.5085,3.528,3.5609,3.5953,3.7904,3.9718,4.044,4.2518,4.3876,4.347,4.3403,4.3403,4.342,4.3064,4.2513,4.1832,4.1113,3.9824,3.7891,3.7799,3.7126,3.5584,3.5504,3.5668,3.5991,3.5668,3.5668,3.6054,3.5668,3.5504,3.5504,3.6646,3.7397,3.7847,3.9002,3.9715,4.0054,3.9681,3.9732,4.007,4.007,4.007,4.007,4.007,4.007,4.007,4.007,4.007,4.002,3.9681,3.9073,3.8345,3.7601,3.684,3.6146,3.574,3.5622,3.5622,3.5622,3.5622,3.5267,3.3778,3.3947,3.4098,3.2696,3.3211,3.3914,3.3615,3.3827,3.3663,3.2239,3.1605,3.1052,3.0491,3.0483,3.0304,2.9659,3.0049,2.9769,2.8007,2.9079,2.9158,2.7114,2.7881,2.8159,2.7282,2.7588,2.7929,2.815,2.9609,3.0403,3.0379,3.0749,2.9989,2.7949,2.7169,2.5905,2.4118,2.3774,2.3595,2.3595,2.329,2.3009,2.2649,2.1993,2.152,2.1197,2.0855,2.0521,2.0258,1.9952,1.9798,1.9748,1.9221,1.8681,1.8012,3.5789,3.5714,3.5923,3.6567,3.8492,4.0162,4.0862,4.2756,4.3996,4.3669,4.3149,4.2929,4.3369,4.3031,4.2644,4.2359,4.1745,4.0415,3.8136,3.8404,3.7741,3.5584,3.5504,3.5504,3.5504,3.5504,3.5504,3.5504,3.5504,3.5504,3.5504,3.6399,3.7381,3.8302,3.8973,3.9546,4.0037,3.9462,3.9546,4.007,4.007,4.007,4.007,4.007,4.007,4.007,4.007,4.007,4.007,4.007,3.9495,3.8599,3.7702,3.7009,3.6417,3.5808,3.5622,3.5622,3.5622,3.5622,3.5301,3.3964,3.3947,3.3895,3.2407,3.2779,3.3343,3.2901,3.2994,3.2787,3.1539,3.13,3.1049,3.0336,3.0211,3.0052,2.9443,2.9875,2.95,2.7504,2.8414,2.8371,2.6259,2.7049,2.7361,2.645,2.7129,2.7437,2.7147,2.9245,3.0162,2.9505,3.0439,3.0048,2.8222,2.7089,2.5827,2.4403,2.3864,2.3595,2.3595,2.3465,2.3054,2.2452,2.1805,2.1148,2.056,2.0003,1.9798,1.9798,1.9798,1.9798,1.9723,1.9083,1.8581,1.7949,3.6297,3.6402,3.6596,3.721,3.8678,4.0049,4.0879,4.182,4.29,4.4328,4.4418,4.413,4.3487,4.3995,4.3826,4.2436,4.2216,4.1238,3.8937,3.8254,3.7194,3.5569,3.5504,3.5504,3.5504,3.5504,3.5504,3.5504,3.5504,3.5504,3.5504,3.7011,3.8486,3.9901,3.9952,4.002,4.007,4.0003,4.002,4.007,4.007,4.007,4.007,4.007,4.007,4.007,4.007,4.007,4.007,4.007,3.9157,3.7753,3.6299,3.5791,3.5723,3.5639,3.5622,3.5622,3.5622,3.5622,3.5419,3.459,3.3947,3.3643,3.4107,3.3777,3.3412,3.3482,3.2509,3.1456,3.0759,3.0579,3.0403,2.9805,2.9681,2.9629,2.9603,2.9585,2.9066,2.772,2.8106,2.7726,2.5668,2.6075,2.6133,2.54,2.626,2.6759,2.6589,2.8576,2.9625,2.9488,3.0923,3.0336,2.7499,2.7355,2.6073,2.3684,2.3625,2.3595,2.3595,2.3009,2.2438,2.1758,2.1161,2.0497,1.9901,1.985,1.9798,1.9798,1.9798,1.9798,1.9673,1.8656,1.8242,1.7947,3.706,3.7045,3.724,3.7883,3.891,3.994,4.0742,4.1213,4.1868,4.304,4.3177,4.3081,4.2777,4.2625,4.2479,4.2289,4.1866,4.0801,3.8904,3.8575,3.7539,3.5584,3.5504,3.5504,3.5504,3.5504,3.5504,3.5504,3.5504,3.5504,3.5504,3.6585,3.7889,3.9351,3.9446,3.9665,4.0054,3.9614,3.9681,4.007,4.007,4.007,4.007,4.007,4.007,4.007,4.007,4.007,4.0003,3.958,3.9039,3.8447,3.7838,3.7347,3.6907,3.6451,3.6315,3.6214,3.574,3.5622,3.5436,3.4675,3.4607,3.4368,3.2971,3.3056,3.3011,3.148,3.1022,3.0717,3.0073,3.0238,3.0408,3.0197,3.0142,3.0027,2.9645,2.9554,2.9078,2.776,2.742,2.6857,2.5637,2.5691,2.5358,2.4328,2.5913,2.6911,2.6845,2.8833,2.9915,2.9841,3.0507,2.993,2.8003,2.7153,2.589,2.4223,2.3789,2.3595,2.3595,2.3334,2.2665,2.1649,2.062,2.0055,1.9798,1.9798,1.9798,1.9798,1.9798,1.9798,1.9673,1.8606,1.8204,1.7994,3.7749,3.7853,3.8153,3.8616,3.9373,4.0124,4.0644,4.0617,4.0878,4.1461,4.1402,4.1485,4.1912,4.1711,4.1594,4.1849,4.1216,4.0268,3.8807,3.8432,3.7435,3.5584,3.5504,3.5504,3.5504,3.5504,3.5504,3.5504,3.5504,3.5504,3.5504,3.6523,3.7658,3.8891,3.9194,3.9597,4.0054,3.9529,3.9597,4.007,4.007,4.007,4.007,4.007,4.007,4.0054,3.9834,3.9901,3.9969,3.9242,3.8988,3.8954,3.8734,3.8328,3.777,3.7009,3.6772,3.6603,3.5825,3.5622,3.5504,3.4962,3.5064,3.4773,3.2767,3.2767,3.2572,3.0297,3.0183,3.0372,2.9939,3.0372,3.0731,3.0533,3.0649,3.0516,2.9741,2.9604,2.9094,2.774,2.6653,2.5808,2.5127,2.4597,2.4044,2.3407,2.5227,2.6403,2.6547,2.8579,2.971,2.9581,2.988,2.942,2.8176,2.6921,2.5696,2.4519,2.3906,2.3595,2.3595,2.3216,2.2469,2.1376,2.0283,1.9798,1.9798,1.9798,1.9798,1.9798,1.9798,1.9798,1.9673,1.8606,1.8204,1.8041,3.8257,3.8931,3.9394,3.9409,3.9948,4.0492,4.0662,4.0168,3.9747,3.992,3.9338,3.9503,4.1047,4.1863,4.193,4.1099,4.044,3.9738,3.8727,3.7374,3.629,3.5504,3.5504,3.5504,3.5504,3.5504,3.5504,3.5504,3.5504,3.5504,3.5504,3.7071,3.8189,3.8908,3.9714,4.007,4.007,4.007,4.007,4.007,4.007,4.007,4.007,4.007,4.007,3.9986,3.9259,3.9462,3.9969,3.9242,3.8988,3.887,3.8142,3.7922,3.777,3.7009,3.6772,3.6603,3.5825,3.5622,3.5622,3.5605,3.5064,3.4489,3.4472,3.3445,3.2161,3.0848,3.054,3.0507,3.0492,3.1061,3.13,3.0612,3.1076,3.1057,2.9773,2.9621,2.9109,2.7738,2.5883,2.4469,2.3793,2.2513,2.2007,2.2649,2.3881,2.4814,2.5176,2.742,2.8646,2.8434,2.9174,2.8939,2.762,2.6738,2.5647,2.4405,2.3837,2.3595,2.3551,2.2317,2.139,2.0746,2.0093,1.9798,1.9798,1.9798,1.9798,1.9798,1.9798,1.9798,1.9673,1.8606,1.8204,1.8041,3.905,3.9275,3.9424,3.9424,3.9589,3.9721,3.9824,3.9204,3.8849,3.9011,3.8419,3.8236,3.8837,3.9096,3.9062,3.8679,3.8584,3.815,3.7284,3.6829,3.6275,3.5504,3.5504,3.5504,3.5504,3.5504,3.5504,3.5504,3.5504,3.5782,3.6275,3.6737,3.7658,3.8908,3.9139,3.9291,3.9377,3.9868,3.9783,3.9377,3.9884,4.007,4.007,4.007,4.007,4.0054,3.9817,3.9884,4.0037,3.9817,3.9411,3.8954,3.8717,3.8311,3.777,3.7009,3.6772,3.6603,3.5825,3.5622,3.5622,3.5622,3.5436,3.4981,3.4039,3.2059,3.032,2.9928,2.9848,2.9998,3.0417,3.1061,3.1407,3.124,3.1001,3.0511,2.968,2.9227,2.8592,2.773,2.6199,2.5146,2.494,2.3334,2.277,2.3851,2.4374,2.5048,2.5895,2.7238,2.8198,2.8799,2.8283,2.7607,2.6738,2.5938,2.4972,2.3837,2.3681,2.3377,2.2965,2.2086,2.139,2.0746,2.0105,1.9798,1.9798,1.9798,1.9798,1.9798,1.9798,1.9798,1.971,1.902,1.853,1.8103,3.9469,3.9813,3.9993,3.9514,3.9634,3.9619,3.911,3.8452,3.7985,3.7842,3.722,3.6813,3.6937,3.6951,3.7094,3.756,3.7432,3.711,3.6565,3.6322,3.6006,3.5504,3.5504,3.5504,3.5504,3.5504,3.5504,3.5504,3.5504,3.5733,3.6165,3.6508,3.7128,3.8044,3.8619,3.8742,3.864,3.9649,3.9648,3.9039,3.9478,3.9665,3.9665,3.9665,3.9665,3.9665,3.9665,3.9834,4.0037,3.9766,3.9377,3.8937,3.8667,3.8075,3.7398,3.6924,3.6772,3.6603,3.5825,3.5622,3.5622,3.5622,3.5622,3.5177,3.3545,3.1454,2.9826,2.9572,2.9584,2.9759,3.0387,3.1061,3.1392,3.1195,3.0791,3.0182,2.9342,2.8836,2.8271,2.732,2.5988,2.5047,2.4783,2.32,2.2542,2.3353,2.3717,2.4315,2.5191,2.6649,2.7627,2.8044,2.7267,2.669,2.6389,2.5413,2.4552,2.3921,2.3681,2.3128,2.23,2.1899,2.1367,2.072,2.0105,1.9924,2.0112,1.9886,1.9798,1.9798,1.9798,1.9798,1.971,1.8982,1.8505,1.8091,3.9544,4.0397,4.0861,3.9634,3.9933,3.9888,3.8586,3.7913,3.73,3.6582,3.5983,3.5609,3.5519,3.5504,3.6023,3.7325,3.6863,3.6503,3.6499,3.5863,3.5534,3.5564,3.5534,3.5504,3.5504,3.5504,3.5504,3.5504,3.5504,3.5504,3.5504,3.6228,3.6554,3.6661,3.8101,3.8372,3.7821,3.9293,3.953,3.892,3.892,3.8954,3.8988,3.8988,3.8988,3.9005,3.9056,3.9512,3.9969,3.9292,3.9005,3.8802,3.8125,3.7381,3.6772,3.6721,3.6705,3.6535,3.5808,3.5622,3.5622,3.5622,3.5577,3.5023,3.3048,3.1566,3.0385,2.9811,2.9639,2.9834,3.0462,3.1106,3.13,3.0612,3.0462,3.0013,2.8771,2.8554,2.8077,2.6811,2.5483,2.4405,2.3782,2.2465,2.167,2.1773,2.2272,2.2865,2.348,2.5746,2.6823,2.6404,2.6125,2.609,2.6354,2.5064,2.4389,2.4348,2.3837,2.2935,2.1758,2.1697,2.1358,2.0683,2.0127,2.015,2.0618,2.0075,1.9836,1.9798,1.9798,1.985,1.9724,1.8681,1.8302,1.8134,3.9454,3.9664,3.9783,3.9469,3.9544,3.9364,3.8527,3.8706,3.8347,3.6701,3.6761,3.6582,3.5609,3.5504,3.5614,3.5944,3.5872,3.5954,3.6447,3.5863,3.5729,3.6237,3.5774,3.5504,3.5504,3.5504,3.5504,3.5504,3.5504,3.5504,3.5504,3.5668,3.6054,3.6615,3.7008,3.7086,3.7011,3.7961,3.8271,3.8159,3.8159,3.8497,3.8988,3.8988,3.8988,3.9056,3.9631,3.9935,4.0054,3.9884,3.9089,3.8142,3.7973,3.7381,3.6671,3.6062,3.5893,3.5859,3.5673,3.5622,3.5622,3.5622,3.5207,3.4442,3.295,3.1953,3.113,3.0403,3.0283,3.0492,3.1165,3.1362,3.13,3.0612,3.0103,2.952,2.8712,2.8158,2.7709,2.738,2.6576,2.5737,2.5052,2.3764,2.3157,2.3619,2.2986,2.2875,2.3533,2.4593,2.5264,2.5508,2.5433,2.5243,2.4886,2.4576,2.4184,2.3794,2.3681,2.3187,2.2452,2.1946,2.1361,2.0781,2.0589,2.0288,2.0024,2.0338,2.02,1.9798,1.9798,2.0105,2.0471,1.9712,1.9439,1.9346,3.9484,3.9664,3.9768,3.9469,3.9424,3.9185,3.8497,3.8706,3.8362,3.6701,3.6776,3.6731,3.6028,3.5953,3.6073,3.6342,3.6118,3.5983,3.6028,3.5983,3.5983,3.6028,3.5699,3.5504,3.5504,3.5504,3.5504,3.5504,3.5504,3.5504,3.5504,3.5504,3.5733,3.6102,3.6446,3.624,3.5764,3.7208,3.7466,3.6965,3.7658,3.7939,3.8058,3.8734,3.8785,3.8633,3.9698,4.007,4.007,4.007,3.9326,3.8345,3.8024,3.7381,3.662,3.5859,3.6113,3.6518,3.5808,3.5876,3.6016,3.5291,3.4894,3.4235,3.2914,3.2097,3.1459,3.108,3.0717,3.0717,3.1347,3.1482,3.121,3.0238,2.9804,2.925,2.8263,2.7814,2.7625,2.7625,2.6937,2.6354,2.596,2.4654,2.3846,2.3884,2.3275,2.2965,2.3043,2.3441,2.3881,2.4399,2.4681,2.4712,2.4389,2.4158,2.3879,2.3595,2.3595,2.3437,2.3112,2.2133,2.1689,2.1574,2.0654,2.0388,2.0552,2.0363,2.0238,2.0175,1.9911,2.0194,2.072,2.0112,1.99,1.9729,3.9529,3.9873,4.0083,3.9514,3.9424,3.9185,3.8497,3.8392,3.7973,3.6776,3.6626,3.6626,3.6626,3.6626,3.6836,3.736,3.6926,3.6387,3.5833,3.6222,3.6237,3.5684,3.5549,3.5504,3.5504,3.5504,3.5504,3.5504,3.5504,3.5504,3.5504,3.5504,3.5504,3.5504,3.6165,3.5797,3.4756,3.6644,3.6856,3.5943,3.72,3.7422,3.7094,3.8481,3.8616,3.8244,3.9597,4.007,4.007,4.007,3.9597,3.887,3.8142,3.7466,3.6772,3.5876,3.6789,3.7736,3.6214,3.6282,3.6477,3.5077,3.4771,3.4415,3.3071,3.2322,3.1852,3.1705,3.1117,3.0836,3.1534,3.1582,3.1135,2.9924,2.9639,2.9146,2.7955,2.7724,2.7724,2.7724,2.7203,2.6823,2.6814,2.5578,2.452,2.388,2.3658,2.3282,2.2682,2.2706,2.2951,2.345,2.3927,2.4184,2.4266,2.3943,2.3759,2.3759,2.3849,2.3911,2.3963,2.2715,2.2405,2.283,2.1108,2.0825,2.1572,2.0504,2.03,2.0655,2.0128,2.0346,2.0877,2.042,2.0261,2.013,3.9439,3.9499,3.9544,3.9439,3.9424,3.9185,3.8497,3.8392,3.8123,3.736,3.727,3.727,3.727,3.727,3.73,3.7404,3.7315,3.7225,3.712,3.6731,3.6432,3.6342,3.5804,3.5504,3.5504,3.5504,3.5504,3.5504,3.5504,3.5504,3.5504,3.5504,3.5504,3.5504,3.5619,3.5518,3.5349,3.5739,3.6087,3.6551,3.6768,3.7203,3.7821,3.8667,3.892,3.8937,3.9766,4.007,4.007,4.007,3.9597,3.887,3.8142,3.7821,3.7449,3.6028,3.7144,3.8497,3.7009,3.6688,3.6586,3.5655,3.5424,3.5102,3.3726,3.3332,3.3058,3.253,3.1875,3.1562,3.2312,3.191,3.1285,3.0492,2.9924,2.931,2.8547,2.8442,2.8442,2.8442,2.8321,2.8261,2.8136,2.7446,2.6623,2.5778,2.5172,2.4543,2.3764,2.3431,2.3208,2.3326,2.3073,2.3216,2.3709,2.4222,2.4418,2.4433,2.5031,2.5299,2.5295,2.4578,2.4281,2.4348,2.3312,2.2692,2.235,2.1555,2.1004,2.0709,2.068,2.1015,2.1554,2.1458,2.1806,2.1953,3.9424,3.9424,3.9424,3.9424,3.9424,3.932,3.899,3.8945,3.8706,3.8033,3.7943,3.7943,3.7943,3.7943,3.8078,3.8467,3.8153,3.7793,3.7434,3.6836,3.6327,3.5968,3.5669,3.5504,3.5504,3.5504,3.5504,3.5504,3.5504,3.5504,3.5504,3.5504,3.5504,3.5504,3.5504,3.5292,3.5003,3.5338,3.5279,3.5112,3.6649,3.7051,3.6918,3.8873,3.9343,3.9089,3.9817,4.007,4.007,4.007,3.9343,3.8345,3.8024,3.7347,3.662,3.6332,3.6975,3.7821,3.7939,3.7686,3.7185,3.6432,3.6273,3.592,3.4492,3.3888,3.3429,3.2715,3.1995,3.1582,3.1951,3.1739,3.13,3.0612,2.9983,2.9475,2.9175,2.8831,2.8727,2.9086,2.9117,2.9139,2.9047,2.8408,2.7626,2.6747,2.6054,2.532,2.4489,2.3617,2.3201,2.3173,2.3506,2.3999,2.4687,2.5001,2.5151,2.5151,2.5465,2.5794,2.6123,2.5146,2.4867,2.5085,2.362,2.2816,2.2498,2.147,2.0891,2.0709,2.0781,2.1161,2.1744,2.21,2.2207,2.1921,3.9424,3.9424,3.9424,3.9424,3.9424,3.9424,3.9424,3.929,3.905,3.8676,3.8497,3.8452,3.8616,3.8482,3.8601,3.9125,3.8422,3.7734,3.7225,3.6611,3.6028,3.5534,3.5504,3.5504,3.5504,3.5504,3.5504,3.5504,3.5504,3.5504,3.5504,3.5504,3.5504,3.5504,3.5504,3.5205,3.4775,3.5293,3.4937,3.4177,3.6573,3.6996,3.6438,3.8891,3.9615,3.9326,3.9884,4.007,4.007,4.007,3.9343,3.8379,3.821,3.7246,3.6231,3.6654,3.6907,3.728,3.8201,3.8169,3.7718,3.6952,3.6763,3.6462,3.5203,3.4379,3.3741,3.3093,3.245,3.1928,3.198,3.1865,3.1539,3.0851,3.0208,2.9804,2.9804,2.937,2.922,2.9744,2.9804,2.9864,3.0028,2.9315,2.8633,2.7967,2.7404,2.6637,2.5507,2.4431,2.364,2.339,2.3984,2.4644,2.5349,2.5655,2.5839,2.5839,2.5989,2.6333,2.6797,2.582,2.5652,2.5974,2.4077,2.3165,2.2938,2.1488,2.0832,2.0709,2.0919,2.1293,2.1777,2.2431,2.2363,2.1754,3.9424,3.9424,3.9424,3.9424,3.9424,3.9424,3.9424,3.8871,3.8676,3.9275,3.8796,3.8631,3.9275,3.8766,3.8407,3.8467,3.7345,3.6611,3.6552,3.5938,3.5549,3.5504,3.5504,3.5504,3.5504,3.5504,3.5504,3.5504,3.5504,3.5504,3.5504,3.5504,3.5504,3.5504,3.5504,3.5474,3.5429,3.5494,3.5472,3.5411,3.6304,3.7074,3.7719,3.8665,3.9404,4.0003,4.0054,4.007,4.007,4.007,4.0003,3.98,3.9123,3.8379,3.7618,3.6975,3.728,3.7677,3.7036,3.7362,3.7623,3.688,3.6718,3.6494,3.5799,3.4991,3.4438,3.434,3.3803,3.3382,3.3383,3.2862,3.2228,3.1569,3.0881,3.0432,3.0432,3.0387,3.0387,3.0432,3.0432,3.0687,3.133,3.0735,3.0253,3.0103,3.0036,2.9282,2.7588,2.6437,2.5366,2.4216,2.3851,2.3946,2.4581,2.5893,2.6512,2.6527,2.7141,2.7505,2.755,2.744,2.739,2.7384,2.5873,2.4874,2.4228,2.2231,2.1129,2.0762,2.1377,2.1649,2.1782,2.2453,2.2682,2.2387,3.9499,3.9424,3.9424,3.9424,3.9424,3.9424,3.9424,3.92,3.9125,3.9394,3.8811,3.8661,3.9349,3.8437,3.7943,3.8347,3.7569,3.6896,3.6507,3.6252,3.5923,3.5519,3.5504,3.5504,3.5504,3.5504,3.5504,3.5504,3.5504,3.5504,3.5504,3.5504,3.5504,3.5504,3.5504,3.5504,3.5504,3.5504,3.5292,3.4987,3.6168,3.6837,3.7313,3.8466,3.9368,4.007,4.007,4.007,4.007,4.007,3.9783,3.936,3.9089,3.8481,3.7939,3.8108,3.8019,3.7758,3.7452,3.7921,3.8339,3.7572,3.7367,3.7154,3.642,3.5716,3.508,3.4592,3.3938,3.3532,3.3486,3.3276,3.3036,3.2796,3.2183,3.1749,3.1749,3.1405,3.115,3.115,3.1509,3.1689,3.1497,3.1659,3.1321,3.0366,3.0323,2.9789,2.8566,2.7791,2.676,2.5448,2.616,2.6326,2.5724,2.6701,2.72,2.72,2.7505,2.7625,2.7625,2.7625,2.7625,2.756,2.6496,2.5314,2.3931,2.2657,2.136,2.0256,2.1277,2.1489,2.1282,2.2291,2.2158,2.1302,3.9514,3.9424,3.9484,3.9694,3.9559,3.9484,3.9694,3.9559,3.9424,3.9424,3.9005,3.8901,3.9364,3.8212,3.7674,3.8332,3.7614,3.6941,3.6507,3.6297,3.5968,3.5534,3.5504,3.5504,3.5504,3.5504,3.5504,3.5504,3.5504,3.5504,3.5504,3.5504,3.5504,3.5504,3.5504,3.5504,3.5504,3.5504,3.5235,3.4895,3.5872,3.6457,3.6874,3.8107,3.9032,3.9782,4.002,4.007,4.007,4.007,3.9749,3.9343,3.9343,3.8836,3.8345,3.8853,3.8617,3.8098,3.7873,3.8149,3.8358,3.7616,3.7456,3.7279,3.6737,3.6091,3.5415,3.4913,3.4442,3.4053,3.3844,3.3799,3.3739,3.3529,3.311,3.2826,3.2826,3.2437,3.2153,3.2153,3.2362,3.2332,3.1884,3.2243,3.199,3.0776,3.0878,3.047,2.9199,2.8677,2.7845,2.6533,2.7877,2.8137,2.7101,2.7669,2.7889,2.7889,2.773,2.7625,2.7625,2.7625,2.7625,2.756,2.6607,2.5265,2.3636,2.2682,2.1316,1.994,2.1183,2.1351,2.0917,2.1982,2.1665,2.0601,3.9424,3.9424,3.9634,4.0277,3.9858,3.9649,4.0292,3.9843,3.9424,3.9424,3.9424,3.9409,3.9424,3.8212,3.7659,3.8332,3.7225,3.6492,3.6492,3.5863,3.5504,3.5504,3.5504,3.5504,3.5504,3.5504,3.5504,3.5504,3.5504,3.5504,3.5504,3.5504,3.5504,3.5504,3.5504,3.5504,3.5504,3.5504,3.5504,3.5504,3.5504,3.5943,3.6737,3.7515,3.8246,3.9016,3.9782,4.007,4.007,4.007,4.007,4.007,4.007,3.958,3.9005,3.9005,3.9005,3.8824,3.8028,3.7822,3.7573,3.6783,3.66,3.66,3.66,3.6006,3.5504,3.5504,3.5504,3.5295,3.4607,3.4487,3.4262,3.3619,3.3514,3.3499,3.3499,3.3499,3.3499,3.3499,3.2916,3.2527,3.2527,3.2527,3.2243,3.1541,3.2131,3.1601,2.9491,2.915,2.8496,2.7346,2.8594,2.9016,2.841,2.8571,2.8607,2.8607,2.7919,2.7625,2.7625,2.7625,2.7625,2.753,2.6112,2.4802,2.3608,2.2201,2.0914,1.994,2.1183,2.1351,2.0862,2.1498,2.1276,2.0617,3.9514,3.9783,4.0023,3.9768,3.9933,4.0023,3.9753,3.9544,3.9424,3.9424,3.899,3.8886,3.9364,3.7838,3.721,3.8287,3.7225,3.6492,3.6492,3.5863,3.5504,3.5504,3.5504,3.5504,3.5504,3.5504,3.5504,3.5504,3.5504,3.5504,3.5504,3.5504,3.5504,3.5504,3.5504,3.5504,3.5504,3.5504,3.5504,3.5504,3.5504,3.6258,3.7456,3.769,3.8596,3.9782,4.002,4.007,4.007,4.007,4.007,4.007,4.007,3.9935,3.9749,3.9749,3.9344,3.8768,3.7987,3.7397,3.6798,3.6006,3.5831,3.5831,3.5831,3.5683,3.5504,3.5504,3.5504,3.5444,3.5235,3.519,3.513,3.4936,3.4906,3.4741,3.4247,3.4188,3.4008,3.3544,3.332,3.32,3.32,3.32,3.2931,3.2273,3.1957,3.1279,3.0102,3.0488,3.0332,2.9448,3.0353,3.0761,3.0569,2.9724,2.928,2.928,2.8607,2.8293,2.8278,2.7784,2.7306,2.6797,2.6444,2.5005,2.2896,2.2546,2.1348,1.994,2.1183,2.1043,2.0235,2.1281,2.0976,1.9959,3.9544,3.9948,4.0277,3.9873,3.9918,3.9963,3.9828,3.9589,3.9424,3.9424,3.905,3.896,3.9379,3.7883,3.7375,3.8676,3.7599,3.6746,3.6507,3.5863,3.5504,3.5504,3.5504,3.5504,3.5504,3.5504,3.5504,3.5504,3.5504,3.5504,3.5504,3.5504,3.5504,3.5504,3.5504,3.5504,3.5504,3.5504,3.5504,3.5504,3.5504,3.6085,3.6951,3.7589,3.8374,3.9279,3.9901,4.007,4.007,4.007,4.007,4.007,4.007,4.007,4.007,4.007,3.9542,3.8745,3.7978,3.7203,3.6446,3.5668,3.5504,3.5504,3.5504,3.5504,3.5504,3.5504,3.5504,3.5504,3.5504,3.5504,3.5504,3.5504,3.5504,3.5355,3.4936,3.4891,3.4741,3.4337,3.4053,3.3888,3.3888,3.3888,3.3724,3.332,3.2198,3.1397,3.118,3.1383,3.1264,3.0775,3.1264,3.1482,3.1482,3.0746,3.0223,2.9939,2.9026,2.8607,2.8577,2.7889,2.7203,2.6467,2.6029,2.4611,2.2565,2.215,2.1249,2.0295,2.1328,2.1222,2.0667,2.1727,2.1246,2.0094,3.9619,3.9993,4.0397,4.0397,3.9903,3.9694,4.0232,3.9798,3.9424,3.9424,3.9424,3.9424,3.9424,3.8272,3.8018,3.9305,3.8182,3.715,3.6537,3.5863,3.5504,3.5504,3.5504,3.5504,3.5619,3.5504,3.5504,3.5504,3.5504,3.5504,3.5619,3.5619,3.5619,3.5619,3.5683,3.5683,3.5619,3.5619,3.5619,3.5619,3.5504,3.5554,3.5861,3.7235,3.7879,3.8206,3.9627,4.007,4.007,4.007,4.007,4.007,4.007,4.007,4.007,4.007,3.9542,3.8745,3.7978,3.7203,3.6446,3.5668,3.5504,3.5504,3.5504,3.5504,3.5504,3.5504,3.5504,3.5504,3.5504,3.5504,3.5504,3.5504,3.5504,3.5504,3.5504,3.5504,3.5504,3.5504,3.4906,3.4502,3.4562,3.4517,3.4472,3.4472,3.2766,3.194,3.2458,3.1895,3.1569,3.1482,3.1482,3.1482,3.1482,3.1482,3.121,3.0582,2.9355,2.8742,2.8667,2.7979,2.7248,2.6438,2.525,2.396,2.2485,2.1336,2.0799,2.0795,2.139,2.1629,2.17,2.2285,2.1744,2.0669,4.0113,4.0307,4.0397,4.0397,4.0277,4.0068,3.9694,3.9514,3.9424,3.9424,3.9424,3.9424,3.9424,3.8676,3.8512,3.9349,3.8182,3.715,3.6537,3.5863,3.5504,3.5504,3.5504,3.5782,3.6337,3.5782,3.5504,3.5504,3.5504,3.5782,3.6384,3.6384,3.6384,3.6384,3.6995,3.6935,3.6384,3.6384,3.6384,3.6337,3.5718,3.6196,3.7354,3.769,3.8541,3.9627,3.9969,4.007,4.007,4.007,4.007,4.007,4.007,4.007,4.007,4.007,3.9542,3.8745,3.7978,3.7203,3.6446,3.5668,3.5504,3.5504,3.5504,3.5504,3.5504,3.5504,3.5504,3.5504,3.5504,3.5504,3.5504,3.5504,3.5504,3.5504,3.5504,3.5504,3.5504,3.5504,3.4906,3.4696,3.5235,3.4801,3.4472,3.4472,3.3604,3.2916,3.2503,3.2324,3.2028,3.1539,3.1482,3.1482,3.1482,3.1482,3.1465,3.1243,3.0477,2.9834,2.934,2.8682,2.7705,2.6467,2.5661,2.4301,2.2525,2.1759,2.0849,2.0093,2.0733,2.1003,2.1011,2.1083,2.0955,2.0557,4.0397,4.0397,4.0307,3.9993,3.9933,3.9813,3.9469,3.9424,3.9424,3.9424,3.9424,3.9424,3.9424,3.8796,3.8287,3.8033,3.7644,3.7015,3.6073,3.5699,3.5683,3.6006,3.5991,3.6399,3.716,3.6768,3.6616,3.6616,3.6616,3.6768,3.7144,3.7144,3.7144,3.7203,3.7632,3.7338,3.6615,3.6615,3.6384,3.6054,3.5683,3.618,3.7279,3.7632,3.8541,3.961,3.9952,4.007,4.007,4.007,4.007,4.007,4.007,4.007,4.007,4.007,3.9279,3.8302,3.7921,3.6935,3.6006,3.5619,3.5504,3.5504,3.5504,3.5504,3.5504,3.5504,3.5504,3.5504,3.5504,3.5504,3.5504,3.5504,3.5504,3.5504,3.5504,3.5504,3.5504,3.5504,3.519,3.51,3.5474,3.4876,3.4607,3.4936,3.4053,3.3486,3.3442,3.3126,3.2825,3.248,3.2465,3.2317,3.196,3.1957,3.1835,3.1467,3.0836,3.0328,2.9983,2.9041,2.8015,2.6913,2.6015,2.4662,2.3014,2.206,2.1297,2.0756,2.1099,2.1403,2.1744,2.1975,2.1721,2.0959,4.074,4.0561,4.0426,3.9896,3.9775,3.9745,3.9625,3.961,3.9538,3.9409,3.9424,3.9424,3.9424,3.8796,3.8003,3.7075,3.715,3.6918,3.6075,3.5804,3.6006,3.6798,3.6798,3.7203,3.7978,3.7978,3.7921,3.7822,3.7822,3.7863,3.7978,3.7978,3.7978,3.7978,3.8149,3.7732,3.7008,3.6843,3.6461,3.5846,3.5619,3.5943,3.6661,3.7515,3.8246,3.9032,3.9782,4.007,4.007,4.007,4.007,4.007,4.007,4.007,4.007,3.9952,3.8887,3.7764,3.7632,3.66,3.5504,3.5504,3.5504,3.5504,3.5504,3.5504,3.5504,3.5504,3.5504,3.5504,3.5504,3.5504,3.5504,3.5504,3.5504,3.5504,3.5504,3.5504,3.5504,3.5504,3.5504,3.5504,3.5504,3.4996,3.4891,3.5459,3.4472,3.4023,3.4457,3.3963,3.3606,3.3487,3.3472,3.3261,3.2691,3.269,3.2314,3.1631,3.112,3.0731,3.0462,2.9295,2.8364,2.7621,2.6393,2.5103,2.3854,2.262,2.1947,2.1719,2.169,2.196,2.2452,2.3069,2.2539,2.1272,4.1475,4.125,4.1309,4.1392,4.141,4.1194,4.0593,4.05,4.0239,3.9481,3.9424,3.9424,3.9424,3.8796,3.8556,3.899,3.7539,3.708,3.8138,3.7109,3.6798,3.7573,3.7632,3.7978,3.8745,3.8745,3.8414,3.7822,3.7822,3.8149,3.8745,3.8745,3.8745,3.8799,3.9506,3.9332,3.8564,3.7905,3.7589,3.7354,3.6022,3.5943,3.6661,3.7515,3.8246,3.9032,3.9782,4.007,4.007,4.007,4.007,4.007,4.007,4.007,3.9952,3.9262,3.8469,3.7632,3.6964,3.6117,3.5504,3.5504,3.5504,3.5504,3.5504,3.5504,3.5504,3.5504,3.5504,3.5504,3.5504,3.5504,3.5504,3.5504,3.5504,3.5504,3.5504,3.5504,3.5504,3.5504,3.5504,3.5504,3.5504,3.5429,3.54,3.5489,3.534,3.5011,3.4502,3.4382,3.4068,3.3546,3.3516,3.344,3.338,3.3396,3.3051,3.2377,3.2287,3.1629,3.0477,2.9774,2.9077,2.839,2.6977,2.6006,2.5242,2.3919,2.275,2.1773,2.1725,2.1438,2.1121,2.1705,2.1486,2.0735,4.1039,4.0928,4.1036,4.1148,4.1549,4.1775,4.1459,4.1013,4.0554,4.0185,3.9666,3.9424,3.9424,3.9155,3.8781,3.8332,3.7509,3.694,3.6869,3.6341,3.6538,3.7764,3.7822,3.8374,3.9542,3.9558,3.9385,3.9049,3.9049,3.9279,3.9558,3.9558,3.9558,3.961,3.9952,3.9662,3.8854,3.8092,3.7515,3.7024,3.5958,3.5943,3.6661,3.7515,3.8246,3.9032,3.9782,4.007,4.007,4.007,4.007,4.007,4.007,4.007,3.9952,3.9139,3.8358,3.7632,3.6783,3.6054,3.5504,3.5504,3.5504,3.5504,3.5504,3.5504,3.5504,3.5504,3.5504,3.5504,3.5504,3.5504,3.5504,3.5504,3.5504,3.5504,3.5504,3.5504,3.5504,3.5504,3.5504,3.5504,3.5504,3.5504,3.5504,3.5504,3.5504,3.537,3.507,3.5055,3.4921,3.4637,3.4622,3.4442,3.4038,3.4077,3.3687,3.3051,3.2691,3.2003,3.1061,3.0387,2.9744,2.9116,2.8113,2.7122,2.6085,2.5128,2.3977,2.2818,2.2443,2.209,2.1918,2.2178,2.185,2.1123]},{"header":{"parameterUnit":"m.s-1","parameterCategory":1,"la1":30.6,"la2":28.766,"lo1":-90.7593,"lo2":-88.6598,"dy":0.0162,"dx":0.0183,"nx":116,"ny":114,"refTime":"2023-08-27T12:00:00:Z","depth":0,"parameterNumber":3,"parameterNumberName":"V-component_of_WINDS"},"data":[0.0,0.0,0.0,0.0,0.0,0.0,0.0,0.0,0.0,0.0,0.0,0.0,0.0,0.0,0.0,0.0,0.0,0.0,0.0,0.0,0.0,0.0,0.0,0.0,0.0,0.0,0.0,0.0,0.0,0.0,0.0,0.0,0.0,0.0,0.0,0.0,0.0,0.0,0.0,0.0,0.0,0.0,0.0,0.0,0.0,0.0,0.0,0.0,0.0,0.0,0.0,0.0,0.0,0.0,0.0,0.0,0.0,0.0,0.0,0.0,0.0,0.0,0.0,0.0,0.0,0.0,0.0,0.0,0.0,0.0,0.0,0.0,0.0,0.0,0.0,0.0,0.0,0.0,0.0,0.0,0.0,0.0,0.0,0.0,0.0,0.0,0.0,0.0,0.0,0.0,0.0,0.0,0.0,0.0,0.0,0.0,0.0,0.0,0.0,0.0,0.0,0.0,0.0,0.0,0.0,0.0,0.0,0.0,0.0,0.0,0.0,0.0,0.0,0.0,0.0,0.0,0.0,0.0,0.0,0.0,0.0,0.0,0.0,0.0,0.0,0.0,0.0,0.0,0.0,0.0,0.0,0.0,0.0,0.0,0.0,0.0,0.0,0.0,0.0,0.0,0.0,0.0,0.0,0.0,0.0,0.0,0.0,0.0,0.0,0.0,0.0,0.0,0.0,0.0,0.0,0.0,0.0,0.0,0.0,0.0,0.0,0.0,0.0,0.0,0.0,0.0,0.0,0.0,0.0,0.0,0.0,0.0,0.0,0.0,0.0,0.0,0.0,0.0,0.0,0.0,0.0,0.0,0.0,0.0,0.0,0.0,0.0,0.0,0.0,0.0,0.0,0.0,0.0,0.0,0.0,0.0,0.0,0.0,0.0,0.0,0.0,0.0,0.0,0.0,0.0,0.0,0.0,0.0,0.0,0.0,0.0,0.0,0.0,0.0,0.0,0.0,0.0,0.0,0.0,0.0,0.0,0.0,0.0,0.0,0.0,0.0,0.0,0.0,0.0,0.0,0.0,0.0,0.0,0.0,0.0,0.0,0.0,0.0,0.0,0.0,0.0,0.0,0.0,0.0,0.0,0.0,0.0,0.0,0.0,0.0,0.0,0.0,0.0,0.0,0.0,0.0,0.0,0.0,0.0,0.0,0.0,0.0,0.0,0.0,0.0,0.0,0.0,0.0,0.0,0.0,0.0,0.0,0.0,0.0,0.0,0.0,0.0,0.0,0.0,0.0,0.0,0.0,0.0,0.0,0.0,0.0,0.0,0.0,0.0,0.0,0.0,0.0,0.0,0.0,0.0,0.0,0.0,0.0,0.0,0.0,0.0,0.0,0.0,0.0,0.0,0.0,0.0,0.0,0.0,0.0,0.0,0.0,0.0,0.0,0.0,0.0,0.0,0.0,0.0,0.0,0.0,0.0,0.0,0.0,0.0,0.0,0.0,0.0,0.0,0.0,0.0,0.0,0.0,0.0,0.0,0.0,0.0,0.0,0.0,0.0,0.0,0.0,0.0,0.0,0.0,0.0,0.0,0.0,0.0,0.0,0.0,0.0,0.0,0.0,0.0,0.0,0.0,0.0,0.0,0.0,0.0,0.0,0.0,0.0,0.0,0.0,0.0,0.0,0.0,0.0,0.0,0.0,0.0,0.0,0.0,0.0,0.0,0.0,0.0,0.0,0.0,0.0,0.0,0.0,0.0,0.0,0.0,0.0,0.0,0.0,0.0,0.0,0.0,0.0,0.0,0.0,0.0,0.0,0.0,0.0,0.0,0.0,0.0,0.0,0.0,0.0,0.0,0.0,0.0,0.0,0.0,0.0,0.0,0.0,0.0,0.0,0.0,0.0,0.0,0.0,0.0,0.0,0.0,0.0,0.0,0.0,0.0,0.0,0.0,0.0,0.0,0.0,0.0,0.0,0.0,0.0,0.0,0.0,0.0,0.0,0.0,0.0,0.0,0.0,0.0,0.0,0.0,0.0,0.0,0.0,0.0,0.0,0.0,0.0,0.0,0.0,0.0,0.0,0.0,0.0,0.0,0.0,0.0,0.0,0.0,0.0,0.0,0.0,0.0,0.0,0.0,0.0,0.0,0.0,0.0,0.0,0.0,0.0,0.0,0.0,0.0,0.0,0.0,0.0,0.0,0.0,0.0,0.0,0.0,0.0,0.0,0.0,0.0,0.0,0.0,0.0,0.0,0.0,0.0,0.0,0.0,0.0,0.0,0.0,0.0,0.0,0.0,0.0,0.0,0.0,0.0,0.0,0.0,0.0,0.0,0.0,0.0,0.0,0.0,0.0,0.0,0.0,0.0,0.0,0.0,0.0,0.0,0.0,0.0,0.0,0.0,0.0,0.0,0.0,0.0,0.0,0.0,0.0,0.0,0.0,0.0,0.0,0.0,0.0,0.0,0.0,0.0,0.0,0.0,0.0,0.0,0.0,0.0,0.0,0.0,0.0,0.0,0.0,0.0,0.0,0.0,0.0,0.0,0.0,0.0,0.0,0.0,0.0,0.0,0.0,0.0,0.0,0.0,0.0,0.0,0.0,0.0,0.0,0.0,0.0,0.0,0.0,0.0,0.0,0.0,0.0,0.0,0.0,0.0,0.0,0.0,0.0,0.0,0.0,0.0,0.0,0.0,0.0,0.0,0.0,0.0,0.0,0.0,0.0,0.0,0.0,0.0,0.0,0.0,0.0,0.0,0.0,0.0,0.0,0.0,0.0,0.0,0.0,0.0,0.0,0.0,0.0,0.0,0.0,0.0,0.0,0.0,0.0,0.0,0.0,0.0,0.0,0.0,0.0,0.0,0.0,0.0,0.0,0.0,0.0,0.0,0.0,0.0,0.0,0.0,0.0,0.0,0.0,0.0,0.0,0.0,0.0,0.0,0.0,0.0,0.0,0.0,0.0,0.0,0.0,0.0,0.0,0.0,0.0,0.0,0.0,0.0,0.0,0.0,0.0,0.0,0.0,0.0,0.0,0.0,0.0,0.0,0.0,0.0,0.0,0.0,0.0,0.0,0.0,0.0,0.0,0.0,0.0,0.0,0.0,0.0,0.0,0.0,0.0,0.0,0.0,0.0,0.0,0.0,0.0,0.0,0.0,0.0,0.0,0.0,0.0,0.0,0.0,0.0,0.0,0.0,0.0,0.0,0.0,0.0,0.0,0.0,0.0,0.0,0.0,0.0,0.0,0.0,0.0,0.0,0.0,0.0,0.0,0.0,0.0,0.0,0.0,0.0,0.0,0.0,0.0,0.0,0.0,0.0,0.0,0.0,0.0,0.0,0.0,0.0,0.0,0.0,0.0,0.0,0.0,0.0,0.0,0.0,0.0,0.0,0.0,0.0,0.0,0.0,0.0,0.0,0.0,0.0,0.0,0.0,0.0,0.0,0.0,0.0,0.0,0.0,0.0,0.0,0.0,0.0,0.0,0.0,0.0,0.0,0.0,0.0,0.0,0.0,0.0,0.0,0.0,0.0,0.0,0.0,0.0,0.0,0.0,0.0,0.0,0.0,0.0,0.0,0.0,0.0,0.0,0.0,0.0,0.0,0.0,0.0,0.0,0.0,0.0,0.0,0.0,0.0,0.0,0.0,0.0,0.0,0.0,0.0,0.0,0.0,0.0,0.0,0.0,0.0,0.0,0.0,0.0,0.0,0.0,0.0,0.0,0.0,0.0,0.0,0.0,0.0,0.0,0.0,0.0,0.0,0.0,0.0,0.0,0.0,0.0,0.0,0.0,0.0,0.0,0.0,0.0,0.0,0.0,0.0,0.0,0.0,0.0,0.0,0.0,0.0,0.0,0.0,0.0,0.0,0.0,0.0,0.0,0.0,0.0,0.0,0.0,0.0,0.0,0.0,0.0,0.0,0.0,0.0,0.0,0.0,0.0,0.0,0.0,0.0,0.0,0.0,0.0,0.0,0.0,0.0,0.0,0.0,0.0,0.0,0.0,0.0,0.0,0.0,0.0,0.0,0.0,0.0,0.0,0.0,0.0,0.0,0.0,0.0,0.0,0.0,0.0,0.0,0.0,0.0,0.0,0.0,0.0,0.0,0.0,0.0,0.0,0.0,0.0,0.0,0.0,0.0,0.0,0.0,0.0,0.0,0.0,0.0,0.0,0.0,0.0,0.0,0.0,0.0,0.0,0.0,0.0,0.0,0.0,0.0,0.0,0.0,0.0,0.0,0.0,0.0,0.0,0.0,0.0,0.0,0.0,0.0,0.0,0.0,0.0,0.0,0.0,0.0,0.0,0.0,0.0,0.0,0.0,0.0,0.0,0.0,0.0,0.0,0.0,0.0,0.0,0.0,0.0,0.0,0.0,0.0,0.0,0.0,0.0,0.0,0.0,0.0,0.0,0.0,0.0,0.0,0.0,0.0,0.0,0.0,0.0,0.0,0.0,0.0,0.0,0.0,0.0,0.0,0.0,0.0,0.0,0.0,0.0,0.0,0.0,0.0,0.0,0.0,0.0,0.0,0.0,0.0,0.0,0.0,0.0,0.0,0.0,0.0,0.0,0.0,0.0,0.0,0.0,0.0,0.0,0.0,0.0,0.0,0.0,0.0,0.0,0.0,0.0,0.0,0.0,0.0,0.0,0.0,0.0,0.0,0.0,0.0,0.0,0.0,0.0,0.0,0.0,0.0,0.0,0.0,0.0,0.0,0.0,0.0,0.0,0.0,0.0,0.0,0.0,0.0,0.0,0.0,0.0,0.0,0.0,0.0,0.0,0.0,0.0,0.0,0.0,0.0,0.0,0.0,0.0,0.0,0.0,0.0,0.0,0.0,0.0,0.0,0.0,0.0,0.0,0.0,0.0,0.0,0.0,0.0,0.0,0.0,0.0,0.0,0.0,0.0,0.0,0.0,0.0,0.0,0.0,0.0,0.0,0.0,0.0,0.0,0.0,0.0,0.0,0.0,0.0,0.0,0.0,0.0,0.0,0.0,0.0,0.0,0.0,0.0,0.0,0.0,0.0,0.0,0.0,0.0,0.0,0.0,0.0,0.0,0.0,0.0,0.0,0.0,0.0,0.0,0.0,0.0,0.0,0.0,0.0,0.0,0.0,0.0,0.0,0.0,0.0,0.0,0.0,0.0,0.0,0.0,0.0,0.0,0.0,0.0,0.0,0.0,0.0,0.0,0.0,0.0,0.0,0.0,0.0,0.0,0.0,0.0,0.0,0.0,0.0,0.0,0.0,0.0,0.0,0.0,0.0,0.0,0.0,0.0,0.0,0.0,0.0,0.0,0.0,0.0,0.0,0.0,0.0,0.0,0.0,0.0,0.0,0.0,0.0,0.0,0.0,0.0,0.0,0.0,0.0,0.0,0.0,0.0,0.0,0.0,0.0,0.0,0.0,0.0,0.0,0.0,0.0,0.0,0.0,0.0,0.0,0.0,0.0,0.0,0.0,0.0,0.0,0.0,0.0,0.0,0.0,0.0,0.0,0.0,0.0,0.0,0.0,0.0,0.0,0.0,0.0,0.0,0.0,0.0,0.0,0.0,0.0,0.0,0.0,0.0,0.0,0.0,0.0,0.0,0.0,0.0,0.0,0.0,0.0,0.0,0.0,0.0,0.0,0.0,0.0,0.0,0.0,0.0,0.0,0.0,0.0,0.0,0.0,0.0,0.0,0.0,0.0,0.0,0.0,0.0,0.0,0.0,0.0,0.0,0.0,0.0,0.0,0.0,0.0,0.0,0.0,0.0,0.0,0.0,0.0,0.0,0.0,0.0,0.0,0.0,0.0,0.0,0.0,0.0,0.0,0.0,0.0,0.0,0.0,0.0,0.0,0.0,0.0,0.0,0.0,0.0,0.0,0.0,0.0,0.0,0.0,0.0,0.0,0.0,0.0,0.0,0.0,0.0,0.0,0.0,0.0,0.0,0.0,0.0,0.0,0.0,0.0,0.0,0.0,0.0,0.0,0.0,0.0,0.0,0.0,0.0,0.0,0.0,0.0,0.0,0.0,0.0,0.0,0.0,0.0,0.0,0.0,0.0,0.0,0.0,0.0,0.0,0.0,0.0,0.0,0.0,0.0,0.0,0.0,0.0,0.0,0.0,0.0,0.0,0.0,0.0,0.0,0.0,0.0,0.0,0.0,0.5891,0.567,0.0,0.0,0.0,0.0,0.0,0.0,0.0,0.0,0.0,0.0,0.0,0.0,0.0,0.0,0.0,0.0,0.0,0.0,0.0,0.0,0.0,0.0,0.0,0.0,0.0,0.0,0.0,0.0,0.0,0.0,0.0,0.0,0.0,0.0,0.0,0.0,0.0,0.0,-1.1935,-1.1724,-1.1259,-1.2459,-1.2253,-1.0761,0.0,0.0,0.0,0.0,0.0,0.0,0.0,0.0,0.0,0.0,0.0,0.0,0.0,0.0,0.0,0.0,0.0,0.0,0.0,0.0,0.0,0.0,0.0,0.0,0.0,0.0,0.0,0.0,0.0,0.0,0.0,0.0,0.0,0.0,0.0,0.0,0.0,0.0,0.0,0.0,0.0,0.0,0.0,0.0,0.0,0.0,0.0,0.0,0.0,0.0,0.0,0.0,0.0,0.0,0.0,0.0,0.0,0.0,0.0,0.0,0.0,0.0,0.0,0.0,0.0,0.0,0.0,0.0,0.0,0.0,0.5178,0.4984,0.0,0.0,0.0,0.0,0.0,0.0,0.0,0.0,0.0,0.0,0.0,0.0,0.0,0.0,0.0,0.0,0.0,0.0,0.0,0.0,0.0,0.0,0.0,0.0,0.0,0.0,0.0,0.0,0.0,0.0,0.0,0.0,0.0,0.0,0.0,0.0,0.0,-1.1871,-1.2109,-1.2311,-1.2477,-1.4588,-1.4467,-1.2583,-1.231,0.0,0.0,0.0,0.0,0.0,0.0,0.0,0.0,0.0,0.0,0.0,0.0,0.0,0.0,0.0,0.0,0.0,0.0,0.0,0.0,0.0,0.0,0.0,0.0,0.0,0.0,0.0,0.0,0.0,0.0,0.0,0.0,0.0,0.0,0.0,0.0,0.0,0.0,0.0,0.0,0.0,0.0,0.0,0.0,0.0,0.0,0.0,0.0,0.0,0.0,0.0,0.0,0.0,0.0,0.0,0.0,0.0,0.0,0.0,0.0,0.0,0.0,0.0,0.8028,0.7196,0.6179,0.6093,0.5471,0.4448,0.4345,0.3989,0.3447,0.3368,0.0,0.0,0.0,0.0,0.0,0.0,0.0,0.0,0.0,0.0,0.0,0.0,0.0,0.0,0.0,0.0,0.0,0.0,0.0,0.0,0.0,0.0,-1.3238,-1.3732,-1.3815,-1.3815,0.0,0.0,0.0,0.0,0.0,0.0,0.0,-1.2881,-1.2638,-1.2165,-1.2335,-1.26,-1.2962,-1.4888,-1.5736,-1.5673,-1.4603,-1.3814,-1.3207,0.0,0.0,0.0,0.0,0.0,0.0,0.0,0.0,0.0,0.0,0.0,0.0,0.0,0.0,0.0,0.0,0.0,0.0,0.0,0.0,0.0,0.0,0.0,0.0,0.0,0.0,0.0,0.0,0.0,0.0,0.0,0.0,0.0,0.0,0.0,0.0,0.0,0.0,0.0,0.0,0.0,0.549,0.5351,0.0,0.0,0.0,0.0,0.0,0.0,0.0,0.0,0.0,0.0,0.0,0.0,0.0,0.9591,1.0031,0.9147,0.8716,0.8683,0.7648,0.681,0.6179,0.5653,0.513,0.4604,0.3284,0.0,0.2066,0.2307,0.0,0.0,0.0,0.0,0.0,0.0,0.0,0.0,0.0,0.0,0.0,0.0,0.0,0.0,0.0,0.0,0.0,0.0,0.0,0.0,0.0,-1.319,-1.3647,-1.4236,-1.4329,-1.4457,-1.4767,0.0,0.0,0.0,0.0,0.0,-1.342,-1.3065,-1.2681,-1.228,-1.2935,-1.3195,-1.3117,-1.5526,-1.6664,-1.6774,-1.7183,-1.6682,-1.5555,-1.4905,0.0,0.0,0.0,0.0,0.0,0.0,0.0,0.0,0.0,0.0,0.0,0.0,0.0,0.0,0.0,0.0,0.0,0.0,0.0,0.0,0.0,0.0,0.0,0.0,0.0,0.0,0.0,0.0,0.0,0.0,0.0,0.0,0.0,0.0,0.0,0.0,0.0,0.0,0.0,0.6407,0.6665,0.5055,0.5611,0.6136,0.0,0.0,0.0,0.0,0.0,0.0,0.0,0.0,0.0,0.9855,0.9625,0.9488,0.945,0.8656,0.8234,0.8234,0.7105,0.6258,0.5701,0.5188,0.4631,0.4024,0.2893,0.2748,0.3279,0.3269,0.4113,0.54,0.0,0.0,0.0,0.0,0.7764,0.8853,0.0,0.0,0.0,0.0,0.0,0.0,0.0,0.0,0.0,0.0,0.0,0.0,-1.2881,-1.342,-1.405,-1.4663,-1.496,-1.5264,-1.5588,-1.5309,0.0,0.0,0.0,-1.3815,-1.3815,-1.308,-1.2662,-1.2518,-1.3488,-1.3871,-1.3791,-1.6322,-1.7517,-1.7583,-1.9091,-1.9053,-1.7784,-1.7435,-1.6563,-1.5326,0.0,0.0,0.0,0.0,0.0,0.0,0.0,0.0,0.0,0.0,0.0,0.0,0.0,0.0,0.0,0.0,0.0,0.0,0.0,0.0,0.0,0.0,0.0,0.0,0.0,0.0,0.0,0.0,0.0,0.0,0.0,0.0,0.0,0.0,0.0,0.0,0.0,0.675,0.7211,0.539,0.6052,0.6712,0.0,0.0,0.0,0.0,0.0,0.0,1.0379,1.0253,1.004,0.9748,0.9472,0.9138,0.877,0.8182,0.7829,0.7655,0.6683,0.5787,0.5043,0.4757,0.4148,0.3262,0.2898,0.3497,0.4712,0.3979,0.4429,0.5566,0.5358,0.5983,0.6997,0.7126,0.7304,0.7487,0.0,0.0,0.0,0.0,0.0,0.0,0.0,0.0,0.0,0.0,0.0,-1.2881,-1.2881,-1.342,-1.405,-1.4663,-1.5696,-1.6089,-1.5632,-1.6046,-1.5828,-1.4744,-1.4097,-1.3815,-1.3815,-1.2779,-1.2493,-1.3078,-1.374,-1.4564,-1.5498,-1.7252,-1.828,-1.8687,-1.9767,-1.9974,-1.9432,-1.8724,-1.8115,-1.7593,-1.7023,0.0,0.0,0.0,0.0,0.0,0.0,0.0,0.0,0.0,0.0,0.0,0.0,0.0,0.0,0.0,0.0,0.0,0.0,0.0,0.0,0.0,0.0,0.0,0.0,0.0,0.0,0.0,0.0,0.0,0.0,0.0,0.0,0.0,0.0,0.0,0.0,0.0,0.0,0.7179,0.7082,0.0,0.0,0.0,0.0,1.005,1.0176,1.0369,1.0933,1.0494,1.0205,1.0186,0.9244,0.8748,0.8691,0.8185,0.7607,0.7036,0.6465,0.5567,0.443,0.4434,0.3683,0.2492,0.3214,0.4416,0.5631,0.3409,0.3731,0.5584,0.5303,0.5924,0.7039,0.7501,0.7407,0.6893,0.0,0.0,0.0,0.0,0.0,0.0,0.0,0.0,0.0,-1.2968,-1.2881,-1.2881,-1.2881,-1.3789,-1.4468,-1.4698,-1.6089,-1.6912,-1.6714,-1.687,-1.6786,-1.6391,-1.5073,-1.4014,-1.3238,-1.3219,-1.3345,-1.3608,-1.4241,-1.487,-1.557,-1.6608,-1.7477,-1.8235,-1.9336,-1.9904,-2.0043,-2.0073,-1.9647,-1.8891,-1.8252,-1.694,0.0,0.0,0.0,0.0,0.0,0.0,0.0,0.0,0.0,0.0,0.0,0.0,0.0,0.0,0.0,0.0,0.0,0.0,0.0,0.0,0.0,0.0,0.0,0.0,0.0,0.0,0.0,0.0,0.0,0.0,0.0,0.0,0.0,0.0,0.0,0.0,0.0,0.8048,0.8062,0.0,0.894,0.8954,0.9235,1.0138,1.0215,1.0128,0.9973,0.9941,0.9803,0.9499,0.8976,0.8706,0.8706,0.7975,0.7527,0.7295,0.6157,0.5394,0.4957,0.4714,0.4268,0.3727,0.4679,0.5382,0.583,0.498,0.538,0.6418,0.5586,0.5544,0.5927,0.6084,0.6042,0.6161,0.0,0.0,0.0,0.0,0.0,0.0,0.0,0.0,0.0,-1.3286,-1.3017,-1.2881,-1.2881,-1.3978,-1.4698,-1.4698,-1.6464,-1.7504,-1.7312,-1.7463,-1.7504,-1.7312,-1.584,-1.4422,-1.3238,-1.3779,-1.4222,-1.4469,-1.4873,-1.5413,-1.6113,-1.656,-1.7204,-1.8016,-1.8774,-1.9472,-2.0086,-2.0376,-2.0351,-2.0028,-1.943,-1.8375,-1.699,0.0,0.0,0.0,0.0,0.0,0.0,0.0,0.0,0.0,0.0,0.0,0.0,0.0,0.0,0.0,0.0,0.0,0.0,0.0,0.0,0.0,0.0,0.0,0.0,0.0,0.0,0.0,0.0,0.0,0.0,0.0,0.0,0.0,0.0,0.7707,0.8343,0.8655,0.8889,0.9198,0.9606,0.9783,0.9981,1.023,1.0077,0.983,0.9458,0.9435,0.9273,0.8996,0.8638,0.8428,0.8428,0.79,0.7531,0.7334,0.6372,0.58,0.5615,0.5319,0.5051,0.4879,0.5439,0.5788,0.5851,0.5343,0.5867,0.6929,0.6176,0.563,0.53,0.5307,0.602,0.7343,0.0,0.0,0.0,0.0,0.0,0.0,0.0,0.0,-1.4468,-1.3862,-1.3286,-1.2881,-1.2881,-1.3978,-1.4698,-1.4698,-1.6789,-1.7867,-1.7353,-1.7787,-1.7827,-1.7271,-1.6188,-1.5039,-1.3862,-1.4422,-1.5017,-1.5588,-1.5632,-1.6188,-1.7271,-1.7284,-1.7571,-1.8094,-1.8108,-1.8691,-1.9595,-1.959,-2.0139,-2.099,-2.0499,-1.9637,-1.8611,0.0,0.0,0.0,0.0,0.0,0.0,0.0,0.0,0.0,0.0,0.0,0.0,0.0,0.0,0.0,0.0,0.0,0.0,0.0,0.0,0.0,0.0,0.0,0.0,0.0,0.0,0.0,0.0,0.0,0.0,0.0,0.0,0.0,0.7711,0.7494,0.7841,0.9089,0.9502,0.9868,1.0257,1.0463,1.0463,1.0285,0.9769,0.9466,0.9466,0.8982,0.867,0.867,0.818,0.7908,0.7908,0.7902,0.765,0.7158,0.7098,0.6798,0.6207,0.6207,0.6039,0.5733,0.5489,0.5584,0.5813,0.4307,0.5012,0.7004,0.6997,0.6308,0.536,0.5438,0.7515,1.0456,0.0,0.0,0.0,0.0,0.0,0.0,0.0,-1.5107,-1.4468,-1.3862,-1.3286,-1.2881,-1.2881,-1.3978,-1.4698,-1.4698,-1.6434,-1.7463,-1.7312,-1.7422,-1.7079,-1.6102,-1.5752,-1.5231,-1.4468,-1.505,-1.541,-1.5588,-1.6051,-1.6411,-1.6723,-1.7155,-1.764,-1.8198,-1.8568,-1.9141,-1.9738,-1.974,-2.0324,-2.1279,-2.0942,-2.0218,-1.9258,0.0,0.0,0.0,0.0,0.0,0.0,0.0,0.0,0.0,0.0,0.0,0.0,0.0,0.0,0.0,0.0,0.0,0.0,0.0,0.0,0.0,0.0,0.0,0.0,0.0,0.0,0.0,0.0,0.0,0.0,0.0,0.6961,0.7164,0.7909,0.8377,0.8983,0.9809,0.9682,0.9747,1.0198,0.9989,0.9603,0.919,0.9013,0.8741,0.8334,0.8414,0.849,0.849,0.8508,0.8564,0.8564,0.8357,0.82,0.8045,0.7388,0.6996,0.6846,0.6846,0.665,0.6329,0.6766,0.685,0.6679,0.624,0.6422,0.7018,0.6994,0.6827,0.6709,0.8316,0.9529,1.0549,0.0,0.0,0.0,0.0,0.0,0.0,0.0,-1.5242,-1.456,-1.4236,-1.342,-1.2881,-1.2881,-1.3978,-1.4698,-1.4698,-1.6529,-1.7589,-1.7325,-1.7312,-1.6901,-1.5999,-1.5985,-1.5796,-1.5407,-1.5796,-1.5964,-1.5964,-1.6573,-1.6886,-1.6886,-1.7463,-1.7898,-1.8216,-1.8737,-1.93,-1.9826,-2.0027,-2.063,-2.1449,-2.1801,-2.1559,-2.0947,-2.0062,-1.9538,-1.9139,-1.8236,-1.7183,-1.6149,-1.5934,0.0,0.0,0.0,0.0,0.0,0.0,0.0,0.0,0.0,0.0,0.0,0.0,0.0,0.0,0.0,0.0,0.0,0.0,0.0,0.0,0.0,0.0,0.0,0.0,0.6691,0.6806,0.739,0.7838,0.8351,0.9062,0.9188,0.9298,0.9557,0.9596,0.9384,0.8771,0.8721,0.863,0.8297,0.8464,0.8557,0.8557,0.8717,0.8804,0.8804,0.8644,0.8557,0.8557,0.8068,0.7835,0.7835,0.7835,0.761,0.7334,0.786,0.7815,0.7359,0.7109,0.6993,0.7007,0.0,0.0,0.0,0.0,1.0575,1.1132,0.0,0.0,0.0,0.0,0.0,0.0,0.0,-1.5478,-1.4652,-1.4606,-1.361,-1.2881,-1.2774,-1.392,-1.4698,-1.4698,-1.6796,-1.7895,-1.7424,-1.7319,-1.7102,-1.6618,-1.6683,-1.6633,-1.65,-1.6633,-1.6672,-1.6609,-1.7187,-1.7476,-1.7488,-1.8103,-1.838,-1.8417,-1.9032,-1.956,-2.0051,-2.0566,-2.1107,-2.1719,-2.2772,-2.313,-2.2885,-2.1895,-2.145,-2.1295,-2.0581,-1.9612,-1.8614,-1.8148,0.0,0.0,0.0,0.0,0.0,0.0,0.0,0.0,0.0,0.0,0.0,0.0,0.0,0.0,0.0,0.0,0.0,0.0,0.0,0.0,0.0,0.0,0.0,0.0,0.6091,0.6475,0.6475,0.6445,0.6668,0.7456,0.8119,0.8488,0.8533,0.912,0.9232,0.8586,0.8566,0.8639,0.8745,0.8745,0.0,0.0,0.0,0.8858,0.8858,0.8824,0.8804,0.8804,0.8804,0.8804,0.8804,0.8804,0.8664,0.8474,0.871,0.8518,0.793,0.7263,0.7012,0.7036,0.7259,0.7361,0.7617,0.9594,1.0994,1.2003,0.0,0.0,0.0,0.0,0.0,0.0,0.0,-1.5478,-1.4503,-1.395,-1.3304,-1.2666,-1.208,-1.3606,-1.4698,-1.4698,-1.6475,-1.7695,-1.8037,-1.7631,-1.7541,-1.7862,-1.7881,-1.7668,-1.7227,-1.7656,-1.7664,-1.7212,-1.7777,-1.8053,-1.8066,-1.9045,-1.9497,-1.9547,-2.0564,-2.1066,-2.1192,-2.1744,-2.2052,-2.2285,-2.2978,-2.2929,-2.2415,-2.2793,-2.2483,-2.1795,-2.1257,-2.0547,-1.9821,-1.9388,-1.8711,-1.7904,-1.7005,-1.6238,0.0,0.0,0.0,0.0,0.0,0.0,0.0,0.0,0.0,0.0,0.0,0.0,0.0,0.0,0.0,0.0,0.0,0.0,0.0,0.6312,0.5982,0.5706,0.5706,0.5346,0.5502,0.6663,0.6902,0.7015,0.702,0.729,0.7318,0.7036,0.7191,0.7577,0.8263,0.8318,0.8701,0.9506,0.9285,0.9103,0.9103,0.8925,0.8804,0.8804,0.8804,0.0,0.8804,0.8804,0.8778,0.8724,0.8783,0.8733,0.8544,0.7468,0.6988,0.7188,0.8962,0.9654,0.9695,1.0123,1.1325,1.2854,0.0,0.0,0.0,0.0,0.0,0.0,0.0,-1.5478,-1.4638,-1.4519,-1.359,-1.2851,-1.2676,-1.3894,-1.4698,-1.4698,-1.6351,-1.7614,-1.8166,-1.7953,-1.8041,-1.8593,-1.8355,-1.8204,-1.8204,-1.8204,-1.8078,-1.779,-1.8606,-1.9007,-1.9032,-2.0125,-2.079,-2.1104,-2.1933,-2.2472,-2.2786,-2.3339,-2.3571,-2.3675,-2.4334,-2.4039,-2.3146,-2.323,-2.3389,-2.3378,-2.2102,-2.1523,-2.1291,-2.0674,-2.0235,-1.989,-1.9266,-1.864,-1.7906,0.0,0.0,0.0,0.0,0.0,0.0,0.0,0.0,0.0,0.0,0.0,0.0,0.0,0.0,0.1782,0.4082,0.0,0.5148,0.5486,0.5216,0.5038,0.5154,0.4935,0.51,0.6108,0.6285,0.6459,0.68,0.6952,0.6972,0.6867,0.6957,0.7191,0.7602,0.7659,0.7833,0.8293,0.8452,0.8546,0.8469,0.8658,0.8804,0.8804,0.8804,0.8804,0.8804,0.8804,0.8804,0.8804,0.8804,0.8823,0.8725,0.7498,0.6985,0.7223,0.9449,1.0307,1.0315,1.0303,1.1417,1.3092,0.0,0.0,0.0,0.0,0.0,0.0,0.0,0.0,0.0,-1.4975,-1.3779,-1.2959,-1.3128,-1.3999,-1.464,-1.5017,-1.6353,-1.7551,-1.8468,-1.8261,-1.8497,-1.9321,-1.8807,-1.8681,-1.897,-1.8694,-1.8518,-1.8518,-1.9497,-2.0075,-2.0313,-2.133,-2.2108,-2.2673,-2.3326,-2.3866,-2.4356,-2.5021,-2.5172,-2.5036,-2.5729,-2.5315,-2.4257,-2.3597,-2.3953,-2.45,-2.2853,-2.2338,-2.2378,-2.1725,-2.1456,-2.1351,-2.1134,-2.065,-1.998,-1.8836,-1.7934,0.0,0.0,0.0,0.0,0.0,0.0,0.0,0.0,-0.4873,-0.3217,-0.273,-0.1249,0.0682,0.3147,0.3859,0.4042,0.4042,0.4068,0.4203,0.4532,0.4748,0.5098,0.5644,0.5787,0.5992,0.6588,0.6717,0.6731,0.6653,0.6722,0.6806,0.6945,0.6945,0.7002,0.7105,0.7575,0.7858,0.7891,0.8444,0.8784,0.8891,0.8891,0.8864,0.8804,0.8804,0.8804,0.8804,0.8803,0.868,0.8358,0.7384,0.6999,0.7208,0.9443,1.0524,1.0818,1.0804,1.1683,1.3054,0.0,0.0,0.0,0.0,0.0,0.0,0.0,0.0,0.0,-1.3967,-1.3286,-1.2686,-1.2085,-1.3112,-1.454,-1.6044,-1.6326,-1.7327,-1.9471,-1.858,-1.8724,-2.0426,-1.9936,-1.9434,-1.8983,-1.9422,-1.9623,-1.9623,-2.0263,-2.1079,-2.2046,-2.2661,-2.3251,-2.3853,-2.487,-2.536,-2.5485,-2.6553,-2.6427,-2.5548,-2.6198,-2.5871,-2.4906,-2.4262,-2.3752,-2.3413,-2.3207,-2.2687,-2.2075,-2.216,-2.2192,-2.211,-2.1739,-2.1657,-2.1405,-1.9933,-1.9108,-1.8345,-1.7002,-1.3763,-1.0763,-1.0802,-0.8863,-0.7254,0.0,-0.6444,-0.4515,-0.429,-0.2191,-0.0182,0.0426,0.1586,0.2446,0.2446,0.2453,0.2727,0.3622,0.4643,0.5369,0.5403,0.5212,0.5039,0.5157,0.541,0.5456,0.5179,0.5414,0.583,0.6425,0.6479,0.6921,0.7845,0.7653,0.7905,0.8667,0.8504,0.8687,0.9137,0.926,0.9126,0.8804,0.8804,0.8804,0.8791,0.882,0.8213,0.7189,0.7062,0.6991,0.7225,0.9452,1.1259,1.2594,1.2589,1.2741,1.2936,0.0,0.0,0.0,0.0,0.0,0.0,0.0,0.0,0.0,0.0,-1.4492,-1.3591,-1.3185,-1.3549,-1.4327,-1.5656,-1.6047,-1.6885,-1.8365,-1.8756,-1.9222,-1.9897,-2.02,-2.0037,-1.9497,-2.0024,-2.03,-2.03,-2.1518,-2.251,-2.3314,-2.4167,-2.5046,-2.5925,-2.6377,-2.6753,-2.7092,-2.7557,-2.7494,-2.7055,-2.6967,-2.6519,-2.5846,-2.4879,-2.4035,-2.322,-2.2933,-2.3076,0.0,-2.2244,-2.2143,-2.2274,-2.1825,-2.1721,-2.1579,-2.0627,-2.0189,-1.9434,-1.668,-1.3354,-1.0573,-1.0269,-0.8553,-0.7131,-0.7555,-0.6608,-0.5509,-0.5115,-0.3124,-0.113,-0.0189,0.0511,0.0905,0.0908,0.0922,0.1074,0.1443,0.4057,0.5867,0.5686,0.5521,0.5386,0.5225,0.5333,0.5424,0.5511,0.5549,0.5724,0.6067,0.5974,0.6109,0.647,0.6667,0.7126,0.7908,0.8232,0.8777,0.9492,0.92,0.9055,0.9051,0.8884,0.8804,0.8791,0.8792,0.8541,0.8067,0.8056,0.807,0.8299,1.0833,1.2241,1.2924,1.2924,1.2904,1.2884,0.0,0.0,0.0,0.0,0.0,0.0,0.0,0.0,0.0,0.0,0.0,0.0,0.0,-1.408,-1.4424,-1.4869,-1.5659,-1.6484,-1.7332,-1.8594,-1.9415,-1.9657,-2.0483,-2.0702,-2.0275,-2.0677,-2.1041,-2.1343,-2.2548,-2.3665,-2.4695,-2.5473,-2.644,-2.7519,-2.767,-2.7959,-2.8348,-2.8499,-2.8473,-2.8298,-2.7896,-2.7218,-2.637,-2.5473,-2.4437,-2.349,-2.2958,-2.3024,-2.3193,-2.228,-2.199,-2.1946,-2.1736,-2.1697,-2.1568,-2.0979,-2.0194,-1.8936,-1.585,-1.2907,-1.0536,-0.9805,-0.8329,-0.7065,-0.6969,-0.6538,-0.5951,-0.5463,-0.4206,-0.2863,-0.1951,-0.0816,0.0,0.0,0.0,0.0,0.0,0.3611,0.6204,0.5967,0.5947,0.5845,0.5558,0.552,0.5627,0.5953,0.5913,0.5847,0.5875,0.5667,0.5538,0.543,0.5788,0.6325,0.7106,0.7767,0.8486,0.9311,0.9273,0.9205,0.9057,0.8905,0.8804,0.8798,0.8817,0.8786,0.8823,0.8827,0.8781,0.9054,1.184,1.2918,1.2909,1.2879,1.2924,1.2997,0.0,0.0,0.0,0.0,0.0,0.0,0.0,0.0,0.0,0.0,0.0,0.0,0.0,-1.456,-1.488,-1.3926,-1.5165,-1.6276,-1.6957,-1.7968,-1.9069,-2.0318,-2.105,-2.1455,-2.1443,-2.1455,-2.1995,-2.3002,-2.3053,-2.4255,-2.6445,-2.6483,-2.703,-2.8109,-2.8637,-2.8888,-2.8938,-2.9503,-2.9415,-2.89,-2.8888,-2.7908,-2.6458,-2.5841,-2.5012,-2.4199,-2.3638,-2.2348,-2.1101,-2.2283,-2.1843,-2.0951,-2.1517,-2.1697,-2.1568,-2.0979,-1.8766,-1.6224,-1.4921,-1.2671,-1.0539,-1.0006,-0.8473,-0.7074,-0.707,-0.6425,-0.5758,-0.5486,-0.5561,-0.5808,-0.6057,-0.274,0.0,0.0,0.0,0.0,0.0,0.3632,0.6298,0.6261,0.6315,0.6129,0.5789,0.5822,0.5821,0.5813,0.6089,0.6187,0.6032,0.5741,0.5589,0.5583,0.55,0.587,0.6702,0.7012,0.7487,0.8282,0.9805,0.9911,0.8824,0.8811,0.8804,0.8804,0.8798,0.8791,0.8791,0.8791,0.8822,0.9057,1.1855,1.2915,1.2919,1.291,1.292,1.325,0.0,0.0,0.0,0.0,0.0,0.0,0.0,0.0,0.0,0.0,0.0,0.0,0.0,0.0,0.0,0.0,-1.594,-1.6256,-1.7059,-1.7761,-1.8599,-1.9526,-2.057,-2.1259,-2.1493,-2.2209,-2.2761,-2.3078,-2.4619,-2.5912,-2.7017,-2.7758,-2.8499,-2.9239,-2.9415,-2.9503,-2.9515,-2.9704,-2.9679,-2.944,-2.8687,-2.8047,-2.7331,-2.531,-2.4128,-2.3372,0.0,-2.2142,-2.2014,-2.1582,-2.1137,-2.0664,-1.9915,-1.971,-1.9556,-1.8891,-1.7389,-1.5802,-1.4769,-1.2848,-1.0816,-0.946,-0.7873,-0.6626,-0.6703,-0.6395,-0.6132,-0.6211,-0.5819,-0.558,-0.5698,-0.2557,0.0,0.0,0.0,0.0,0.0,0.1241,0.3175,0.595,0.6304,0.5129,0.2218,0.4483,0.616,0.6115,0.6242,0.6201,0.6036,0.5813,0.5688,0.5593,0.544,0.5885,0.6929,0.6306,0.7084,0.9193,0.9714,0.9576,0.8804,0.8804,0.8804,0.8804,0.8804,0.8804,0.8804,0.8804,0.8797,0.8916,0.9828,1.131,1.2899,1.2909,1.29,1.3017,0.0,0.0,0.0,0.0,0.0,0.0,0.0,0.0,0.0,0.0,0.0,0.0,0.0,0.0,0.0,0.0,0.0,-1.6624,-1.6753,-1.7621,-1.8273,-1.8489,-1.997,-2.0887,-2.1075,-2.2056,-2.2736,-2.3078,-2.477,-2.6063,-2.7017,-2.8122,-2.8938,-2.949,-2.9691,-2.9792,-2.9792,-2.9792,-2.9553,-2.9126,-2.8398,-2.7745,-2.6992,-2.5034,-2.3803,0.0,-2.2129,-2.1904,-2.1867,-2.1093,-2.0484,-1.9914,-1.898,-1.8317,-1.7786,-1.7119,-1.6059,-1.4872,-1.3785,-1.2068,-1.033,-0.8886,-0.745,-0.6468,-0.6552,-0.6468,-0.6417,-0.6519,-0.5988,-0.5551,-0.5399,-0.3308,-0.1224,-0.014,0.0,0.0,0.0,0.0,0.0995,0.3695,0.4031,0.2953,0.0233,0.2444,0.4667,0.619,0.6278,0.623,0.6118,0.5915,0.5759,0.5671,0.5467,0.5756,0.6474,0.5796,0.6245,0.7838,0.8865,0.9159,0.8791,0.8791,0.8778,0.8804,0.8804,0.8804,0.8804,0.8804,0.8817,0.8808,0.882,0.9885,1.1486,1.1991,1.2045,1.2092,0.0,0.0,0.0,0.0,0.0,0.0,0.0,0.0,0.0,0.0,0.0,0.0,0.0,0.0,0.0,0.0,0.0,0.0,-1.6073,-1.7511,-1.8096,-1.7445,-1.9252,-2.032,-2.0344,-2.108,-2.1981,-2.2982,-2.3654,-2.4741,-2.6358,-2.7363,-2.815,-2.8675,-2.9212,-2.9474,-2.9499,-2.9499,-2.8887,-2.79,-2.7949,-2.6972,-2.5457,-2.4893,-2.4067,-2.3002,-2.2472,-2.1594,-2.0668,-2.0719,-1.9861,-1.8672,-1.8607,-1.759,-1.6311,-1.5858,-1.4817,-1.349,-1.2115,-1.0634,-0.9316,-0.8374,-0.74,-0.6622,-0.6625,-0.6632,-0.6642,-0.6399,-0.6,-0.5718,-0.5485,-0.4905,-0.3543,-0.0562,-0.007,0.0,0.0,0.0,0.0,0.0,0.0,0.0,0.0,0.0,0.1682,0.5646,0.62,0.6271,0.6328,0.5966,0.58,0.5789,0.5511,0.5428,0.5428,0.5355,0.5071,0.4511,0.7301,0.8568,0.8558,0.8738,0.8818,0.8804,0.8804,0.8804,0.8804,0.8633,0.8692,0.8798,0.8802,0.8806,0.8961,1.0273,1.0519,1.0563,0.0,0.0,0.0,0.0,0.0,0.0,0.0,0.0,0.0,0.0,0.0,0.0,0.0,0.0,0.0,0.0,0.0,0.0,-1.7224,-1.7424,-1.7467,-1.7387,-1.8202,-1.905,-2.0015,-2.065,-2.1283,-2.1858,-2.2817,-2.3513,-2.398,-2.4634,-2.5069,-2.5198,-2.5339,-2.5534,-2.5884,-2.5884,-2.5646,-2.5452,-2.5696,-2.5344,-2.4529,-2.3816,-2.3328,-2.2952,-2.2046,-2.1099,-2.031,-2.0378,-1.9541,-1.843,-1.7564,-1.6899,-1.6211,-1.5308,-1.4497,-1.3865,-1.3512,-1.2037,-1.0482,-1.0215,-0.8543,-0.6905,-0.6688,-0.6863,-0.691,-0.6639,-0.605,-0.5487,-0.5439,-0.5292,-0.4364,-0.2014,-0.0743,0.0,0.0,0.0,0.0,0.0,0.0,0.0,0.0,0.0,0.0471,0.1524,0.4513,0.6314,0.6266,0.6215,0.5973,0.5504,0.5457,0.5428,0.5428,0.4932,0.4667,0.4497,0.5258,0.5608,0.5659,0.7842,0.8818,0.8804,0.8804,0.8804,0.8633,0.6473,0.6866,0.8811,0.8778,0.881,0.8916,0.9961,1.0297,1.0319,0.0,0.0,0.0,0.0,0.0,0.0,0.0,0.0,0.0,0.0,0.0,0.0,0.0,0.0,0.0,0.0,0.0,0.0,0.0,-1.7622,-1.7263,-1.7043,-1.7238,-1.7669,-1.8403,-1.9248,-1.9823,-2.0104,-2.1212,-2.1754,-2.1831,-2.2617,-2.3085,-2.3219,-2.3518,-2.3822,-2.4215,-2.4215,-2.3954,0.0,0.0,-2.3362,-2.2659,-2.2186,-2.2249,-2.2421,-2.1452,-2.0633,-2.0064,-2.0001,-1.9347,-1.8392,-1.7586,-1.6652,-1.5754,-1.5281,-1.4418,-1.3558,-1.3074,-1.2154,-1.1101,-1.0316,-0.8645,-0.7097,-0.6932,-0.6963,-0.7038,-0.6929,-0.6315,-0.5703,-0.5466,-0.5425,-0.5035,-0.3783,-0.1577,-0.062,-0.2523,-0.1168,0.0,0.0,0.0,0.0,0.0,0.0,0.0,0.0,0.2223,0.4363,0.6162,0.632,0.6076,0.5557,0.5477,0.5367,0.5431,0.5064,0.4779,0.4507,0.4522,0.4473,0.4581,0.7478,0.8457,0.783,0.7859,0.7859,0.7717,0.6075,0.6012,0.6956,0.7343,0.7806,0.8279,0.8876,0.9287,0.9666,0.0,0.0,0.0,0.0,0.0,0.0,0.0,0.0,0.0,0.0,0.0,0.0,0.0,0.0,0.0,0.0,0.0,0.0,0.0,0.0,0.0,-1.6539,-1.6492,-1.6457,-1.6472,-1.7474,-1.8071,-1.8264,-1.9094,-1.9554,-1.9678,-2.0677,-2.1318,-2.1655,-2.216,-2.2666,-2.3122,-2.3122,-2.2603,-2.1751,-2.182,-2.1341,-2.0462,0.0,0.0,-2.1815,-2.091,-2.027,-1.985,-1.9831,-1.9349,-1.8701,-1.8133,-1.6866,-1.5577,-1.5522,-1.4506,-1.322,-1.2308,-1.2094,-1.1742,-1.0234,-0.8901,-0.7853,-0.725,-0.699,-0.6972,-0.7434,-0.6919,-0.6118,-0.559,-0.545,-0.5394,-0.5374,-0.2384,-0.1517,-0.5825,-0.2685,0.0,0.0,0.0,0.0,0.0,0.0,0.0,0.0,0.0,0.1566,0.526,0.5949,0.6075,0.5734,0.5518,0.5373,0.5428,0.5339,0.506,0.4608,0.4528,0.4485,0.4604,0.709,0.7649,0.6583,0.6421,0.6313,0.6298,0.6303,0.5675,0.4765,0.5558,0.6445,0.7326,0.7503,0.7943,0.858,0.0,0.0,0.0,0.0,0.0,0.0,0.0,0.0,0.0,0.0,-2.0376,-1.9798,0.0,0.0,0.0,0.0,0.0,0.0,0.0,0.0,0.0,0.0,-1.6492,-1.6382,-1.6178,-1.6367,-1.6658,-1.7039,-1.7189,-1.7259,-1.7259,-1.7473,-1.7594,-1.7664,-1.7809,-1.8294,-1.9051,-1.9051,-1.9103,-1.9284,-2.0027,-1.9974,-1.9628,-2.0333,0.0,0.0,-2.091,-2.0064,-1.9458,-1.9753,-2.0048,-1.9916,-1.8346,-1.7861,-1.7443,-1.5662,-1.4695,-1.421,-1.4031,-1.3835,-1.3646,-1.3332,-1.3031,-1.1838,-0.7967,-0.6407,-0.6502,-0.9416,-0.8005,-0.6207,-0.5778,-0.5519,-0.5402,-0.5363,-0.2352,-0.1623,-0.6341,-0.295,0.0,0.0,0.0,0.0,0.0,0.0,0.0,0.0,0.0,0.0314,0.1017,0.3893,0.5542,0.544,0.54,0.5415,0.5418,0.4919,0.4832,0.5268,0.4733,0.448,0.4535,0.5033,0.5747,0.6529,0.5375,0.4869,0.4877,0.4845,0.5179,0.5671,0.5584,0.6032,0.6745,0.6804,0.6858,0.6988,0.0,0.0,0.0,0.0,0.0,0.0,0.0,-2.1493,-2.1493,-2.1493,-2.1016,-2.0577,-2.0288,-1.9987,-1.9924,0.0,0.0,0.0,0.0,0.0,0.0,0.0,0.0,0.0,-1.5782,-1.6007,-1.6172,-1.6387,0.0,-1.6611,-1.6387,-1.6387,-1.6387,-1.6387,-1.6387,-1.6738,-1.7363,-1.7588,-1.7803,-1.7998,-1.8682,-1.8778,-1.8654,0.0,0.0,0.0,-1.9879,-1.9512,-1.8923,-1.8912,-1.963,-2.0479,-1.976,-1.9481,-1.8974,-1.7,-1.6205,-1.5696,-1.4818,-1.4353,-1.4073,-1.4083,-1.4082,-1.3328,-1.0498,-0.8913,-0.873,-1.0989,-0.8697,-0.619,-0.5669,-0.5504,-0.539,-0.543,-0.4449,-0.4389,-0.644,-0.2786,-0.0895,-0.3432,-0.1508,0.0,0.0,0.0,0.0,0.0,0.0,0.0,0.0,0.1684,0.2595,0.2564,0.4452,0.54,0.5389,0.5101,0.4944,0.4911,0.478,0.4656,0.4485,0.4849,0.5202,0.5496,0.5186,0.4798,0.4477,0.4488,0.4769,0.5156,0.5054,0.5382,0.6036,0.6036,0.6258,0.6573,0.0,0.0,0.0,0.0,0.0,0.0,0.0,-2.1845,-2.1845,-2.1845,-2.1732,-2.1493,-2.1066,-2.0514,-2.0351,0.0,0.0,0.0,0.0,0.0,0.0,0.0,0.0,0.0,-1.583,0.0,0.0,-1.6125,-1.6514,0.0,0.0,0.0,0.0,0.0,-1.5957,-1.6172,-1.6621,-1.7061,-1.7305,0.0,0.0,-1.8008,-1.8008,0.0,0.0,0.0,0.0,-1.8965,-1.8431,-1.8368,-1.8825,-1.9695,-2.0977,-2.0806,-1.9871,-1.8549,-1.7502,-1.6448,-1.5239,-1.4552,-1.4077,-1.4069,-1.4313,-1.417,-1.2969,-1.16,-1.0831,-1.1753,-0.8907,-0.613,-0.5653,-0.5472,-0.5405,-0.539,-0.6153,-0.6553,-0.6199,-0.3485,-0.2921,-0.6661,-0.3684,-0.1409,-0.1517,-0.0563,0.0,0.0,0.0,0.0,0.0,0.0,0.0,0.0,0.2745,0.4264,0.4244,0.4228,0.4411,0.467,0.4748,0.4723,0.4663,0.5091,0.5005,0.4563,0.5073,0.5003,0.4519,0.4519,0.4519,0.4519,0.4519,0.4842,0.5273,0.5273,0.566,0.6154,0.0,0.0,0.0,0.0,0.0,0.0,0.0,-2.2927,-2.2927,-2.2927,-2.2548,-2.2221,-2.2171,-2.1669,-2.1355,0.0,0.0,0.0,0.0,0.0,0.0,0.0,0.0,0.0,0.0,0.0,0.0,-1.6125,-1.6514,0.0,0.0,0.0,0.0,0.0,0.0,-1.5713,-1.6152,-1.6602,0.0,0.0,0.0,0.0,0.0,0.0,0.0,0.0,0.0,-1.8785,-1.8238,-1.9199,-1.7818,-1.6387,-2.0528,-2.0985,-1.9877,-1.9436,-1.7424,-1.5382,-1.5639,-1.4957,-1.4059,-1.4071,-1.4858,-1.534,-1.4173,-1.2211,-1.0664,-1.0704,-0.8383,-0.626,-0.6252,-0.5798,-0.5375,-0.5412,-0.5509,-0.553,-0.5454,-0.6081,-0.6644,-0.7021,-0.6309,-0.5917,-0.6399,-0.2545,0.0,0.0,0.0,0.0,0.0,0.0,0.0,0.0,0.0346,0.047,0.0467,0.0467,0.2131,0.5328,0.4816,0.4741,0.5011,0.4743,0.4616,0.4663,0.4633,0.457,0.4519,0.4519,0.4519,0.4519,0.4519,0.4519,0.4574,0.4584,0.4643,0.468,0.0,0.0,0.0,0.0,0.0,0.0,-2.299,-2.3078,-2.3078,-2.3078,-2.2877,-2.2811,-2.2811,-2.2611,-2.2347,-2.202,0.0,0.0,0.0,0.0,0.0,0.0,0.0,0.0,0.0,0.0,-1.7133,-1.6855,-1.7041,0.0,0.0,0.0,0.0,0.0,0.0,-1.6045,-1.6475,-1.665,0.0,0.0,0.0,0.0,0.0,0.0,0.0,0.0,0.0,0.0,-1.7973,-1.7639,-1.7269,-1.6836,-1.6312,-1.5777,-1.5708,-1.7661,-1.8033,-1.7514,-1.6125,-1.5484,-1.5166,-1.5166,-1.5425,-1.5524,-1.4377,-1.2267,-1.0566,-1.0609,-0.8036,-0.5748,-0.5737,-0.5576,-0.5368,-0.5391,-0.5424,-0.5393,-0.5375,-0.3885,-0.3884,-0.677,-0.6932,-0.6699,-0.6656,-0.2602,0.0,0.0,0.0,0.0,0.0,0.0,0.0,0.0,0.0,0.0,0.0,0.0,0.073,0.2158,0.1938,0.2354,0.3375,0.4287,0.468,0.4588,0.4521,0.4498,0.4473,0.4473,0.4525,0.4519,0.4525,0.4473,0.4473,0.4477,0.3913,0.3121,0.0,0.0,0.0,0.0,0.0,-2.2686,-2.3015,-2.3078,-2.3078,-2.3078,-2.3078,-2.3078,-2.3078,-2.3078,-2.2975,-2.2585,-2.256,0.0,0.0,0.0,0.0,0.0,0.0,0.0,0.0,0.0,-1.7691,-1.7383,-1.751,-1.7568,0.0,0.0,-1.7217,-1.6904,0.0,0.0,0.0,0.0,0.0,0.0,0.0,0.0,0.0,0.0,0.0,0.0,0.0,0.0,0.0,0.0,0.0,-1.5823,-1.317,-1.2529,-1.326,-1.5323,-1.7048,-1.8032,-1.626,-1.5846,-1.5832,-1.5832,-1.5798,-1.5447,-1.3884,-1.2253,-1.1077,-1.1131,-0.914,-0.6991,-0.5667,-0.5411,-0.5398,-0.5386,-0.542,-0.5463,-0.5635,-0.3452,-0.3016,-0.6182,-0.6891,-0.6912,-0.6542,-0.3812,-0.2103,-0.211,-0.0809,0.0,0.0,-0.1176,-0.1319,-0.0076,0.0,0.0,0.0,0.0,0.0,0.0,0.0,0.0519,0.1576,0.2882,0.3645,0.3934,0.3851,0.4062,0.4488,0.4504,0.4307,0.407,0.4366,0.4484,0.448,0.4487,0.3811,0.2627,0.0,0.0,0.0,0.0,0.0,0.0,-2.3078,-2.3078,-2.3078,-2.3078,-2.3078,-2.3078,-2.3078,-2.3078,-2.3078,-2.3065,-2.3065,0.0,0.0,0.0,0.0,0.0,0.0,0.0,0.0,0.0,-1.7383,-1.7383,-1.7803,-1.8008,-1.7998,-1.7578,-1.7383,-1.7363,0.0,0.0,0.0,0.0,0.0,0.0,0.0,0.0,0.0,0.0,0.0,0.0,0.0,0.0,0.0,0.0,0.0,0.0,0.0,-1.3105,-1.383,-1.2667,-1.4011,-1.581,-1.5812,-1.5791,-1.5832,-1.5832,-1.5798,-1.5161,-1.2858,-1.2331,-1.2251,-1.2312,-1.2214,-1.0798,-0.6249,-0.5415,-0.5398,-0.5386,-0.542,-0.5577,-0.6187,-0.6235,-0.5999,-0.55,-0.6404,-0.7123,-0.713,-0.7083,-0.7033,-0.7038,-0.2668,0.0,0.0,-0.3988,-0.4344,-0.0152,0.0,0.0,0.0,0.0,0.0,0.0,0.0,0.0,0.0,0.0065,0.1028,0.269,0.235,0.3112,0.4471,0.4498,0.3919,0.3121,0.4092,0.449,0.4484,0.4504,0.4514,0.3599,0.0,0.0,0.0,0.0,0.0,0.0,0.0,-2.3078,-2.3078,-2.3078,-2.3078,-2.3078,-2.3078,-2.3078,-2.3078,-2.3078,-2.3078,0.0,0.0,0.0,0.0,0.0,0.0,0.0,0.0,0.0,-1.8384,-1.7812,-1.7949,-1.8008,-1.8008,-1.7871,-1.7812,-1.7793,-1.7363,-1.7334,0.0,0.0,0.0,0.0,0.0,0.0,-1.8838,0.0,0.0,0.0,0.0,0.0,0.0,0.0,0.0,0.0,0.0,0.0,0.0,-1.2382,-1.3669,-1.5339,-1.5667,-1.5814,-1.5834,-1.5834,-1.5789,-1.5167,-1.2857,-1.2303,-1.2276,-1.2278,-1.2298,-1.1041,-0.6798,-0.5681,-0.5434,-0.5399,-0.5428,-0.5606,-0.6248,-0.5979,-0.5761,-0.6009,-0.6292,-0.6685,-0.709,-0.7104,-0.7093,-0.7102,-0.5388,-0.4315,-0.4314,-0.5575,-0.5678,-0.4324,-0.1499,0.0,0.0,0.0,0.0,0.0,0.0,0.0,0.0,0.0,0.0329,0.0836,0.074,0.0958,0.1581,0.3645,0.3702,0.2565,0.3987,0.4507,0.4274,0.2178,0.0112,-0.1789,0.0,0.0,0.0,0.0,0.0,0.0,0.0,-2.3078,-2.3078,-2.3078,-2.3078,-2.3078,-2.3078,-2.3078,-2.3078,-2.3078,-2.3078,0.0,0.0,0.0,0.0,0.0,0.0,0.0,0.0,-1.9431,-1.8519,-1.8008,-1.8008,-1.8008,-1.8008,-1.8008,-1.8008,-1.7998,-1.7734,-1.7764,0.0,0.0,0.0,0.0,0.0,0.0,-1.8779,0.0,0.0,0.0,0.0,0.0,0.0,0.0,0.0,0.0,0.0,0.0,0.0,0.0,-1.3434,-1.4597,-1.4476,-1.5154,-1.5628,-1.467,-1.4448,-1.4491,-1.4472,-1.4456,-1.4023,-1.2576,-1.2331,-1.1083,-0.7036,-0.5823,-0.544,-0.571,-0.5583,-0.5514,-0.5888,-0.5806,-0.5918,-0.6572,-0.6641,-0.6757,-0.7068,-0.7109,-0.7024,-0.6993,-0.6539,-0.6332,-0.6298,-0.6281,-0.6318,-0.6308,-0.3753,-0.1973,-0.1195,-0.1196,-0.0745,0.0,0.0,0.0,0.0,0.0,0.0,0.0,0.0,0.0,0.0,0.1999,0.224,0.1338,0.1173,0.1789,0.2517,0.0056,-0.2402,-0.4389,0.0,0.0,0.0,0.0,0.0,0.0,0.0,-2.3103,-2.3078,-2.3078,-2.3078,-2.3078,-2.3078,-2.3078,-2.3078,-2.3078,0.0,0.0,0.0,0.0,0.0,0.0,0.0,0.0,0.0,-1.8977,-1.8076,-1.8008,-1.8008,-1.8008,-1.8008,-1.8008,-1.8008,-1.8008,-1.8008,-1.8008,0.0,0.0,0.0,0.0,0.0,0.0,0.0,0.0,0.0,0.0,0.0,0.0,0.0,0.0,0.0,0.0,0.0,0.0,0.0,0.0,0.0,0.0,0.0,-1.3864,-1.5013,-1.2835,-1.2339,-1.329,-1.7153,-1.7814,0.0,-1.3015,-1.2296,-1.1097,-0.7057,-0.5821,-0.5683,-0.6201,-0.5855,-0.5498,-0.5442,-0.6045,-0.6534,-0.6915,-0.7065,-0.7095,-0.7107,-0.7142,-0.7024,-0.6739,-0.6453,-0.6322,-0.6291,-0.6345,-0.6338,-0.6338,-0.6281,-0.5335,-0.3357,-0.3359,-0.2394,-0.0454,-0.0302,-0.0221,-0.0211,-0.0211,-0.0207,-0.0201,-0.019,-0.0185,-0.0123,-0.0058,-0.0056,-0.0447,-0.337,-0.2798,-0.0501,-0.1839,-0.3244,-0.4494,0.0,0.0,0.0,0.0,0.0,0.0,0.0,0.0,0.0,0.0,-2.3078,-2.3078,-2.3078,-2.3078,-2.3078,0.0,0.0,0.0,0.0,0.0,0.0,0.0,0.0,0.0,0.0,-1.9562,-1.8654,-1.8008,-1.8008,-1.8008,-1.8008,-1.8008,-1.8008,-1.8008,-1.8008,-1.8008,0.0,0.0,0.0,0.0,0.0,0.0,0.0,0.0,0.0,0.0,-1.8008,-1.7831,0.0,0.0,0.0,0.0,0.0,0.0,0.0,0.0,-1.2525,-1.2655,-1.2415,0.0,-1.2981,-1.2457,-1.2329,-1.3307,0.0,-1.5732,-1.3346,-1.2462,-1.2318,-1.1087,-0.7045,-0.6186,-0.6153,-0.6288,-0.6159,-0.6108,-0.6094,-0.6943,-0.7143,-0.5981,-0.6612,-0.7078,-0.7136,-0.708,-0.7068,-0.6977,-0.6682,-0.6535,-0.6513,-0.6397,-0.6338,-0.6338,-0.6268,-0.6032,-0.5562,-0.5569,-0.5321,-0.4822,-0.3123,-0.2228,-0.2087,-0.2045,-0.2064,-0.2071,-0.1767,-0.166,-0.1591,-0.0459,-0.067,-0.1898,-0.3766,-0.4048,-0.3469,-0.3858,-0.4196,-0.4591,0.0,0.0,0.0,0.0,0.0,0.0,0.0,0.0,0.0,0.0,0.0,0.0,0.0,0.0,0.0,0.0,0.0,0.0,0.0,0.0,0.0,0.0,0.0,-2.1491,-2.059,-1.9759,-1.8854,-1.8008,-1.8008,-1.8008,-1.8008,-1.8008,-1.8008,-1.8008,-1.8008,-1.8115,0.0,0.0,0.0,0.0,-1.8603,0.0,0.0,0.0,0.0,0.0,-1.8008,-1.7714,0.0,-1.7084,-1.566,-1.4332,0.0,0.0,0.0,0.0,-1.2337,-1.2331,-1.2322,-1.233,-1.2305,-1.2305,-1.2278,-1.2846,-1.4887,-1.3805,-1.227,-1.233,-1.2318,-1.1658,-0.9458,-0.7568,-0.6301,-0.6307,-0.628,-0.6499,-0.698,-0.7587,-0.7616,-0.6681,-0.6809,-0.6998,-0.7212,-0.7241,-0.716,-0.7035,-0.6851,-0.6705,-0.6565,-0.6479,-0.6329,-0.6342,-0.6338,-0.6264,-0.6271,-0.6278,-0.6281,-0.6285,-0.5047,-0.4323,-0.4145,-0.3966,-0.3927,-0.3951,-0.3717,-0.3492,-0.319,-0.2394,-0.2095,-0.2343,-0.3925,-0.4494,-0.4487,-0.4477,-0.4688,-0.5014,0.0,0.0,0.0,0.0,0.0,0.0,0.0,0.0,0.0,0.0,0.0,0.0,0.0,0.0,0.0,0.0,0.0,0.0,0.0,0.0,0.0,0.0,0.0,-2.1491,-2.059,-1.9759,-1.8854,-1.8008,-1.8008,-1.8008,-1.8008,-1.8144,-1.8202,-1.8212,-1.8144,-1.8301,0.0,-1.8711,-1.874,-1.8769,-1.9141,0.0,0.0,0.0,0.0,0.0,0.0,0.0,0.0,-1.7751,-1.7274,-1.659,-1.7648,0.0,0.0,0.0,0.0,0.0,-1.2305,-1.2331,-1.2277,-1.2311,-1.2291,-1.231,-1.2278,-1.2291,-1.2317,-1.2278,-1.2284,-1.2269,-1.2302,-0.9539,-0.6977,-0.6433,-0.6331,-0.6771,-0.7617,-0.7709,-0.7812,-0.7822,-0.7315,-0.7034,-0.7343,-0.7356,-0.7268,-0.7017,-0.6953,-0.6807,-0.6522,-0.6508,-0.643,-0.6345,-0.6281,-0.6359,-0.6338,-0.6338,-0.6268,-0.6274,-0.6118,-0.5902,-0.5765,-0.5544,-0.5395,-0.5382,-0.5363,-0.5081,-0.4559,-0.4542,-0.3751,-0.2676,-0.3968,-0.4588,-0.4639,-0.4629,-0.5058,-0.5706,0.0,0.0,0.0,0.0,0.0,0.0,0.0,0.0,0.0,0.0,0.0,0.0,0.0,0.0,0.0,0.0,0.0,0.0,0.0,0.0,0.0,-2.3103,-2.2322,-2.1491,-2.059,-1.9759,-1.8854,-1.8008,-1.8008,-1.8008,-1.8008,-1.8787,-1.911,-1.9065,-1.8715,-1.8574,-1.8662,-1.9033,-1.9189,-1.9189,-1.9258,0.0,0.0,0.0,0.0,0.0,0.0,0.0,0.0,-1.7969,-1.7901,-1.7724,-1.7944,0.0,0.0,0.0,0.0,0.0,-1.2305,-1.2315,-1.2277,-1.2284,-1.2285,-1.2278,-1.2298,-1.2285,-1.2278,-1.2298,-1.2311,-1.2297,-1.2313,-1.1784,-1.0258,-0.6872,-0.6709,-0.6897,-0.6614,-0.6556,-0.6684,-0.7224,-0.759,-0.7597,-0.7214,-0.7295,-0.7353,-0.7309,-0.7071,-0.6851,-0.6675,-0.6664,-0.6539,-0.6271,-0.6376,-0.6383,-0.6264,-0.6338,-0.6264,-0.6261,-0.6105,-0.5952,-0.5803,-0.5661,-0.5511,-0.5425,-0.5203,-0.5053,-0.485,-0.4588,-0.4378,-0.4184,-0.4418,-0.4853,-0.5328,-0.5324,-0.5819,-0.6578,0.0,0.0,0.0,0.0,0.0,0.0,0.0,0.0,0.0,0.0,0.0,0.0,0.0,0.0,0.0,0.0,0.0,0.0,0.0,0.0,0.0,-2.2921,-2.2091,-2.1323,-2.0602,-1.9759,-1.8854,-1.8008,-1.8008,-1.8008,-1.8008,-1.8911,-1.9435,-1.9609,-1.9418,-1.9303,-1.9336,-1.9541,-1.9619,-1.9619,0.0,0.0,0.0,0.0,0.0,0.0,0.0,0.0,0.0,0.0,-1.8008,-1.7969,-1.8006,0.0,0.0,0.0,0.0,0.0,-1.2305,-1.2317,-1.243,-1.3126,-1.2791,-1.2322,-1.2331,-1.2305,-1.2305,-1.2305,-1.0535,-0.9414,-1.0696,-0.9978,-0.8602,-0.6615,-0.4567,-0.3201,-0.2959,-0.5356,-0.7279,-0.7598,-0.7809,-0.7841,-0.7516,-0.7567,-0.7543,-0.7383,-0.7244,-0.7031,-0.6715,-0.6702,-0.6566,-0.6271,-0.6325,-0.6325,-0.6338,-0.6338,-0.6217,-0.6135,-0.6064,-0.5911,-0.5684,-0.562,-0.5504,-0.5418,-0.5199,-0.505,-0.4908,-0.4699,-0.477,-0.5058,-0.5062,-0.5496,-0.6145,-0.6524,-0.6907,-0.7391,0.0,0.0,0.0,0.0,0.0,0.0,0.0,0.0,0.0,0.0,0.0,0.0,0.0,0.0,0.0,0.0,0.0,0.0,0.0,0.0,-2.4752,-2.2941,-2.203,-2.1273,-2.0602,-1.9669,-1.8941,-1.8418,-1.8321,-1.8439,-1.8635,-1.9297,-1.9813,-2.0069,-2.0184,-2.0135,-1.9922,-2.0019,-2.0068,-2.0068,0.0,0.0,0.0,0.0,0.0,0.0,0.0,0.0,0.0,0.0,0.0,0.0,0.0,0.0,0.0,-1.3408,-1.227,-1.2331,-1.2331,-1.2325,-1.2526,-1.3457,-1.2982,-1.227,-1.2309,-1.2513,-1.2743,-1.2696,-1.0126,-0.8134,-0.8763,-0.7741,-0.6335,-0.5034,-0.2119,-0.0445,-0.1676,-0.5386,-0.804,-0.7974,-0.7999,-0.7945,-0.7855,-0.7831,-0.7702,-0.7444,-0.7394,-0.719,-0.6776,-0.6753,-0.6634,-0.6373,-0.6329,-0.6312,-0.6312,-0.6355,-0.62,-0.6084,-0.6047,-0.5891,-0.5637,-0.5606,-0.5488,-0.5301,-0.5182,-0.503,-0.4857,-0.4741,-0.4989,-0.5487,-0.5487,-0.6036,-0.6966,-0.767,-0.8043,-0.8349,0.0,0.0,0.0,0.0,0.0,0.0,0.0,0.0,0.0,0.0,0.0,0.0,0.0,0.0,0.0,0.0,0.0,0.0,0.0,0.0,-2.4913,-2.3321,-2.24,-2.1554,-2.0613,-1.9312,-1.8994,-1.9792,-1.9403,-1.9613,-2.0438,-2.0579,-2.067,-2.0571,-2.1072,-2.079,-1.9941,-2.0342,-2.0518,-2.0518,-2.0518,0.0,0.0,0.0,0.0,0.0,0.0,0.0,0.0,0.0,0.0,0.0,0.0,0.0,-1.7218,-1.3446,-1.2324,-1.227,-1.227,-1.2311,-1.2309,-1.2398,-1.2338,-1.2263,-1.228,-1.314,-1.3961,-1.3993,-1.3294,-1.1461,-0.7305,-0.6813,-0.5618,-0.1147,-0.0181,-0.1775,-0.6764,-0.773,-0.8021,-0.8011,-0.8007,-0.8011,-0.8021,-0.7892,-0.7746,-0.7594,-0.7451,-0.7238,-0.6929,-0.6912,-0.6837,-0.6675,-0.6532,-0.6458,-0.6458,-0.6325,-0.6254,-0.6244,-0.6098,-0.5942,-0.5783,-0.565,-0.5426,-0.5145,-0.5135,-0.4969,-0.4707,-0.4697,-0.4989,-0.5487,-0.5487,-0.6357,-0.7723,-0.8427,-0.9099,-0.9762,0.0,0.0,0.0,0.0,0.0,0.0,0.0,0.0,0.0,0.0,0.0,0.0,0.0,0.0,0.0,0.0,0.0,0.0,0.0,-2.6138,-2.524,-2.3167,-2.2727,-2.1915,-2.064,-1.9576,-1.9313,-1.9902,-1.9483,-2.0042,-2.1494,-2.1494,-2.2007,-2.2808,-2.2424,-2.1869,-2.1206,-2.0787,-2.0566,-2.0566,-2.0566,-2.0566,0.0,0.0,0.0,0.0,0.0,0.0,0.0,0.0,-1.8008,-1.8008,-1.8008,-1.7997,-1.7719,-1.6287,-1.5831,-1.5307,-1.2919,-1.2317,-1.2285,-1.2263,-1.2319,-1.2277,-1.2337,-1.4263,-1.5602,-1.3858,-1.2805,-1.1198,-0.8171,-0.7159,-0.6353,-0.4639,-0.193,-0.1901,-0.722,-0.8035,-0.7979,-0.8041,-0.8038,-0.8038,-0.8038,-0.7987,-0.7855,-0.7617,-0.7546,-0.7343,-0.6949,-0.6929,-0.6814,-0.6566,-0.7137,-0.7367,-0.7344,-0.7893,-0.8161,-0.8161,-0.7483,-0.6869,-0.6491,-0.7163,-0.7113,-0.6563,-0.6498,-0.6296,-0.6046,-0.5931,-0.6275,-0.6902,-0.7385,-0.7877,-0.848,-0.9152,-0.9562,-0.9961,0.0,0.0,0.0,0.0,0.0,0.0,0.0,0.0,0.0,0.0,0.0,0.0,0.0,0.0,0.0,0.0,0.0,0.0,-2.6533,-2.6533,-2.5481,-2.3187,-2.3104,-2.2369,-2.0822,-2.0042,-1.9902,-2.0331,-2.0173,-2.0814,-2.2002,-2.2646,-2.3329,-2.3968,-2.3236,-2.2619,-2.1952,-2.1011,-2.0566,-2.0566,-2.0566,-2.0566,0.0,0.0,0.0,0.0,0.0,0.0,0.0,0.0,-1.8027,-1.8008,-1.8008,-1.8027,-1.7977,-1.7977,-1.7976,-1.7171,-1.3323,-1.2298,-1.2263,-1.2263,-1.2411,-1.2536,-1.281,-1.4554,-1.5622,-1.3853,-1.2184,-1.0708,-0.9562,-0.7874,-0.6684,-0.6799,-0.4214,-0.3286,-0.632,-0.7419,-0.7979,-0.8041,-0.8038,-0.8038,-0.8038,-0.8038,-0.7936,-0.7685,-0.7624,-0.7444,-0.7088,-0.698,-0.702,-0.7263,-0.7741,-0.8173,-0.8494,-0.8985,-0.9296,-0.9296,-0.8844,-0.8184,-0.744,-0.8274,-0.8193,-0.7551,-0.7385,-0.7163,-0.6951,-0.6678,-0.702,-0.7777,-0.8533,-0.891,-0.9159,-0.9614,-1.0064,-1.0568,0.0,0.0,0.0,0.0,0.0,0.0,0.0,0.0,0.0,0.0,0.0,0.0,0.0,0.0,0.0,0.0,0.0,0.0,-2.6533,-2.6533,-2.5569,-2.3588,-2.3514,-2.278,-2.1219,-2.0781,-2.0791,-2.1209,-2.1732,-2.2027,-2.2027,-2.4036,-2.448,-2.3514,-2.3514,-2.2925,-2.1962,-2.1011,-2.0644,-2.0644,-2.0566,-2.0566,-2.0566,0.0,0.0,0.0,0.0,0.0,0.0,0.0,-1.7995,-1.8008,-1.8008,-1.8008,-1.8008,-1.8008,-1.7995,-1.7177,-1.3375,-1.2308,-1.2305,-1.2305,-1.2614,-1.3088,-1.3885,-1.3789,-1.3593,-1.3994,-1.1998,-1.0453,-1.1305,-0.8793,-0.6505,-0.6338,-0.6801,-0.6421,-0.4305,-0.6348,-0.7975,-0.8041,-0.8038,-0.8038,-0.8038,-0.8038,-0.7977,-0.7824,-0.7678,-0.7533,-0.738,-0.7092,-0.7508,-0.8877,-0.8341,-0.8608,-0.9847,-0.9509,-0.9296,-0.9372,-1.0092,-0.9773,-0.8629,-0.8624,-0.8322,-0.7727,-0.7446,-0.7226,-0.7069,-0.6733,-0.7074,-0.7777,-0.8533,-0.9211,-0.9814,-0.9814,-1.0661,-1.1814,0.0,0.0,0.0,0.0,0.0,0.0,0.0,0.0,0.0,0.0,0.0,0.0,0.0,0.0,0.0,0.0,0.0,0.0,-2.6533,-2.6533,-2.5569,-2.3588,-2.3514,-2.2637,-2.0821,-2.0653,-2.0653,-2.0811,-2.0941,-2.1745,-2.3073,-2.3672,-2.4552,-2.5581,-2.485,-2.4409,-2.3963,-2.2328,-2.1593,-2.1517,-2.0857,-2.0566,-2.0566,0.0,0.0,0.0,0.0,0.0,0.0,0.0,0.0,0.0,-1.8008,-1.8008,-1.8008,-1.8008,-1.7967,-1.7153,-1.3338,-1.2297,-1.2397,-1.2838,-1.2733,-1.2705,-1.3519,-1.3514,-1.3393,-1.3716,-1.2206,-1.1006,-1.1422,-0.9009,-0.6966,-0.6879,-0.7396,-0.7534,-0.6879,-0.754,-0.8031,-0.7997,-0.7977,-0.8038,-0.8038,-0.8038,-0.7878,-0.7724,-0.7678,-0.7439,-0.7191,-0.7094,-0.7173,-0.7341,-0.8574,-0.9255,-0.9488,-1.0721,-1.1403,-1.1397,-1.142,-1.0775,-0.9522,-1.0042,-0.9959,-0.9346,-0.9079,-0.8806,-0.854,-0.8267,-0.8262,-0.848,-0.8699,-0.9211,-0.9865,-1.032,-1.1065,-1.1913,0.0,0.0,0.0,0.0,0.0,0.0,0.0,0.0,0.0,0.0,0.0,0.0,0.0,0.0,0.0,0.0,0.0,0.0,0.0,-2.6533,-2.5569,-2.3588,-2.3514,-2.2563,-2.0644,-2.0566,-2.0566,-2.0566,-2.1011,-2.1745,-2.2925,-2.3745,-2.4767,-2.5886,-2.53,-2.5004,-2.4862,-2.3294,-2.2403,-2.1962,-2.1375,-2.0934,-2.0566,0.0,0.0,0.0,0.0,0.0,0.0,0.0,0.0,0.0,-1.7432,-1.7695,-1.7978,-1.7978,-1.7977,-1.7502,-1.5184,-1.3426,-1.2388,-1.2782,-1.2752,-1.2826,-1.3647,-1.3689,-1.3607,-1.3788,-1.2498,-1.1573,-1.2403,-0.9367,-0.6924,-0.7346,-0.7729,-0.8014,-0.8016,-0.7919,-0.7908,-0.8032,-0.8048,-0.8038,-0.8038,-0.7987,-0.7913,-0.7818,-0.7816,-0.7564,-0.7282,-0.7131,-0.7375,-0.8034,-0.9101,-1.0015,-1.065,-1.1757,-1.2305,-1.2298,-1.2004,-1.1422,-1.0504,-1.0849,-1.0735,-1.0267,-0.986,-0.9615,-0.9416,-0.9288,-0.9361,-0.9614,-0.9614,-1.0012,-1.0669,-1.1065,-1.1805,-1.2696,0.0,0.0,0.0,0.0,0.0,0.0,0.0,0.0,0.0,0.0,0.0,0.0,0.0,0.0,0.0,0.0,0.0,0.0,0.0,0.0,-2.5569,-2.3588,-2.3294,-2.2435,-2.0703,-2.0586,-2.0566,-2.0566,-2.1441,-2.1886,-2.2027,-2.3891,-2.4814,-2.4933,-2.4957,-2.504,-2.5004,-2.4059,-2.3147,-2.2253,-2.2178,-2.1593,-2.0712,-2.0712,0.0,0.0,0.0,0.0,0.0,0.0,0.0,0.0,-1.6507,-1.7102,-1.7817,-1.7985,-1.7985,-1.8023,-1.7991,-1.5235,-1.23,-1.2426,-1.2896,-1.3421,-1.4001,-1.4102,-1.4082,-1.4048,-1.2788,-1.2193,-1.378,-0.9828,-0.6703,-0.774,-0.7921,-0.8018,-0.8004,-0.7733,-0.7664,-0.789,-0.7909,-0.8004,-0.8018,-0.7983,-0.7994,-0.8007,-0.7923,-0.784,-0.7738,-0.7403,-0.8194,-1.0119,-1.0003,-1.0823,-1.2669,-1.2478,-1.2325,-1.2298,-1.2004,-1.171,-1.1416,-1.1129,-1.0802,-1.0517,-0.9973,-0.9778,-0.9814,-0.9865,-1.0261,-1.0813,-1.0813,-1.1216,-1.1814,-1.1814,-1.2648,-1.3815,0.0,0.0,0.0,0.0,0.0,0.0,0.0,0.0,0.0,0.0,0.0,0.0,0.0,0.0,0.0,0.0,0.0,0.0,0.0,0.0,-2.5569,-2.3588,-2.2048,-2.1181,-2.1084,-2.0742,-2.0566,-2.0566,-2.0789,-2.1298,-2.2027,-2.2478,-2.3282,-2.4396,-2.4823,-2.5158,-2.5429,-2.4884,-2.4564,-2.4264,-2.3514,-2.2553,-2.1669,-2.1669,-2.1221,0.0,0.0,0.0,0.0,0.0,0.0,0.0,-1.5822,-1.5922,-1.6724,-1.7719,-1.7967,-1.7996,-1.8031,-1.5235,-1.2505,-1.3446,-1.3817,-1.3957,-1.4084,-1.411,-1.3931,-1.3507,-1.3477,-1.3655,-1.4017,-1.0135,-0.6969,-0.7224,-0.765,-0.7998,-0.7969,-0.7799,-0.7547,-0.7293,-0.7506,-0.774,-0.7751,-0.7729,-0.7692,-0.7704,-0.7633,-0.82,-0.9849,-0.9008,-0.9057,-1.0282,-1.1062,-1.1485,-1.151,-1.2298,-1.2532,-1.2298,-1.2004,-1.171,-1.1416,-1.1129,-1.0581,-0.9926,-1.0293,-1.0207,-0.9865,-1.0364,-1.0669,-1.0813,-1.0813,-1.1216,-1.1814,-1.1814,-1.2648,-1.3862,0.0,0.0,0.0,0.0,0.0,0.0,0.0,0.0,0.0,0.0,0.0,0.0,0.0,0.0,0.0,0.0,0.0,0.0,0.0,0.0,-2.5569,-2.3588,-2.2258,-2.1419,-2.0918,-2.0898,-2.0781,-2.0566,-2.0566,-2.0857,-2.1375,-2.1811,-2.2507,-2.3558,-2.4568,-2.5218,-2.5583,-2.5147,-2.5004,-2.4933,-2.3891,-2.322,-2.2702,-2.2178,-2.1669,-2.1191,-2.0446,0.0,0.0,0.0,0.0,0.0,0.0,0.0,-1.4513,-1.5803,-1.7018,-1.8023,-1.8027,-1.565,-1.3307,-1.3906,-1.4072,-1.4122,-1.4084,-1.4097,-1.4041,-1.3701,-1.3867,-1.3441,-1.1165,-0.8781,-0.7098,-0.7077,-0.7342,-0.7557,-0.757,-0.7409,-0.7349,-0.7292,-0.7409,-0.753,-0.7508,-0.7577,-0.7987,-0.9007,-0.896,-0.9616,-1.1134,-1.0644,-1.0535,-1.1117,-1.1495,-1.1822,-1.1972,-1.2372,-1.2452,-1.2298,-1.2004,-1.1643,-1.1209,-1.1358,-1.1057,-1.0507,-1.1024,-1.1216,-1.1077,-1.1243,-1.1475,-1.1792,-1.1792,-1.2039,-1.2335,-1.2657,-1.3369,-1.4329,0.0,0.0,0.0,0.0,0.0,0.0,0.0,0.0,0.0,0.0,0.0,0.0,0.0,0.0,0.0,0.0,0.0,0.0,0.0,0.0,0.0,-2.3722,-2.2972,-2.2015,-2.0762,-2.0967,-2.0937,-2.0566,-2.0644,-2.0684,-2.0684,-2.1497,-2.2149,-2.2725,-2.4082,-2.4897,-2.5182,-2.4996,-2.4931,-2.4776,-2.4045,-2.3568,-2.3268,-2.2456,-2.1949,-2.1669,-2.0857,-2.0332,-2.001,-1.9705,0.0,0.0,0.0,0.0,-1.3035,-1.3726,-1.556,-1.745,-1.7859,-1.6117,-1.413,-1.4074,-1.4088,-1.4088,-1.4088,-1.4088,-1.4088,-1.4088,-1.4071,-1.2659,-0.7928,-0.7121,-0.7048,-0.6962,-0.7001,-0.7108,-0.7108,-0.7139,-0.7188,-0.7346,-0.7349,-0.734,-0.7366,-0.77,-0.8623,-1.0301,-1.0661,-1.1239,-1.2175,-1.1946,-1.1968,-1.2206,-1.1948,-1.2085,-1.2822,-1.2498,-1.2351,-1.2298,-1.1957,-1.1579,-1.1238,-1.174,-1.1768,-1.1308,-1.1833,-1.2284,-1.257,-1.2173,-1.2391,-1.2988,-1.291,-1.2968,-1.3104,-1.3637,-1.4236,-1.4926,0.0,0.0,0.0,0.0,0.0,0.0,0.0,0.0,0.0,0.0,-2.6533,0.0,0.0,0.0,0.0,0.0,0.0,0.0,-2.6533,0.0,0.0,-2.4142,-2.2832,-2.1773,-2.1133,-2.082,-2.0625,-2.0566,-2.0957,-2.1143,-2.1143,-2.1222,-2.1725,-2.2557,-2.3202,-2.3562,-2.3694,-2.4504,-2.4621,-2.436,-2.4535,-2.3919,-2.2791,-2.2636,-2.1865,-2.0789,-2.0644,-2.0527,-2.0343,-1.9105,-1.8479,0.0,0.0,0.0,-1.5012,-1.3515,-1.3874,-1.5224,-1.7395,-1.6063,-1.4076,-1.4085,-1.4088,-1.4088,-1.4088,-1.4088,-1.4088,-1.4088,-1.4071,-1.2697,-0.7942,-0.714,-0.6922,-0.646,-0.6813,-0.7076,-0.7076,-0.7112,-0.7101,-0.7173,-0.7101,-0.7251,-0.7387,-0.8524,-0.9464,-0.9903,-1.0984,-1.2273,-1.3683,-1.2602,-1.233,-1.3307,-1.3113,-1.2896,-1.2829,-1.2782,-1.2559,-1.2291,-1.1744,-1.1701,-1.2049,-1.2609,-1.2261,-1.1367,-1.2349,-1.2832,-1.3004,-1.2833,-1.3036,-1.3389,-1.3027,-1.3238,-1.3684,-1.3768,-1.4503,-1.5499,0.0,0.0,0.0,0.0,0.0,0.0,0.0,0.0,0.0,0.0,0.0,-2.6314,0.0,0.0,0.0,-2.5804,-2.5734,-2.5873,-2.6452,-2.6094,-2.5467,-2.4672,-2.4266,-2.3296,-2.168,-2.173,-2.1406,-2.0566,-2.1016,-2.1357,-2.1611,-2.1836,-2.2148,-2.249,-2.3063,-2.3479,-2.3719,-2.3919,-2.4157,-2.4525,-2.4111,-2.3759,-2.3503,-2.2886,-2.2139,-2.1298,-2.0789,-2.0566,-2.0537,-1.9869,-1.9251,-1.8545,-1.7287,0.0,0.0,0.0,-1.3623,-1.3702,-1.4545,-1.4482,-1.409,-1.4105,-1.4088,-1.4088,-1.4088,-1.4088,-1.4088,-1.4088,-1.411,-1.2705,-0.7991,-0.6851,-0.6613,-0.6299,-0.6655,-0.6898,-0.6814,-0.6997,-0.7109,-0.7031,-0.7092,-0.7429,-0.8209,-0.8769,-0.9717,-1.1112,-1.1732,-1.2577,-1.3734,-1.322,-1.2977,-1.3326,-1.3106,-1.2886,-1.2822,-1.2579,-1.2485,-1.2508,-1.2239,-1.2299,-1.2672,-1.338,-1.3391,-1.2957,-1.3405,-1.377,-1.3967,-1.3219,-1.3125,-1.3508,-1.3409,-1.3552,-1.3862,-1.4538,-1.5129,-1.5664,0.0,0.0,0.0,0.0,0.0,0.0,0.0,0.0,0.0,0.0,0.0,0.0,0.0,0.0,0.0,0.0,-2.5664,-2.5734,-2.6465,-2.6533,-2.6025,-2.5004,-2.5301,-2.434,-2.2038,-2.2373,-2.1855,-2.0566,-2.1016,-2.1455,-2.1894,-2.2314,-2.2568,-2.2656,-2.3039,-2.3423,-2.3638,-2.3382,-2.3614,-2.4143,-2.3304,-2.3213,-2.3511,-2.2579,-2.1968,-2.1517,-2.0857,-2.0566,-2.0566,-2.0566,-2.0079,-1.9289,-1.8643,-1.7158,0.0,0.0,0.0,-1.2857,-1.2433,-1.316,-1.4068,-1.4074,-1.4072,-1.4092,-1.4068,-1.4088,-1.4088,-1.4088,-1.407,-1.2911,-0.9133,-0.729,-0.6285,-0.641,-0.6816,-0.7101,-0.698,-0.7451,-0.7598,-0.7361,-0.7584,-0.7989,-0.8727,-0.9289,-1.0274,-1.1966,-1.2392,-1.2819,-1.3459,-1.3454,-1.332,-1.31,-1.2792,-1.2632,-1.2632,-1.2338,-1.2359,-1.2714,-1.2624,-1.2858,-1.3312,-1.3914,-1.4323,-1.4473,-1.4342,-1.4541,-1.4844,-1.3564,-1.3381,-1.3921,-1.3817,-1.4003,-1.4365,-1.5264,-1.5688,-1.5996,0.0,0.0,0.0,0.0,0.0,0.0,0.0,0.0,0.0,0.0,0.0,0.0,-2.5158,-2.5873,-2.6094,-2.5158,-2.5873,-2.6452,-2.6533,-2.6533,-2.6025,-2.5004,-2.504,0.0,-2.2027,-2.2059,-2.1538,-2.0566,-2.1016,-2.1455,-2.1894,-2.2314,-2.2725,-2.3105,-2.3076,-2.2948,-2.2614,-2.2997,-2.2918,-2.2611,-2.2124,-2.203,-2.1912,-2.1076,-2.0654,-2.0634,-2.0644,-2.0566,-2.0566,-2.0566,-2.0566,-2.0246,-1.8797,-1.8015,-1.7318,0.0,0.0,0.0,-1.2483,-1.3202,-1.4086,-1.4082,-1.4131,-1.4118,-1.4119,-1.4088,-1.4088,-1.4088,-1.407,-1.3678,-1.2314,-0.8855,-0.6345,-0.6582,-0.7693,-0.833,-0.7982,-0.8873,-0.9243,-0.8425,-0.9036,-0.9247,-0.8526,-1.0192,-1.1445,-1.1525,-1.251,-1.3167,-1.3233,-1.2953,-1.2862,-1.2849,-1.2478,-1.2325,-1.2325,-1.2037,-1.2151,-1.2714,-1.2372,-1.2916,-1.4145,-1.4213,-1.4628,-1.5332,-1.4941,-1.499,-1.5283,-1.4004,-1.4082,-1.4956,-1.4136,-1.4503,-1.5487,-1.5588,-1.5952,-1.6552,0.0,0.0,0.0,0.0,0.0,0.0,0.0,0.0,0.0,0.0,0.0,0.0,0.0,-2.5734,-2.5664,-2.5955,-2.6314,-2.6533,-2.6533,-2.6533,-2.6314,-2.5955,-2.6288,-2.5708,-2.3963,-2.3916,-2.3165,-2.1517,-2.16,-2.1738,-2.1894,-2.2314,-2.2734,-2.3135,-2.3135,-2.3057,-2.292,-2.3076,-2.3057,-2.2881,-2.2461,-2.2129,-2.1816,-2.1221,-2.081,-2.0566,-2.0566,-2.0566,-2.0566,-2.0566,-2.0566,-2.0488,-1.9583,-1.8704,-1.7454,-1.5075,-1.4074,-1.3652,-1.2576,-1.2649,-1.2929,-1.2909,-1.3547,-1.4086,-1.4111,-1.409,-1.4137,-1.4139,-1.4115,-1.3997,-1.3561,-0.9693,-0.7116,-0.8718,-0.8539,-0.8326,-0.874,-0.9325,-0.9519,-0.9138,-0.9428,-0.9902,-1.0305,-1.1053,-1.181,-1.2552,-1.2962,-1.3126,-1.2926,-1.2882,-1.2735,-1.2472,-1.2358,-1.2211,-1.2024,-1.2291,-1.2654,-1.3162,-1.3603,-1.4215,-1.4991,-1.4991,-1.5118,-1.54,-1.576,-1.5562,-1.4988,-1.4356,-1.4316,-1.4689,-1.4898,-1.5219,-1.5632,-1.6051,-1.6527,-1.7076,0.0,0.0,0.0,0.0,0.0,0.0,0.0,0.0,0.0,-2.6533,0.0,0.0,0.0,0.0,-2.5804,-2.6452,-2.6533,-2.6533,-2.6533,-2.6533,-2.6533,-2.6533,-2.6979,-2.6655,-2.5266,-2.4952,-2.404,-2.2489,-2.191,-2.1816,-2.21,-2.2383,-2.2734,-2.3135,-2.3135,-2.3135,-2.3135,-2.3135,-2.3135,-2.3076,-2.2373,-2.209,-2.2012,-2.1289,-2.1006,-2.0986,-2.084,-2.0791,-2.0762,-2.0615,-2.0469,-2.0303,-2.0,-1.8844,-1.7313,-1.5363,-1.4217,-1.3404,-1.2505,-1.2332,-1.2348,-1.2569,-1.3041,-1.3516,-1.3473,-1.3831,-1.4077,-1.4088,-1.4112,-1.4075,-1.3944,-1.0755,-0.8591,-0.9979,-0.9446,-0.914,-0.969,-1.0236,-1.041,-1.0011,-1.0309,-1.0785,-1.1265,-1.1594,-1.2098,-1.2822,-1.2812,-1.2712,-1.2681,-1.2412,-1.2258,-1.2164,-1.2064,-1.2101,-1.2289,-1.2487,-1.2949,-1.3853,-1.4294,-1.4837,-1.541,-1.541,-1.5526,-1.5806,-1.6265,-1.5951,-1.5104,-1.5007,-1.5034,-1.5081,-1.5462,-1.572,-1.5952,-1.6527,-1.6993,-1.7394,0.0,0.0,0.0,0.0,0.0,0.0,0.0,0.0,-2.6533,-2.6533,0.0,0.0,0.0,0.0,0.0,-2.6533,-2.6533,-2.6533,-2.6533,-2.6533,-2.6533,-2.6533,-2.7005,-2.6828,-2.5888,-2.4889,-2.4073,-2.3572,-2.2,-2.1699,-2.251,-2.251,-2.2734,-2.3135,-2.3135,-2.3135,-2.3135,-2.3135,-2.3135,-2.3027,-2.1777,-2.1768,-2.2373,-2.1094,-2.1143,-2.1836,-2.1406,-2.125,-2.1182,-2.0732,-2.0303,-1.9951,-1.9922,-1.8646,-1.7126,-1.6359,-1.4363,-1.2356,0.0,0.0,0.0,-1.3039,-1.2777,-1.2363,-1.2308,-1.3248,-1.409,-1.4097,-1.4054,-1.3968,-1.3592,-1.2116,-1.0712,-1.009,-1.0418,-1.0783,-1.0858,-1.1694,-1.2026,-1.1135,-1.1784,-1.1958,-1.1141,-1.1778,-1.2305,-1.2305,-1.2031,-1.1991,-1.2271,-1.1737,-1.1557,-1.185,-1.1563,-1.1957,-1.3097,-1.2505,-1.3068,-1.4666,-1.4394,-1.4628,-1.541,-1.541,-1.5806,-1.6492,-1.6528,-1.6266,-1.575,-1.6071,-1.6241,-1.6255,-1.5802,-1.5996,-1.6595,-1.7118,-1.7312,-1.7504,0.0,0.0,0.0,0.0,0.0,0.0,-2.6533,-2.6533,-2.6533,0.0,0.0,0.0,-2.6533,-2.6533,-2.6533,-2.6533,-2.6533,-2.6533,-2.6533,-2.6533,-2.6533,-2.6533,-2.7369,-2.7538,-2.69,-2.6256,-2.5496,-2.4602,-2.293,-2.2275,-2.251,-2.251,-2.2734,-2.3135,-2.3135,-2.3135,-2.3135,-2.3135,-2.3135,-2.3076,-2.2422,-2.2305,-2.2441,-2.1777,-2.167,-2.1865,-2.1748,-2.1709,-2.1641,-2.1201,-2.0967,-2.0762,-2.0117,-1.9097,-1.8157,-1.7623,-1.6007,-1.4117,-1.2652,0.0,0.0,0.0,0.0,0.0,-1.2486,-1.2531,-1.2982,-1.3573,-1.34,-1.3166,-1.308,-1.2654,-1.2221,-1.1995,-1.131,-1.1087,-1.1768,-1.215,-1.2183,-1.1958,-1.2123,-1.2183,-1.1958,-1.2123,-1.2305,-1.2305,-1.2031,-1.1904,-1.1984,-1.2255,-1.2079,-1.155,-1.1847,-1.2109,-1.2468,-1.2688,-1.3333,-1.4315,-1.4803,-1.5167,-1.541,-1.5921,-1.6322,-1.6528,-1.7198,-1.7232,-1.6711,-1.6822,-1.6432,-1.5802,-1.6113,-1.657,-1.7118,-1.7229,-1.7787,-1.8496,0.0,0.0,0.0,0.0,0.0,-2.6533,-2.6533,-2.6533,-2.6533,0.0,0.0,0.0,-2.6533,-2.6533,-2.6622,-2.6779,-2.6659,-2.6553,-2.6791,-2.659,-2.6533,-2.6533,-2.7519,-2.7959,-2.7632,-2.7127,-2.6462,-2.562,-2.4012,-2.3088,-2.2773,-2.2773,-2.291,-2.3135,-2.3135,-2.3135,-2.3135,-2.3135,-2.3135,-2.3105,-2.2685,-2.2617,-2.2734,-2.2305,-2.2256,-2.2383,-2.2207,-2.2148,-2.208,-2.165,-2.1387,-2.1055,-1.999,-1.9434,-1.8996,-1.819,-1.6802,-1.4977,-1.2844,-1.2331,-1.2331,-1.2533,0.0,0.0,-1.1725,-1.126,-1.1432,-1.272,-1.2476,-1.2276,-1.2949,-1.2868,-1.2822,-1.2822,-1.2035,-1.1658,-1.2397,-1.2378,-1.2345,-1.2472,-1.2378,-1.2305,-1.2305,-1.2305,-1.2305,-1.2305,-1.2031,-1.1764,-1.1516,-1.2269,-1.2378,-1.1766,-1.2228,-1.2751,-1.3211,-1.342,-1.3906,-1.4688,-1.4994,-1.5407,-1.5864,-1.6115,-1.6567,-1.7092,-1.7647,-1.7625,-1.7253,-1.7484,-1.7063,-1.6386,-1.6982,-1.7411,-1.7693,-1.8194,-1.8604,-1.893,0.0,0.0,-2.6452,-2.6383,-2.6452,-2.6452,-2.6383,-2.6452,-2.6533,0.0,-2.6584,-2.6622,-2.6622,-2.6622,-2.6766,-2.7318,-2.6866,-2.6791,-2.7344,-2.6917,-2.671,-2.671,-2.7645,-2.8197,-2.8197,-2.7782,-2.7249,-2.6483,-2.497,-2.3832,-2.3135,-2.3135,-2.3135,-2.3135,-2.3086,-2.3096,-2.3135,-2.3086,-2.3096,-2.3105,-2.2734,-2.2803,-2.3096,-2.2725,-2.2812,-2.3086,-2.2715,-2.2578,-2.251,-2.2041,-2.1592,-2.1025,-1.9814,-1.9648,-1.9635,-1.8569,-1.7306,-1.5593,-1.2983,-1.2304,-1.2385,-1.2721,-1.2408,0.0,-1.0505,-0.9699,-0.974,-1.1682,-1.1414,-1.1282,-1.2857,-1.2859,-1.2659,-1.2768,-1.2478,-1.2392,-1.2735,-1.2472,-1.2405,-1.2741,-1.2465,-1.2305,-1.2305,-1.2305,-1.2305,-1.2305,-1.2175,-1.1818,-1.1345,-1.2365,-1.2763,-1.2277,-1.2857,-1.3595,-1.4613,-1.4324,-1.4628,-1.541,-1.5143,-1.5491,-1.6472,-1.6265,-1.681,-1.7962,-1.7957,-1.7776,-1.7601,-1.8028,-1.7785,-1.7282,-1.7988,-1.8274,-1.8351,-1.9498,-1.9594,-1.9261,0.0,-2.6533,-2.6245,-2.5441,-2.5943,-2.6245,-2.5441,-2.5955,-2.6533,-2.6533,-2.6854,-2.7118,-2.7118,-2.7118,-2.7344,-2.7896,-2.7444,-2.7356,-2.7908,-2.7846,-2.7783,-2.7783,-2.8411,-2.8762,-2.8762,-2.8239,-2.7509,-2.6483,-2.5282,-2.4129,-2.3135,-2.3135,-2.3135,-2.3125,-2.2783,-2.2822,-2.3115,-2.2783,-2.2832,-2.3135,-2.3047,-2.3066,-2.3125,-2.3047,-2.3066,-2.3125,-2.3047,-2.3018,-2.29,-2.2139,-2.1592,-2.1123,-2.0518,-2.0041,-1.9752,-2.0039,-1.9372,-1.7703,-1.3422,-1.2337,-1.235,-1.2398,-1.1148,0.0,-1.0212,-0.9342,-0.8913,-1.0402,-1.057,-1.0831,-1.2241,-1.2158,-1.2032,-1.2351,-1.2338,-1.2318,-1.2378,-1.2338,-1.2325,-1.2385,-1.2338,-1.2305,-1.2305,-1.2305,-1.2305,-1.2305,-1.2735,-1.3036,-1.3068,-1.3992,-1.399,-1.2878,-1.358,-1.4061,-1.4321,-1.4249,-1.4628,-1.541,-1.5944,-1.6285,-1.6528,-1.7224,-1.7897,-1.8512,-1.8265,-1.8336,-1.8681,-1.8342,-1.7584,-1.6774,-1.7813,-1.8502,-1.9015,-1.9655,-2.0425,-2.1099,-2.6584,-2.6747,-2.6487,-2.5194,-2.5804,-2.6251,-2.5481,-2.6267,-2.6967,-2.7243,-2.7519,-2.7695,-2.7695,-2.7695,-2.7908,-2.8461,-2.8009,-2.7921,-2.8473,-2.826,-2.8109,-2.8109,-2.8637,-2.8925,-2.8925,-2.863,-2.8083,-2.7279,-2.5724,-2.4585,-2.3963,-2.3169,-2.2822,-2.2822,-2.2607,-2.2627,-2.2812,-2.2607,-2.2754,-2.3135,-2.3135,-2.3135,-2.3135,-2.3135,-2.3135,-2.3135,-2.3135,-2.3135,-2.3008,-2.2168,-2.1738,-2.1445,-2.0771,-2.04,-2.0215,-2.0539,-1.9763,-1.8254,-1.5421,-1.4347,-1.377,-1.2558,-1.1563,0.0,0.0,-0.8273,-0.8641,-0.9986,-0.9793,-0.9921,-1.1916,-1.1979,-1.1794,-1.2004,-1.2137,-1.2305,-1.2305,-1.2432,-1.2743,-1.3184,-1.3124,-1.3164,-1.373,-1.373,-1.373,-1.373,-1.408,-1.4247,-1.4164,-1.4924,-1.4925,-1.3978,-1.4753,-1.5021,-1.4805,-1.4805,-1.4991,-1.541,-1.5971,-1.6475,-1.7069,-1.7711,-1.8157,-1.8472,-1.8572,-1.8455,-1.8229,-1.8505,-1.8278,-1.7898,-1.9097,-1.9706,-2.0004,-2.0954,-2.148,-2.1605,-2.6634,-2.6816,-2.6615,-2.5004,-2.5511,-2.6045,-2.5585,-2.636,-2.7254,-2.8034,-2.8109,-2.8024,-2.7865,-2.7692,-2.789,-2.8549,-2.7854,-2.7879,-2.8963,-2.8413,-2.8039,-2.826,-2.88,-2.9038,-2.8925,-2.9038,-2.8741,-2.8096,-2.6459,-2.5355,-2.4777,-2.3523,-2.2788,-2.2627,-2.2461,-2.248,-2.2627,-2.2461,-2.2685,-2.3135,-2.3135,-2.3135,-2.3125,-2.3047,-2.3066,-2.3135,-2.3135,-2.3135,-2.3027,-2.2266,-2.1953,-2.1748,-2.0947,-2.0635,-2.0595,-2.0559,-1.9793,-1.8699,-1.7577,-1.6741,-1.5683,-1.355,-1.259,-1.1458,0.0,0.0,0.0,-0.9695,-0.9286,-0.9412,-1.1842,-1.1932,-1.1559,-1.1595,-1.1965,-1.2218,-1.2218,-1.26,-1.3044,-1.387,-1.3653,-1.384,-1.4904,-1.5133,-1.5305,-1.5446,-1.5446,-1.5426,-1.5257,-1.5838,-1.5881,-1.5145,-1.575,-1.585,-1.542,-1.541,-1.541,-1.541,-1.5984,-1.67,-1.7611,-1.8088,-1.8363,-1.853,-1.8882,-1.8581,-1.7915,-1.8807,-1.9272,-1.9548,-2.0521,-2.0892,-2.1066,-2.2236,-2.2413,-2.1949,-2.6634,-2.6584,-2.5935,-2.4047,-2.448,-2.5027,-2.455,-2.53,-2.6469,-2.7875,-2.8109,-2.7791,-2.6839,-2.6344,-2.6464,-2.756,-2.5879,-2.6165,-2.9514,-2.835,-2.7956,-2.875,-2.939,-2.9453,-2.8938,-2.9428,-2.9135,-2.8096,-2.7885,-2.6746,-2.4787,-2.465,-2.3968,-2.3037,-2.2295,-2.2373,-2.3018,-2.2275,-2.2412,-2.3135,-2.3135,-2.3135,-2.3096,-2.2725,-2.2812,-2.3135,-2.3135,-2.3135,-2.3066,-2.2598,-2.2197,-2.1807,-2.1318,-2.0889,-2.0634,-2.0595,-2.0498,-2.0062,-1.8727,-1.7974,-1.7299,-1.5773,-1.3821,-1.2071,-1.1611,0.0,-0.7986,-0.8412,0.0,-1.0553,-1.2009,0.0,0.0,-1.1152,-1.1598,-1.1917,-1.1917,-1.2472,-1.2822,-1.2974,-1.2628,-1.2917,-1.4223,-1.4848,-1.5517,-1.6349,-1.6428,-1.6611,-1.7063,-1.7166,-1.6834,-1.5962,-1.6055,-1.585,-1.542,-1.541,-1.541,-1.541,-1.6746,-1.7467,-1.7611,-1.8524,-1.9133,-1.9597,-1.9196,-1.9221,-1.9535,-1.966,-2.0066,-2.0607,-2.0756,-2.1217,-2.1844,-2.2471,-2.2981,-2.3206,-2.6502,-2.6716,-2.6396,-2.4683,-2.5217,-2.5681,-2.5218,-2.6574,-2.7965,-2.8938,-2.9089,-2.8672,-2.7598,-2.7892,-2.8029,-2.7896,-2.6788,-2.7174,-2.9639,-2.8358,-2.7789,-2.8402,-2.9319,-2.9344,-2.8426,-2.8996,-2.9197,-2.9106,-2.7813,-2.6769,-2.5797,-2.4849,-2.3832,-2.2754,-2.2148,-2.2217,-2.2734,-2.2139,-2.2373,-2.3135,-2.3135,-2.3135,-2.3125,-2.2939,-2.2988,-2.3135,-2.3135,-2.3135,-2.3037,-2.2373,-2.2031,-2.1768,-2.1064,-2.0713,-2.0566,-2.0566,-2.0391,-2.007,-1.9497,-1.8995,-1.8358,-1.698,-1.5858,-1.4574,-1.2631,-1.1267,-1.022,-0.9809,0.0,0.0,0.0,0.0,0.0,0.0,-1.1623,-1.1623,-1.2045,-1.256,-1.2906,-1.3245,-1.3176,-1.379,-1.5441,-1.6091,-1.6617,-1.7373,-1.765,-1.7751,-1.7773,-1.7744,-1.7471,-1.6846,-1.6582,-1.624,-1.5791,-1.5537,-1.541,-1.541,-1.6912,-1.7578,-1.7622,-1.8879,-1.9434,-1.9359,-1.9447,-1.9434,-1.9371,-2.0079,-2.0733,-2.1363,-2.1741,-2.2067,-2.2439,-2.3035,-2.337,-2.3415,-2.6533,-2.6779,-2.6636,-2.5218,-2.5594,-2.6095,-2.6007,-2.768,-2.8975,-2.9291,-2.9229,-2.856,-2.7151,-2.7605,-2.7739,-2.7059,-2.6688,-2.7179,-2.9028,-2.8118,-2.7526,-2.7442,-2.8692,-2.8802,-2.7746,-2.8309,-2.9033,-2.9792,-2.79,-2.6878,-2.6472,-2.5035,-2.3739,-2.2666,-2.2246,-2.2295,-2.2656,-2.2236,-2.248,-2.3135,-2.3135,-2.3135,-2.3135,-2.3135,-2.3066,-2.2978,-2.3096,-2.3066,-2.2871,-2.2266,-2.1904,-2.1592,-2.0947,-2.0664,-2.0566,-2.0566,-2.0342,-2.0068,-1.9941,-1.9609,-1.9025,-1.7865,-1.7314,-1.634,-1.3665,-1.259,-1.2011,-1.1378,-1.0771,0.0,0.0,0.0,-1.1611,-1.2065,0.0,-1.1449,-1.2098,-1.2438,-1.2873,-1.3388,-1.366,-1.448,-1.6079,-1.6696,-1.7287,-1.7803,-1.8223,-1.8281,-1.7861,-1.7949,-1.7822,-1.7393,-1.6953,-1.6514,-1.6125,-1.5625,-1.5526,-1.57,-1.6968,-1.7688,-1.795,-1.9202,-1.9597,-1.9258,-1.9635,-1.9585,-1.9321,-2.0341,-2.1161,-2.1758,-2.2452,-2.2785,-2.3009,-2.3421,-2.3595,-2.3488,-2.6533,-2.6546,-2.6188,-2.5158,-2.5016,-2.5409,-2.6423,-2.7914,-2.8721,-2.8183,-2.7734,-2.6618,-2.4538,-2.3798,-2.3714,-2.4259,-2.3868,-2.4744,-2.7221,-2.7502,-2.7036,-2.5934,-2.7353,-2.7699,-2.6673,-2.7639,-2.8664,-2.9792,-2.8652,-2.7498,-2.6483,-2.5284,-2.419,-2.3096,-2.2676,-2.2725,-2.3096,-2.2676,-2.2744,-2.3135,-2.3135,-2.3135,-2.3135,-2.3135,-2.2891,-2.2588,-2.2988,-2.2881,-2.2529,-2.25,-2.1943,-2.125,-2.1221,-2.0918,-2.0566,-2.0566,-2.0557,-2.0449,-2.0029,-1.9609,-1.918,-1.8669,-1.7596,-1.6367,-1.5376,-1.3621,-1.2238,-1.2218,-1.1465,-1.1087,-1.2077,-1.1979,-1.1708,-1.1715,-1.1715,0.0,0.0,-1.2131,-1.2418,-1.2775,-1.3629,-1.4467,-1.5196,-1.6088,-1.6843,-1.7366,-1.7793,-1.7842,-1.7422,-1.7793,-1.7822,-1.7393,-1.6953,-1.6514,-1.6125,-1.5625,-1.5748,-1.6492,-1.7246,-1.795,-1.8715,-1.9475,-1.9798,-1.9773,-1.9798,-1.9798,-1.9837,-2.0547,-2.1161,-2.1758,-2.2452,-2.3054,-2.3551,-2.3595,-2.3595,-2.3591,-2.7005,-2.7005,-2.6809,-2.6087,-2.6025,-2.6383,-2.7458,-2.7055,-2.7147,-2.8419,-2.751,-2.6337,-2.5083,-2.5279,-2.5218,-2.463,-2.4876,-2.5836,-2.7707,-2.7591,-2.7167,-2.6279,-2.7402,-2.7267,-2.5458,-2.7174,-2.8267,-2.8688,-2.9028,-2.8291,-2.6483,-2.6141,-2.4882,-2.3125,-2.2705,-2.2744,-2.3105,-2.2685,-2.2754,-2.3135,-2.3135,-2.3135,-2.3135,-2.3135,-2.3057,-2.2939,-2.3086,-2.2871,-2.2471,-2.2197,-2.1719,-2.1182,-2.0889,-2.0684,-2.0566,-2.0566,-2.0361,-2.0166,-2.0303,-2.0029,-1.96,-1.917,-1.873,-1.7952,-1.6474,-1.5624,-1.4832,-1.38,-1.3086,-1.27,-1.2627,-1.2351,-1.2072,-1.2072,-1.2072,-1.2078,0.0,-1.2238,-1.2338,-1.2438,-1.2743,-1.3286,-1.4106,-1.5369,-1.6014,-1.5922,-1.7464,-1.7946,-1.6961,-1.7571,-1.7949,-1.7803,-1.7109,-1.666,-1.6514,-1.6246,-1.6265,-1.6482,-1.7743,-1.8447,-1.8715,-1.9475,-1.9798,-1.9798,-1.9798,-1.9798,-1.9901,-2.0953,-2.152,-2.1805,-2.2905,-2.3421,-2.3595,-2.3595,-2.3595,-2.3548,-2.7544,-2.7419,-2.7168,-2.6816,-2.6449,-2.6463,-2.7361,-2.6589,-2.627,-2.7425,-2.6908,-2.6012,-2.5112,-2.5333,-2.5221,-2.4543,-2.5039,-2.5954,-2.715,-2.7522,-2.7191,-2.6037,-2.6932,-2.6617,-2.464,-2.6102,-2.7348,-2.8096,-2.845,-2.7891,-2.6483,-2.6058,-2.4882,-2.3125,-2.2852,-2.2891,-2.3125,-2.2852,-2.2891,-2.3135,-2.3135,-2.3135,-2.3135,-2.3135,-2.3135,-2.3135,-2.3135,-2.2871,-2.2451,-2.2031,-2.1592,-2.1152,-2.0703,-2.0566,-2.0566,-2.0566,-2.0361,-2.0176,-2.0303,-2.0127,-1.9814,-1.9394,-1.9287,-1.8875,-1.722,-1.6962,-1.666,-1.5094,-1.4568,-1.4228,-1.3598,-1.2832,-1.2358,-1.2513,-1.2371,-1.2265,0.0,-1.2238,-1.2265,-1.2164,-1.2238,-1.2806,-1.4099,-1.5081,-1.566,-1.572,-1.737,-1.787,-1.6671,-1.7484,-1.8008,-1.8008,-1.7178,-1.6665,-1.6665,-1.6553,-1.6652,-1.6922,-1.8112,-1.8821,-1.9097,-1.9579,-1.9798,-1.9798,-1.9798,-1.9798,-1.9901,-2.1183,-2.1697,-2.1838,-2.3128,-2.3595,-2.3595,-2.3595,-2.3709,-2.3788,-2.7996,-2.7708,-2.7356,-2.7331,-2.636,-2.5793,-2.6463,-2.636,-2.6016,-2.5469,-2.5753,-2.5573,-2.4506,-2.4043,-2.3779,-2.376,-2.4467,-2.5101,-2.5616,-2.7242,-2.7249,-2.5261,-2.606,-2.5848,-2.424,-2.4735,-2.5942,-2.8004,-2.7128,-2.6637,-2.6554,-2.5378,-2.4296,-2.3222,-2.3135,-2.3135,-2.3135,-2.3135,-2.3135,-2.3135,-2.3135,-2.3135,-2.3135,-2.3135,-2.3135,-2.3135,-2.3135,-2.2871,-2.2451,-2.2051,-2.1611,-2.1162,-2.0732,-2.0586,-2.0566,-2.0566,-2.0566,-2.0478,-2.0059,-1.9941,-1.9844,-1.9394,-1.9307,-1.8971,-1.7568,-1.7642,-1.7593,-1.6193,-1.588,-1.5675,-1.4965,-1.3568,-1.2551,-1.281,-1.2567,-1.2198,-1.1904,-1.2104,-1.2178,-1.1904,-1.2184,-1.3077,-1.495,-1.5217,-1.5618,-1.6488,-1.7453,-1.7551,-1.6606,-1.7482,-1.8008,-1.794,-1.7132,-1.6748,-1.6728,-1.6632,-1.6955,-1.7677,-1.8394,-1.915,-1.9798,-1.9798,-1.9798,-1.9798,-1.9798,-1.9798,-1.9901,-2.1135,-2.1649,-2.1838,-2.3069,-2.3551,-2.3595,-2.3595,-2.3948,-2.4215,-2.8084,-2.8323,-2.8373,-2.7959,-2.6657,-2.5936,-2.6943,-2.5543,-2.4808,-2.5784,-2.533,-2.468,-2.4414,-2.4043,-2.3662,-2.333,-2.4956,-2.6086,-2.6293,-2.8207,-2.8736,-2.7375,-2.7542,-2.671,-2.4703,-2.6371,-2.7105,-2.6883,-2.8291,-2.853,-2.7695,-2.6543,-2.5473,-2.4296,-2.3464,-2.3135,-2.3135,-2.3135,-2.3135,-2.3135,-2.3135,-2.3135,-2.3135,-2.3135,-2.3135,-2.3135,-2.3135,-2.2871,-2.249,-2.2383,-2.1855,-2.1211,-2.1103,-2.083,-2.0566,-2.0566,-2.0566,-2.0537,-2.043,-2.04,-2.0225,-1.9473,-1.9521,-1.9477,-1.8442,-1.8605,-1.8739,-1.7859,-1.7521,-1.7046,-1.6059,-1.4942,-1.3799,-1.2659,-1.2365,-1.2164,-1.1834,-1.1864,-1.1951,-1.1877,-1.2565,-1.3341,-1.4004,-1.5047,-1.5563,-1.5102,-1.6589,-1.6826,-1.5169,-1.6945,-1.7647,-1.7001,-1.714,-1.7298,-1.7502,-1.775,-1.8059,-1.8447,-1.915,-1.9631,-1.9798,-1.9798,-1.9798,-1.9798,-1.9798,-1.9798,-1.985,-2.0683,-2.1293,-2.1791,-2.2634,-2.3201,-2.3595,-2.3595,-2.3948,-2.4215,-2.88,-2.9101,-2.9214,-2.89,-2.7419,-2.6374,-2.6806,-2.5114,-2.4206,-2.526,-2.4941,-2.4697,-2.4697,-2.4316,-2.4136,-2.4414,-2.4792,-2.5641,-2.7116,-2.7959,-2.8279,-2.8096,-2.8096,-2.7267,-2.5546,-2.6789,-2.736,-2.7209,-2.845,-2.8767,-2.8096,-2.6964,-2.588,-2.4787,-2.3637,-2.3135,-2.3135,-2.3135,-2.3135,-2.3135,-2.3135,-2.3135,0.0,-2.3135,-2.3135,-2.3135,-2.3135,-2.2988,-2.2754,-2.2578,-2.2187,-2.1728,-2.1348,-2.1064,-2.082,-2.0625,-2.0566,-2.0566,-2.0566,-2.0566,-2.04,-1.9727,-1.9736,-1.9746,-1.9072,-1.9258,-1.9471,-1.9089,-1.8882,-1.8469,-1.7621,-1.6739,-1.5591,-1.3822,-1.4289,-1.4244,-1.268,-1.2928,-1.3164,-1.2606,-1.3815,-1.4669,-1.4417,-1.5316,-1.5695,-1.5225,-1.6553,-1.66,-1.4758,-1.6805,-1.7483,-1.6442,-1.6826,-1.7336,-1.7801,-1.7944,-1.8235,-1.8715,-1.9423,-1.9798,-1.9798,-1.9798,-1.9798,-1.9811,-2.0105,-2.0258,-2.0295,-2.1272,-2.1833,-2.2193,-2.286,-2.329,-2.3595,-2.3595,-2.3628,-2.3529,-2.9578,-2.9741,-2.9792,-2.9792,-2.8303,-2.6992,-2.654,-2.5037,-2.4092,-2.4453,-2.4883,-2.5137,-2.5078,-2.4727,-2.4812,-2.5681,-2.4344,-2.47,-2.7683,-2.7128,-2.7209,-2.8267,-2.8347,-2.7855,-2.6719,-2.6894,-2.729,-2.8096,-2.8255,-2.8347,-2.8267,-2.7046,-2.5964,-2.4957,-2.3724,-2.3135,-2.3135,-2.3135,-2.3135,-2.3135,-2.3135,-2.3135,-2.3135,-2.3135,-2.3135,-2.3135,-2.3135,-2.3135,-2.3076,-2.2656,-2.248,-2.2295,-2.1484,-2.1191,-2.1074,-2.0684,-2.0566,-2.0566,-2.0566,-2.0566,-2.0449,-1.9951,-1.9873,-1.9805,-1.9385,-1.9609,-1.9922,-2.0131,-2.0216,-2.0078,-1.9596,-1.8648,-1.7447,-1.5833,-1.696,-1.7153,-1.4712,-1.4865,-1.483,-1.3894,-1.5411,0.0,-1.5441,-1.5722,-1.6049,-1.6123,-1.6777,-1.6481,-1.4782,-1.6778,-1.7321,-1.5981,-1.6514,-1.7196,-1.7913,-1.7849,-1.8141,-1.8874,-1.9475,-1.9798,-1.9798,-1.9901,-1.9952,-1.9952,-2.0633,-2.0944,-2.0979,-2.2114,-2.2603,-2.274,-2.3377,-2.3595,-2.3595,-2.3505,-2.3086,-2.254,-2.9063,-2.9465,-2.9792,-2.9792,-2.8303,-2.7216,-2.7431,-2.5968,-2.4873,-2.4941,-2.5342,-2.5478,-2.5107,-2.5,-2.4761,-2.4226,-2.471,-2.5465,-2.6659,-2.7441,-2.8359,-2.9456,-2.9534,-2.8937,-2.7844,-2.8779,-2.8858,-2.8096,-2.9028,-2.9534,-2.9456,-2.7464,-2.6389,-2.6141,-2.4059,-2.3135,-2.3135,-2.3135,-2.3135,-2.3135,-2.3135,-2.3135,-2.3135,-2.3135,-2.3135,-2.3135,-2.3135,-2.3135,-2.3076,-2.2656,-2.2285,-2.1904,-2.1396,-2.0977,-2.0664,-2.0586,-2.0566,-2.0566,-2.0566,-2.0566,-2.0381,-1.959,-1.9658,-1.9805,-1.9385,-1.9609,-2.0236,-2.1388,-2.1611,-2.1742,-2.2172,-1.9908,-1.792,-1.7543,-1.7765,-1.8295,-1.9196,-1.7016,-1.5477,-1.5873,-1.6076,-1.6075,-1.5723,-1.622,-1.6423,-1.6103,-1.6262,-1.5523,-1.3735,-1.6104,-1.6693,-1.5027,-1.6794,-1.8066,-1.8682,-1.8685,-1.8998,-1.9592,-1.9747,-1.9798,-1.9798,-2.0346,-2.0597,-2.0646,-2.1293,-2.152,-2.1568,-2.1805,-2.2193,-2.274,-2.3377,-2.3595,-2.3535,-2.3026,-2.2428,-2.1924,-2.944,-2.9603,-2.988,-3.0168,-2.8692,-2.7553,-2.8054,-2.6568,-2.5332,-2.5098,-2.5059,-2.5059,-2.5068,-2.4863,-2.4917,-2.526,-2.4826,-2.5493,-2.7529,-2.7589,-2.8231,-2.9727,-2.9792,-2.9534,-2.9015,-2.9534,-2.9534,-2.8937,-2.9534,-2.9792,-2.9792,-2.8119,-2.7046,-2.6378,-2.39,-2.293,-2.3125,-2.291,-2.2939,-2.3135,-2.3135,-2.3135,-2.3135,-2.3135,-2.3135,-2.3135,-2.3135,-2.3135,-2.3105,-2.291,-2.2559,-2.2139,-2.1709,-2.1269,-2.0869,-2.0635,-2.0566,-2.0566,-2.0566,-2.0566,-2.0361,-1.9502,-1.96,-1.9885,-1.9646,-2.0153,-2.0987,-2.2144,-2.2603,-2.2706,-2.2469,-2.1218,-2.0069,-1.9425,-1.9327,-1.9963,-2.1647,-1.9889,-1.8332,-1.8015,-1.8259,-1.8132,-1.7273,-1.7337,-1.692,-1.5831,-1.5928,-1.5402,-1.3882,-1.5578,-1.6166,-1.5146,-1.6264,-1.7665,-1.9299,-1.8848,-1.9169,-2.0238,-1.9949,-1.9798,-1.9798,-2.0156,-2.0446,-2.0845,-2.1424,-2.1899,-2.2239,-2.256,-2.2891,-2.3201,-2.3465,-2.3595,-2.3535,-2.2906,-2.2263,-2.1753,-3.003,-2.9967,-3.0143,-3.0683,-2.9403,-2.8384,-2.8612,-2.7108,-2.5786,-2.5339,-2.4912,-2.4785,-2.5039,-2.4844,-2.5119,-2.6085,-2.4836,-2.5254,-2.8219,-2.752,-2.78,-2.9727,-2.9792,-2.9792,-2.9792,-2.9792,-2.9792,-2.9792,-2.9792,-2.9792,-2.9792,-2.8438,-2.7035,-2.5714,-2.3533,-2.2832,-2.3115,-2.2783,-2.2832,-2.3135,-2.3135,-2.3135,-2.3135,-2.3135,-2.3135,-2.3135,-2.3135,-2.3135,-2.3135,-2.3135,-2.2803,-2.2285,-2.1768,-2.1367,-2.1025,-2.0674,-2.0566,-2.0566,-2.0566,-2.0566,-2.0381,-1.9609,-1.96,-1.9767,-1.9859,-2.0483,-2.1344,-2.2612,-2.3534,-2.3821,-2.2914,-2.2845,-2.2559,-2.134,-2.1549,-2.2136,-2.3003,-2.2309,-2.1335,-2.0259,-2.0268,-1.9958,-1.8817,-1.8331,-1.7431,-1.5972,-1.5901,-1.5523,-1.451,-1.5305,-1.5701,-1.5523,-1.5846,-1.7174,-1.9488,-1.8792,-1.9111,-2.0476,-2.0024,-1.9798,-1.9798,-1.9952,-2.0396,-2.1028,-2.1615,-2.2285,-2.2934,-2.3421,-2.3595,-2.3595,-2.3595,-2.3595,-2.3505,-2.2742,-2.2143,-2.1678,-3.0457,-3.0545,-3.0708,-3.1223,-3.0628,-2.977,-2.8757,-2.7549,-2.6547,-2.5722,-2.5644,-2.5478,-2.5107,-2.54,-2.5303,-2.4624,-2.4496,-2.5147,-2.7138,-2.6786,-2.7522,-2.9714,-2.9792,-2.9792,-2.9792,-2.9792,-2.9792,-2.9792,-2.9792,-2.9792,-2.9792,-2.7637,-2.5473,-2.3387,-2.3183,-2.3105,-2.3135,-2.3096,-2.3105,-2.3135,-2.3135,-2.3135,-2.3135,-2.3135,-2.3135,-2.3135,-2.3135,-2.3135,-2.3135,-2.3135,-2.2607,-2.1797,-2.0957,-2.0664,-2.0625,-2.0576,-2.0566,-2.0566,-2.0566,-2.0566,-2.0449,-1.9971,-1.96,-1.9424,-1.9791,-1.9698,-2.0275,-2.2904,-2.4945,-2.6046,-2.5356,-2.5207,-2.462,-2.3078,-2.4576,-2.5306,-2.3337,-2.3011,-2.2914,-2.2749,-2.0988,-1.9686,-1.9518,-1.8771,-1.8045,-1.7457,-1.6171,-1.5371,-1.5197,-1.5274,-1.5422,-1.5514,-1.6184,-1.7338,-1.8988,-1.8888,-1.9205,-1.9874,-1.9823,-1.9798,-1.9798,-2.0446,-2.1015,-2.1663,-2.23,-2.2965,-2.3508,-2.3551,-2.3595,-2.3595,-2.3595,-2.3595,-2.3445,-2.2233,-2.1739,-2.1579,-3.1097,-3.1085,-3.1248,-3.1788,-3.1089,-3.0371,-3.0148,-2.8858,-2.7581,-2.6505,-2.556,-2.4873,-2.4697,-2.4609,-2.4898,-2.5788,-2.4784,-2.5372,-2.8395,-2.7515,-2.7778,-2.9727,-2.9792,-2.9792,-2.9792,-2.9792,-2.9792,-2.9792,-2.9792,-2.9792,-2.9792,-2.8199,-2.6284,-2.4114,-2.312,-2.29,-2.3125,-2.2871,-2.291,-2.3135,-2.3135,-2.3135,-2.3135,-2.3135,-2.3135,-2.3135,-2.3135,-2.3135,-2.3096,-2.2852,-2.2539,-2.2197,-2.1846,-2.1562,-2.1309,-2.1045,-2.0967,-2.0908,-2.0635,-2.0566,-2.0459,-2.0019,-1.998,-2.0043,-1.9909,-2.0257,-2.103,-2.2662,-2.4565,-2.5774,-2.5234,-2.5372,-2.529,-2.4563,-2.4847,-2.4863,-2.4221,-2.4147,-2.3864,-2.319,-2.1909,-2.0983,-2.076,-1.9713,-1.9022,-1.8922,-1.7396,-1.6491,-1.6451,-1.525,-1.5242,-1.6626,-1.5628,-1.6505,-1.9427,-1.8837,-1.9157,-2.0326,-1.9962,-1.9798,-1.9798,-2.0105,-2.0769,-2.1744,-2.2801,-2.3377,-2.3595,-2.3595,-2.3595,-2.3595,-2.3595,-2.3595,-2.3445,-2.2173,-2.1695,-2.1539,-3.1675,-3.1763,-3.2014,-3.2403,-3.1884,-3.1348,-3.1187,-3.0055,-2.8623,-2.7312,-2.5996,-2.4927,-2.432,-2.4082,-2.4746,-2.6532,-2.5257,-2.5777,-2.9376,-2.818,-2.8081,-2.9727,-2.9792,-2.9792,-2.9792,-2.9792,-2.9792,-2.9792,-2.9792,-2.9792,-2.9792,-2.8279,-2.6614,-2.4777,-2.3318,-2.2861,-2.3125,-2.2822,-2.2861,-2.3135,-2.3135,-2.3135,-2.3135,-2.3135,-2.3135,-2.3125,-2.2998,-2.3037,-2.3076,-2.2656,-2.251,-2.249,-2.2363,-2.2129,-2.1807,-2.1367,-2.123,-2.1133,-2.0684,-2.0566,-2.0498,-2.0185,-2.0244,-2.0279,-1.9981,-2.0575,-2.1457,-2.2624,-2.4333,-2.5485,-2.5121,-2.5485,-2.5787,-2.5507,-2.5153,-2.4821,-2.4626,-2.473,-2.4305,-2.2969,-2.2564,-2.214,-2.1555,-2.0731,-2.0175,-2.008,-1.8838,-1.7893,-1.7323,-1.576,-1.5384,-1.6651,-1.5225,-1.5808,-1.8649,-1.8416,-1.8927,-2.0122,-1.9883,-1.9798,-1.9798,-2.0181,-2.0953,-2.2039,-2.3128,-2.3595,-2.3595,-2.3595,-2.3595,-2.3595,-2.3595,-2.3595,-2.3445,-2.2173,-2.1695,-2.15,-3.2102,-3.2667,-3.3056,-3.3068,-3.352,-3.3231,-3.1484,-3.0683,-2.9816,-2.8083,-2.7417,-2.6271,-2.4058,-2.417,-2.4945,-2.6183,-2.5763,-2.6552,-2.9449,-2.8678,-2.8609,-2.9792,-2.9792,-2.9792,-2.9792,-2.9792,-2.9792,-2.9792,-2.9792,-2.9792,-2.9792,-2.7557,-2.588,-2.4787,-2.3627,-2.3135,-2.3135,-2.3135,-2.3135,-2.3135,-2.3135,-2.3135,-2.3135,-2.3135,-2.3135,-2.3086,-2.2666,-2.2783,-2.3076,-2.2656,-2.251,-2.2441,-2.2021,-2.1894,-2.1807,-2.1367,-2.123,-2.1133,-2.0684,-2.0566,-2.0566,-2.0557,-2.0244,-1.9912,-1.9902,-2.0295,-2.1086,-2.2931,-2.4511,-2.5598,-2.5586,-2.6063,-2.6264,-2.5686,-2.6076,-2.5945,-2.4434,-2.4526,-2.4103,-2.2262,-2.2799,-2.2818,-2.1707,-2.1645,-2.1438,-2.0845,-2.0487,-1.9474,-1.771,-1.6968,-1.6042,-1.496,-1.5187,-1.5549,-1.6027,-1.753,-1.8463,-1.8727,-1.9475,-1.9798,-1.985,-2.1086,-2.2053,-2.274,-2.3319,-2.3595,-2.3595,-2.3595,-2.3595,-2.3595,-2.3595,-2.3595,-2.3445,-2.2173,-2.1695,-2.15,-3.2767,-3.2955,-3.3081,-3.3081,-3.3219,-3.3183,-3.2537,-3.2031,-3.104,-2.9397,-2.8689,-2.7653,-2.5827,-2.5754,-2.6472,-2.7973,-2.6892,-2.7338,-3.0057,-2.8903,-2.8597,-2.9792,-2.9792,-2.9792,-2.9792,-2.9792,-2.9792,-2.9792,-2.9792,-2.9365,-2.8597,-2.7936,-2.6614,-2.4787,-2.4457,-2.3725,-2.2734,-2.3018,-2.2969,-2.2734,-2.3027,-2.3135,-2.3135,-2.3135,-2.3135,-2.3125,-2.2988,-2.3027,-2.3115,-2.2988,-2.2754,-2.249,-2.2353,-2.2119,-2.1807,-2.1367,-2.123,-2.1133,-2.0684,-2.0566,-2.0566,-2.0566,-2.0459,-2.0503,-2.0859,-2.1522,-2.2232,-2.2758,-2.4063,-2.5172,-2.5523,-2.6063,-2.6471,-2.6214,-2.6013,-2.5715,-2.5126,-2.4633,-2.3991,-2.2859,-2.3179,-2.3552,-2.377,-2.293,-2.2278,-2.2048,-2.185,-2.0648,-1.8216,-1.6855,-1.6198,-1.6128,-1.5118,-1.554,-1.753,-1.7743,-1.8394,-1.9475,-1.9695,-2.0055,-2.0497,-2.1328,-2.2053,-2.274,-2.3334,-2.3595,-2.3595,-2.3595,-2.3595,-2.3595,-2.3595,-2.3595,-2.349,-2.2667,-2.2084,-2.1575,-3.3119,-3.3407,-3.3558,-3.3156,-3.3257,-3.3244,-3.2817,-3.2265,-3.1452,-3.0236,-2.9606,-2.8891,-2.7834,-2.7718,-2.8079,-2.8821,-2.7825,-2.8091,-3.0411,-2.9413,-2.9028,-2.9792,-2.9792,-2.9792,-2.9792,-2.9792,-2.9792,-2.9792,-2.9792,-2.9456,-2.8767,-2.8267,-2.7348,-2.6025,-2.5199,-2.4209,-2.3102,-2.3122,-2.2891,-2.2539,-2.2793,-2.29,-2.29,-2.29,-2.29,-2.29,-2.29,-2.2998,-2.3115,-2.2959,-2.2734,-2.248,-2.2324,-2.1982,-2.1592,-2.1318,-2.123,-2.1133,-2.0684,-2.0566,-2.0566,-2.0566,-2.0566,-2.0824,-2.168,-2.2024,-2.2374,-2.3313,-2.4171,-2.4971,-2.5498,-2.6063,-2.6458,-2.6176,-2.5837,-2.5438,-2.495,-2.452,-2.3827,-2.2924,-2.3502,-2.4082,-2.4354,-2.4025,-2.3547,-2.305,-2.2704,-2.1417,-1.8983,-1.7806,-1.693,-1.6191,-1.5427,-1.5722,-1.7137,-1.7712,-1.8501,-1.9371,-1.9695,-2.0283,-2.1161,-2.152,-2.232,-2.3419,-2.354,-2.3744,-2.3969,-2.3699,-2.3595,-2.3595,-2.3595,-2.3595,-2.349,-2.2622,-2.2054,-2.156,-3.3181,-3.3897,-3.4286,-3.3257,-3.3508,-3.347,-3.2378,-3.1813,-3.1298,-3.0696,-3.0193,-2.988,-2.9804,-2.9792,-2.9564,-2.903,-2.8542,-2.8906,-3.049,-3.0093,-2.9817,-2.9842,-2.9817,-2.9792,-2.9792,-2.9792,-2.9792,-2.9792,-2.9792,-2.9792,-2.9792,-2.8688,-2.8176,-2.8004,-2.5942,-2.4682,-2.4094,-2.3493,-2.2938,-2.2471,-2.2471,-2.249,-2.251,-2.251,-2.251,-2.2519,-2.2549,-2.2812,-2.3076,-2.2685,-2.2519,-2.2402,-2.2012,-2.1582,-2.123,-2.1201,-2.1191,-2.1094,-2.0674,-2.0566,-2.0566,-2.0566,-2.0644,-2.1044,-2.2396,-2.2,-2.2076,-2.4357,-2.487,-2.5034,-2.5561,-2.6101,-2.6264,-2.5686,-2.5561,-2.5184,-2.4142,-2.4066,-2.3664,-2.2498,-2.3763,-2.4512,-2.3782,-2.495,-2.526,-2.4076,-2.3265,-2.1984,-2.0054,-1.9577,-1.8178,-1.5553,-1.6167,-1.6224,-1.5524,-1.7632,-1.8715,-1.8768,-1.9475,-2.0471,-2.1663,-2.1697,-2.2705,-2.4432,-2.388,-2.4014,-2.4462,-2.3924,-2.364,-2.3595,-2.3595,-2.3551,-2.3402,-2.2263,-2.1715,-2.1421,-3.3106,-3.3282,-3.3382,-3.3119,-3.3181,-3.3031,-3.2328,-3.2478,-3.2177,-3.0796,-3.0846,-3.0696,-2.988,-2.9792,-2.9752,-2.963,-2.944,-2.977,-3.0583,-3.0093,-2.998,-3.0407,-3.0018,-2.9792,-2.9792,-2.9792,-2.9792,-2.9792,-2.9792,-2.9792,-2.9792,-2.9534,-2.8937,-2.8096,-2.751,-2.5968,-2.3693,-2.3836,-2.3223,-2.2031,-2.2031,-2.2227,-2.251,-2.251,-2.251,-2.2549,-2.2881,-2.3057,-2.3125,-2.3027,-2.2568,-2.2021,-2.1924,-2.1582,-2.1172,-2.082,-2.0723,-2.0703,-2.0596,-2.0566,-2.0566,-2.0566,-2.1155,-2.1837,-2.254,-2.3109,-2.3887,-2.5174,-2.541,-2.5586,-2.6151,-2.6433,-2.6264,-2.5686,-2.5259,-2.477,-2.4092,-2.3627,-2.3251,-2.2975,-2.3929,-2.4745,-2.4943,-2.6278,-2.6994,-2.6696,-2.5085,-2.3688,-2.2726,-2.1097,-1.9211,-1.7124,-1.7235,-1.7512,-1.7915,-1.8436,-1.898,-1.9527,-1.9695,-2.0245,-2.1028,-2.1472,-2.2217,-2.3182,-2.4,-2.4178,-2.3864,-2.4238,-2.4073,-2.3595,-2.3595,-2.3334,-2.2935,-2.3079,-2.1971,-2.0387,-3.3131,-3.3282,-3.337,-3.3119,-3.3081,-3.288,-3.2303,-3.2478,-3.219,-3.0796,-3.0859,-3.0821,-3.0231,-3.0168,-3.0269,-3.0495,-3.0306,-3.0193,-3.0231,-3.0193,-3.0193,-3.0231,-2.9955,-2.9792,-2.9792,-2.9792,-2.9792,-2.9792,-2.9792,-2.9792,-2.9792,-2.9792,-2.9456,-2.8846,-2.8347,-2.6939,-2.4926,-2.4395,-2.3412,-2.2211,-2.1961,-2.1904,-2.1973,-2.2363,-2.2393,-2.2305,-2.292,-2.3135,-2.3135,-2.3135,-2.2705,-2.2139,-2.1953,-2.1582,-2.1143,-2.0703,-2.085,-2.1084,-2.0674,-2.0713,-2.0899,-2.1205,-2.1593,-2.2339,-2.3478,-2.3968,-2.4578,-2.5735,-2.5774,-2.5774,-2.642,-2.6533,-2.6189,-2.5372,-2.5008,-2.4544,-2.3715,-2.3339,-2.3078,-2.3078,-2.3936,-2.4576,-2.4851,-2.6094,-2.6834,-2.6643,-2.6192,-2.5394,-2.4176,-2.2342,-2.0487,-1.8638,-1.8263,-1.8286,-1.8715,-1.9044,-1.9423,-1.9798,-1.9798,-2.0284,-2.1178,-2.1561,-2.2362,-2.3544,-2.397,-2.4298,-2.4492,-2.4268,-2.4118,-2.4044,-2.3729,-2.3231,-2.2711,-2.2732,-2.1528,-1.9989,-3.3169,-3.3458,-3.3633,-3.3156,-3.3081,-3.288,-3.2303,-3.2215,-3.1863,-3.0859,-3.0733,-3.0733,-3.0733,-3.0733,-3.0909,-3.1348,-3.0984,-3.0532,-3.0068,-3.0394,-3.0407,-2.9942,-2.9829,-2.9792,-2.9792,-2.9792,-2.9792,-2.9792,-2.9792,-2.9792,-2.9792,-2.9792,-2.9792,-2.9792,-2.8767,-2.7717,-2.6669,-2.5303,-2.3934,-2.2788,-2.2352,-2.1824,-2.1416,-2.2217,-2.2295,-2.208,-2.2861,-2.3135,-2.3135,-2.3135,-2.2861,-2.2441,-2.2021,-2.1631,-2.123,-2.0713,-2.124,-2.1787,-2.0908,-2.0947,-2.1273,-2.1706,-2.1939,-2.2563,-2.436,-2.4578,-2.4773,-2.602,-2.5995,-2.5875,-2.6227,-2.6383,-2.6126,-2.5109,-2.487,-2.4456,-2.3353,-2.3263,-2.3263,-2.3263,-2.3752,-2.4151,-2.4249,-2.5355,-2.5952,-2.5721,-2.674,-2.6783,-2.5413,-2.3823,-2.226,-2.0656,-1.955,-1.898,-1.8874,-1.9562,-1.9936,-1.9936,-2.0012,-2.0603,-2.1577,-2.1745,-2.27,-2.4163,-2.3963,-2.4491,-2.5369,-2.4328,-2.4193,-2.4507,-2.3776,-2.3098,-2.2486,-2.1898,-2.089,-1.9781,-3.3093,-3.3144,-3.3181,-3.3093,-3.3081,-3.288,-3.2303,-3.2215,-3.1989,-3.1348,-3.1273,-3.1273,-3.1273,-3.1273,-3.1298,-3.1386,-3.1311,-3.1235,-3.1148,-3.0821,-3.057,-3.0495,-3.0043,-2.9792,-2.9792,-2.9792,-2.9792,-2.9792,-2.9792,-2.9792,-2.9792,-2.9792,-2.9792,-2.9792,-2.9624,-2.8762,-2.737,-2.7054,-2.5622,-2.3398,-2.3311,-2.2686,-2.1836,-2.2324,-2.2471,-2.248,-2.2959,-2.3135,-2.3135,-2.3135,-2.2861,-2.2441,-2.2021,-2.1836,-2.1621,-2.0801,-2.1445,-2.2227,-2.1367,-2.1182,-2.1123,-2.0898,-2.1814,-2.2905,-2.3615,-2.4664,-2.5481,-2.5301,-2.5812,-2.6133,-2.5358,-2.5955,-2.6251,-2.5586,-2.5109,-2.4594,-2.3954,-2.3866,-2.3866,-2.3866,-2.3554,-2.3504,-2.4137,-2.515,-2.6048,-2.6694,-2.641,-2.6784,-2.8196,-2.6601,-2.5438,-2.4796,-2.1992,-2.0181,-1.9631,-2.0235,-2.058,-2.0592,-2.1004,-2.1322,-2.1509,-2.2033,-2.2445,-2.2804,-2.4459,-2.4982,-2.4713,-2.5127,-2.5031,-2.4462,-2.3272,-2.2438,-2.1838,-2.1741,-2.0603,-1.9252,-3.3081,-3.3081,-3.3081,-3.3081,-3.3081,-3.2993,-3.2717,-3.2679,-3.2478,-3.1913,-3.1838,-3.1838,-3.1838,-3.1838,-3.1951,-3.2277,-3.2014,-3.1712,-3.1411,-3.0909,-3.0482,-3.0181,-2.993,-2.9792,-2.9792,-2.9792,-2.9792,-2.9792,-2.9792,-2.9792,-2.9792,-2.9792,-2.9792,-2.9792,-2.9792,-2.9222,-2.8218,-2.7734,-2.6464,-2.47,-2.4143,-2.3265,-2.2402,-2.267,-2.2715,-2.2568,-2.2988,-2.3135,-2.3135,-2.3135,-2.2715,-2.2139,-2.1953,-2.1562,-2.1143,-2.0977,-2.1348,-2.1836,-2.1904,-2.1758,-2.1686,-2.1999,-2.2556,-2.3438,-2.4831,-2.5421,-2.5767,-2.6139,-2.6375,-2.6383,-2.5873,-2.6164,-2.6264,-2.5686,-2.5159,-2.4732,-2.4481,-2.4192,-2.4104,-2.4406,-2.4216,-2.4128,-2.4482,-2.5133,-2.5761,-2.6284,-2.794,-2.9127,-2.9576,-2.865,-2.7649,-2.6775,-2.3506,-2.142,-2.0715,-2.0978,-2.1104,-2.1104,-2.1368,-2.1644,-2.192,-2.2247,-2.2587,-2.2986,-2.4353,-2.479,-2.4552,-2.4917,-2.4896,-2.4462,-2.3182,-2.23,-2.1649,-2.1342,-2.0083,-1.8722,-3.3081,-3.3081,-3.3081,-3.3081,-3.3081,-3.3081,-3.3081,-3.2968,-3.2767,-3.2453,-3.2303,-3.2265,-3.2403,-3.229,-3.239,-3.283,-3.224,-3.1662,-3.1235,-3.0721,-3.0231,-2.9817,-2.9792,-2.9792,-2.9792,-2.9792,-2.9792,-2.9792,-2.9792,-2.9792,-2.9792,-2.9792,-2.9792,-2.9792,-2.9792,-2.9541,-2.905,-2.8325,-2.7296,-2.6107,-2.5371,-2.4255,-2.3102,-2.3368,-2.3103,-2.2705,-2.3027,-2.3135,-2.3135,-2.3135,-2.2715,-2.2158,-2.206,-2.1504,-2.0918,-2.1162,-2.1309,-2.1523,-2.2502,-2.2595,-2.2551,-2.3202,-2.3646,-2.4248,-2.5812,-2.6261,-2.648,-2.7038,-2.6989,-2.6791,-2.6362,-2.6502,-2.6465,-2.5887,-2.5347,-2.5008,-2.5008,-2.4644,-2.4519,-2.4958,-2.5008,-2.5059,-2.5197,-2.5371,-2.5556,-2.5853,-2.9004,-3.0777,-3.0533,-2.9902,-2.8934,-2.7386,-2.4406,-2.2484,-2.1746,-2.1718,-2.1681,-2.1681,-2.1807,-2.2096,-2.2485,-2.2544,-2.2795,-2.3284,-2.4288,-2.4625,-2.449,-2.472,-2.4716,-2.4462,-2.3031,-2.2146,-2.1588,-2.0735,-1.9526,-1.8497,-3.3081,-3.3081,-3.3081,-3.3081,-3.3081,-3.3081,-3.3081,-3.2616,-3.2453,-3.2955,-3.2554,-3.2416,-3.2955,-3.2528,-3.2227,-3.2277,-3.1336,-3.0721,-3.067,-3.0156,-2.9829,-2.9792,-2.9792,-2.9792,-2.9792,-2.9792,-2.9792,-2.9792,-2.9792,-2.9792,-2.9792,-2.9792,-2.9792,-2.9792,-2.9792,-2.9767,-2.9729,-2.9651,-2.8725,-2.7418,-2.7731,-2.6323,-2.4145,-2.4514,-2.4029,-2.3096,-2.3125,-2.3135,-2.3135,-2.3135,-2.3096,-2.2978,-2.2588,-2.2158,-2.1719,-2.1348,-2.1523,-2.2083,-2.3143,-2.3688,-2.3969,-2.3608,-2.4534,-2.5553,-2.5183,-2.6971,-2.8263,-2.695,-2.7373,-2.7518,-2.6081,-2.6611,-2.7042,-2.649,-2.5912,-2.5536,-2.5536,-2.5498,-2.5498,-2.5536,-2.5536,-2.5749,-2.6289,-2.5904,-2.5838,-2.64,-2.8131,-2.9798,-3.132,-3.0278,-2.8671,-2.6659,-2.4591,-2.3226,-2.2524,-2.2311,-2.2246,-2.2259,-2.2774,-2.2977,-2.3015,-2.3025,-2.3085,-2.3182,-2.466,-2.4983,-2.444,-2.5238,-2.5181,-2.4417,-2.2526,-2.1744,-2.1499,-1.9778,-1.9032,-1.8868,-3.3144,-3.3081,-3.3081,-3.3081,-3.3081,-3.3081,-3.3081,-3.2893,-3.283,-3.3056,-3.2566,-3.2441,-3.3018,-3.2252,-3.1838,-3.2177,-3.1524,-3.0959,-3.0633,-3.0419,-3.0143,-2.9804,-2.9792,-2.9792,-2.9792,-2.9792,-2.9792,-2.9792,-2.9792,-2.9792,-2.9792,-2.9792,-2.9792,-2.9792,-2.9792,-2.9792,-2.9792,-2.9792,-2.9222,-2.8332,-2.8131,-2.6887,-2.505,-2.4861,-2.4125,-2.3135,-2.3135,-2.3135,-2.3135,-2.3135,-2.2969,-2.2725,-2.2568,-2.2217,-2.1904,-2.2002,-2.3298,-2.4873,-2.5262,-2.4981,-2.4661,-2.5224,-2.5802,-2.6379,-2.6827,-2.7406,-2.7904,-2.8012,-2.8101,-2.7888,-2.7359,-2.7553,-2.772,-2.7519,-2.7005,-2.664,-2.664,-2.6352,-2.6138,-2.6138,-2.644,-2.659,-2.6546,-2.6565,-2.6633,-2.6514,-2.7064,-2.8023,-2.9324,-2.8904,-2.8322,-2.765,-2.5933,-2.4549,-2.3675,-2.3109,-2.2824,-2.2824,-2.2977,-2.3078,-2.3078,-2.3078,-2.3078,-2.3125,-2.4279,-2.4339,-2.3826,-2.4618,-2.4572,-2.3822,-2.2324,-2.1489,-2.1005,-1.9549,-1.8593,-1.8033,-3.3156,-3.3081,-3.3131,-3.3307,-3.3194,-3.3131,-3.3307,-3.3194,-3.3081,-3.3081,-3.2729,-3.2641,-3.3031,-3.2064,-3.1612,-3.2164,-3.1562,-3.0997,-3.0633,-3.0457,-3.0181,-2.9817,-2.9792,-2.9792,-2.9792,-2.9792,-2.9792,-2.9792,-2.9792,-2.9792,-2.9792,-2.9792,-2.9792,-2.9792,-2.9792,-2.9792,-2.9792,-2.9792,-2.9566,-2.9151,-2.879,-2.7723,-2.6302,-2.5583,-2.4628,-2.3551,-2.3222,-2.3135,-2.3135,-2.3135,-2.2949,-2.2715,-2.2715,-2.2422,-2.2139,-2.2432,-2.378,-2.5456,-2.6273,-2.5975,-2.563,-2.6707,-2.6964,-2.7209,-2.7936,-2.8071,-2.8297,-2.9037,-2.89,-2.8574,-2.8398,-2.836,-2.831,-2.8134,-2.7783,-2.7544,-2.7544,-2.7218,-2.6979,-2.6979,-2.7155,-2.713,-2.6753,-2.7055,-2.7082,-2.6518,-2.6489,-2.684,-2.7709,-2.8304,-2.8335,-2.7838,-2.6803,-2.5783,-2.4833,-2.3841,-2.3401,-2.3401,-2.3165,-2.3078,-2.3078,-2.3078,-2.3078,-2.3125,-2.3748,-2.3767,-2.343,-2.4007,-2.3987,-2.345,-2.2225,-2.1351,-2.0735,-1.9278,-1.8179,-1.744,-3.3081,-3.3081,-3.3257,-3.3796,-3.3445,-3.3269,-3.3809,-3.3432,-3.3081,-3.3081,-3.3081,-3.3068,-3.3081,-3.2064,-3.1599,-3.2164,-3.1235,-3.062,-3.062,-3.0093,-2.9792,-2.9792,-2.9792,-2.9792,-2.9792,-2.9792,-2.9792,-2.9792,-2.9792,-2.9792,-2.9792,-2.9792,-2.9792,-2.9792,-2.9792,-2.9792,-2.9792,-2.9792,-2.9792,-2.9792,-2.9792,-2.9106,-2.7936,-2.6883,-2.5797,-2.4617,-2.3551,-2.3135,-2.3135,-2.3135,-2.3135,-2.3135,-2.3135,-2.2852,-2.2519,-2.2519,-2.2519,-2.3098,-2.5771,-2.6483,-2.6801,-2.7844,-2.8084,-2.8084,-2.8084,-2.9028,-2.9792,-2.9792,-2.9792,-2.9616,-2.9038,-2.8938,-2.875,-2.821,-2.8122,-2.8109,-2.8109,-2.8109,-2.8109,-2.8109,-2.762,-2.7293,-2.7293,-2.7293,-2.7055,-2.6584,-2.6487,-2.6634,-2.7024,-2.8771,-2.8872,-2.6873,-2.6899,-2.6588,-2.5919,-2.4619,-2.4004,-2.4004,-2.3427,-2.3078,-2.3078,-2.3078,-2.3078,-2.31,-2.3306,-2.3433,-2.3403,-2.3601,-2.3639,-2.345,-2.2225,-2.1351,-2.068,-1.8853,-1.7852,-1.73,-3.3156,-3.3382,-3.3583,-3.337,-3.3508,-3.3583,-3.3357,-3.3181,-3.3081,-3.3081,-3.2717,-3.2629,-3.3031,-3.175,-3.1223,-3.2127,-3.1235,-3.062,-3.062,-3.0093,-2.9792,-2.9792,-2.9792,-2.9792,-2.9792,-2.9792,-2.9792,-2.9792,-2.9792,-2.9792,-2.9792,-2.9792,-2.9792,-2.9792,-2.9792,-2.9792,-2.9792,-2.9792,-2.9792,-2.9792,-2.9792,-2.8712,-2.6964,-2.6637,-2.5305,-2.3551,-2.3222,-2.3135,-2.3135,-2.3135,-2.3135,-2.3135,-2.3135,-2.3057,-2.2949,-2.2949,-2.3523,-2.4461,-2.6108,-2.7046,-2.7855,-2.9028,-2.9275,-2.9275,-2.9275,-2.9546,-2.9792,-2.9792,-2.9792,-2.9741,-2.9566,-2.9528,-2.9478,-2.9315,-2.9289,-2.9151,-2.8737,-2.8687,-2.8536,-2.8147,-2.7959,-2.7858,-2.7858,-2.7858,-2.7632,-2.708,-2.6696,-2.7071,-2.8317,-2.7815,-2.7551,-2.7702,-2.6972,-2.6506,-2.634,-2.5163,-2.4569,-2.4569,-2.4004,-2.374,-2.3728,-2.3314,-2.3424,-2.3917,-2.2988,-2.3216,-2.4127,-2.3245,-2.3195,-2.345,-2.2225,-2.1135,-2.0147,-1.8745,-1.7601,-1.6748,-3.3181,-3.352,-3.3796,-3.3458,-3.3495,-3.3533,-3.342,-3.3219,-3.3081,-3.3081,-3.2767,-3.2692,-3.3043,-3.1788,-3.1361,-3.2453,-3.1549,-3.0834,-3.0633,-3.0093,-2.9792,-2.9792,-2.9792,-2.9792,-2.9792,-2.9792,-2.9792,-2.9792,-2.9792,-2.9792,-2.9792,-2.9792,-2.9792,-2.9792,-2.9792,-2.9792,-2.9792,-2.9792,-2.9792,-2.9792,-2.9792,-2.8961,-2.7718,-2.6812,-2.5641,-2.4307,-2.3387,-2.3135,-2.3135,-2.3135,-2.3135,-2.3135,-2.3135,-2.3135,-2.3135,-2.3135,-2.3877,-2.5041,-2.6224,-2.7279,-2.8347,-2.9534,-2.9792,-2.9792,-2.9792,-2.9792,-2.9792,-2.9792,-2.9792,-2.9792,-2.9792,-2.9792,-2.9792,-2.9792,-2.9792,-2.9666,-2.9315,-2.9277,-2.9151,-2.8812,-2.8574,-2.8436,-2.8436,-2.8436,-2.8298,-2.7959,-2.7017,-2.6934,-2.7952,-2.7041,-2.682,-2.7468,-2.682,-2.6533,-2.6533,-2.5799,-2.536,-2.5121,-2.4356,-2.4004,-2.3979,-2.3401,-2.3543,-2.4253,-2.2928,-2.3152,-2.441,-2.3138,-2.2887,-2.3143,-2.2086,-2.1038,-1.9958,-1.8887,-1.7827,-1.6861,-3.3244,-3.3558,-3.3897,-3.3897,-3.3483,-3.3307,-3.3759,-3.3395,-3.3081,-3.3081,-3.3081,-3.3081,-3.3081,-3.2114,-3.1901,-3.298,-3.2039,-3.1173,-3.0658,-3.0093,-2.9792,-2.9792,-2.9792,-2.9792,-2.9624,-2.9792,-2.9792,-2.9792,-2.9792,-2.9792,-2.9624,-2.9624,-2.9624,-2.9624,-2.9546,-2.9546,-2.9624,-2.9624,-2.9624,-2.9624,-2.9792,-2.9702,-2.93,-2.7302,-2.64,-2.5891,-2.381,-2.3135,-2.3135,-2.3135,-2.3135,-2.3135,-2.3135,-2.3135,-2.3135,-2.3135,-2.3877,-2.5041,-2.6224,-2.7279,-2.8347,-2.9534,-2.9792,-2.9792,-2.9792,-2.9792,-2.9792,-2.9792,-2.9792,-2.9792,-2.9792,-2.9792,-2.9792,-2.9792,-2.9792,-2.9792,-2.9792,-2.9792,-2.9792,-2.9792,-2.9289,-2.895,-2.9001,-2.8963,-2.8925,-2.8925,-2.7494,-2.6564,-2.6519,-2.6527,-2.649,-2.6533,-2.6533,-2.6533,-2.6533,-2.6533,-2.6189,-2.5661,-2.4632,-2.4117,-2.4054,-2.3477,-2.3582,-2.4226,-2.3036,-2.3239,-2.4431,-2.3285,-2.2797,-2.2694,-2.2053,-2.107,-1.9972,-1.9287,-1.8327,-1.742,-3.3658,-3.3822,-3.3897,-3.3897,-3.3796,-3.3621,-3.3307,-3.3156,-3.3081,-3.3081,-3.3081,-3.3081,-3.3081,-3.2453,-3.2315,-3.3018,-3.2039,-3.1173,-3.0658,-3.0093,-2.9792,-2.9792,-2.9792,-2.9365,-2.8518,-2.9365,-2.9792,-2.9792,-2.9792,-2.9365,-2.8426,-2.8426,-2.8426,-2.8426,-2.7626,-2.7706,-2.8426,-2.8426,-2.8426,-2.8518,-2.9443,-2.8791,-2.7139,-2.6637,-2.5389,-2.381,-2.3309,-2.3135,-2.3135,-2.3135,-2.3135,-2.3135,-2.3135,-2.3135,-2.3135,-2.3135,-2.3877,-2.5041,-2.6224,-2.7279,-2.8347,-2.9534,-2.9792,-2.9792,-2.9792,-2.9792,-2.9792,-2.9792,-2.9792,-2.9792,-2.9792,-2.9792,-2.9792,-2.9792,-2.9792,-2.9792,-2.9792,-2.9792,-2.9792,-2.9792,-2.9289,-2.9114,-2.9566,-2.9202,-2.8925,-2.8925,-2.8197,-2.7376,-2.6556,-2.6528,-2.6519,-2.6465,-2.6533,-2.6533,-2.6533,-2.6533,-2.6402,-2.6332,-2.5573,-2.5034,-2.4619,-2.4067,-2.3978,-2.4253,-2.3514,-2.3673,-2.4474,-2.3745,-2.3462,-2.3319,-2.2725,-2.1749,-2.0557,-1.9489,-1.8377,-1.7402,-3.3897,-3.3897,-3.3822,-3.3558,-3.3508,-3.3407,-3.3119,-3.3081,-3.3081,-3.3081,-3.3081,-3.3081,-3.3081,-3.2554,-3.2127,-3.1913,-3.1587,-3.106,-3.0269,-2.9955,-2.9546,-2.9028,-2.9015,-2.8438,-2.7371,-2.7959,-2.8223,-2.8223,-2.8223,-2.7959,-2.736,-2.736,-2.736,-2.7279,-2.6719,-2.7128,-2.8096,-2.8096,-2.8426,-2.8937,-2.9546,-2.8779,-2.7209,-2.6719,-2.5389,-2.38,-2.3299,-2.3135,-2.3135,-2.3135,-2.3135,-2.3135,-2.3135,-2.3135,-2.3135,-2.3135,-2.4307,-2.5714,-2.6307,-2.7706,-2.9028,-2.9624,-2.9792,-2.9792,-2.9792,-2.9792,-2.9792,-2.9792,-2.9792,-2.9792,-2.9792,-2.9792,-2.9792,-2.9792,-2.9792,-2.9792,-2.9792,-2.9792,-2.9792,-2.9792,-2.9528,-2.9453,-2.9767,-2.9264,-2.9038,-2.9315,-2.8574,-2.7974,-2.769,-2.7429,-2.7179,-2.7014,-2.7001,-2.6997,-2.7056,-2.6696,-2.6477,-2.6521,-2.5875,-2.5448,-2.5159,-2.4368,-2.4246,-2.4662,-2.3734,-2.3609,-2.4041,-2.376,-2.3241,-2.2651,-2.2331,-2.1685,-2.0725,-1.9786,-1.8716,-1.7743,-3.4034,-3.4035,-3.3771,-3.3034,-3.2934,-3.2909,-3.281,-3.2797,-3.2884,-3.3068,-3.3081,-3.3081,-3.3081,-3.2554,-3.1888,-3.111,-3.1173,-3.0841,-2.987,-2.9646,-2.9028,-2.7855,-2.7855,-2.7279,-2.6224,-2.6224,-2.6307,-2.6483,-2.6483,-2.6389,-2.6224,-2.6224,-2.6224,-2.6224,-2.5975,-2.6543,-2.751,-2.7763,-2.8359,-2.9287,-2.9624,-2.9106,-2.8004,-2.6883,-2.5797,-2.4628,-2.3551,-2.3135,-2.3135,-2.3135,-2.3135,-2.3135,-2.3135,-2.3135,-2.3135,-2.3299,-2.4893,-2.6565,-2.6719,-2.8211,-2.9792,-2.9792,-2.9792,-2.9792,-2.9792,-2.9792,-2.9792,-2.9792,-2.9792,-2.9792,-2.9792,-2.9792,-2.9792,-2.9792,-2.9792,-2.9792,-2.9792,-2.9792,-2.9792,-2.9792,-2.9792,-2.9792,-2.9792,-2.9365,-2.9277,-2.9754,-2.8925,-2.8549,-2.8913,-2.8499,-2.8074,-2.7728,-2.7715,-2.7663,-2.7675,-2.7067,-2.6756,-2.6659,-2.6113,-2.5787,-2.5561,-2.4582,-2.444,-2.487,-2.3869,-2.3512,-2.3543,-2.3526,-2.2927,-2.2005,-2.1785,-2.1486,-2.1028,-2.0142,-1.9081,-1.8008,-3.4342,-3.4613,-3.4052,-3.2485,-3.2208,-3.204,-3.1572,-3.15,-3.1865,-3.2982,-3.3081,-3.3081,-3.3081,-3.2554,-3.2353,-3.2717,-3.1499,-3.0431,-2.9797,-2.8862,-2.7855,-2.6801,-2.6719,-2.6224,-2.5041,-2.5041,-2.5546,-2.6483,-2.6483,-2.5975,-2.5041,-2.5041,-2.5041,-2.4957,-2.3973,-2.4221,-2.5284,-2.6295,-2.6812,-2.7139,-2.904,-2.9106,-2.8004,-2.6883,-2.5797,-2.4628,-2.3551,-2.3135,-2.3135,-2.3135,-2.3135,-2.3135,-2.3135,-2.3135,-2.3299,-2.4296,-2.5462,-2.6719,-2.7602,-2.8858,-2.9792,-2.9792,-2.9792,-2.9792,-2.9792,-2.9792,-2.9792,-2.9792,-2.9792,-2.9792,-2.9792,-2.9792,-2.9792,-2.9792,-2.9792,-2.9792,-2.9792,-2.9792,-2.9792,-2.9792,-2.9792,-2.9792,-2.9792,-2.9729,-2.9704,-2.9779,-2.9654,-2.9377,-2.895,-2.885,-2.8586,-2.8024,-2.7999,-2.8059,-2.8009,-2.7898,-2.761,-2.7168,-2.7092,-2.654,-2.5573,-2.4983,-2.4507,-2.414,-2.4184,-2.383,-2.3334,-2.3505,-2.3455,-2.3146,-2.2108,-2.2007,-2.2257,-2.0597,-1.8926,-1.7554,-3.3981,-3.3439,-3.2495,-3.1717,-3.1026,-3.0491,-3.026,-3.0765,-3.14,-3.1965,-3.2698,-3.3081,-3.3081,-3.2855,-3.2541,-3.2164,-3.1474,-3.0723,-2.9856,-2.9297,-2.8291,-2.6565,-2.6483,-2.5641,-2.3877,-2.3887,-2.4135,-2.4638,-2.4638,-2.4307,-2.3887,-2.3887,-2.3887,-2.38,-2.3299,-2.3714,-2.4872,-2.6058,-2.6883,-2.7522,-2.9118,-2.9106,-2.8004,-2.6883,-2.5797,-2.4628,-2.3551,-2.3135,-2.3135,-2.3135,-2.3135,-2.3135,-2.3135,-2.3135,-2.3299,-2.4457,-2.563,-2.6719,-2.7844,-2.8937,-2.9792,-2.9792,-2.9792,-2.9792,-2.9792,-2.9792,-2.9792,-2.9792,-2.9792,-2.9792,-2.9792,-2.9792,-2.9792,-2.9792,-2.9792,-2.9792,-2.9792,-2.9792,-2.9792,-2.9792,-2.9792,-2.9792,-2.9792,-2.9792,-2.9792,-2.9792,-2.9792,-2.9679,-2.9428,-2.9415,-2.9302,-2.9063,-2.9051,-2.89,-2.8561,-2.8848,-2.8644,-2.7733,-2.7431,-2.6854,-2.6063,-2.5498,-2.4958,-2.4431,-2.4223,-2.3577,-2.2776,-2.3228,-2.3053,-2.2424,-2.2248,-2.1994,-2.1445,-1.9969,-1.8745,-1.7882]}]]